﻿<?xml version="1.0" encoding="utf-8"?><gpx creator="Garmin Desktop App" version="1.1" xsi:schemaLocation="http://www.topografix.com/GPX/1/1 http://www.topografix.com/GPX/1/1/gpx.xsd http://www.garmin.com/xmlschemas/WaypointExtension/v1 http://www8.garmin.com/xmlschemas/WaypointExtensionv1.xsd http://www.garmin.com/xmlschemas/TrackPointExtension/v1 http://www.garmin.com/xmlschemas/TrackPointExtensionv1.xsd http://www.garmin.com/xmlschemas/GpxExtensions/v3 http://www8.garmin.com/xmlschemas/GpxExtensionsv3.xsd http://www.garmin.com/xmlschemas/ActivityExtension/v1 http://www8.garmin.com/xmlschemas/ActivityExtensionv1.xsd http://www.garmin.com/xmlschemas/AdventuresExtensions/v1 http://www8.garmin.com/xmlschemas/AdventuresExtensionv1.xsd http://www.garmin.com/xmlschemas/PressureExtension/v1 http://www.garmin.com/xmlschemas/PressureExtensionv1.xsd http://www.garmin.com/xmlschemas/TripExtensions/v1 http://www.garmin.com/xmlschemas/TripExtensionsv1.xsd http://www.garmin.com/xmlschemas/TripMetaDataExtensions/v1 http://www.garmin.com/xmlschemas/TripMetaDataExtensionsv1.xsd http://www.garmin.com/xmlschemas/ViaPointTransportationModeExtensions/v1 http://www.garmin.com/xmlschemas/ViaPointTransportationModeExtensionsv1.xsd http://www.garmin.com/xmlschemas/CreationTimeExtension/v1 http://www.garmin.com/xmlschemas/CreationTimeExtensionsv1.xsd http://www.garmin.com/xmlschemas/AccelerationExtension/v1 http://www.garmin.com/xmlschemas/AccelerationExtensionv1.xsd http://www.garmin.com/xmlschemas/PowerExtension/v1 http://www.garmin.com/xmlschemas/PowerExtensionv1.xsd http://www.garmin.com/xmlschemas/VideoExtension/v1 http://www.garmin.com/xmlschemas/VideoExtensionv1.xsd" xmlns="http://www.topografix.com/GPX/1/1" xmlns:xsi="http://www.w3.org/2001/XMLSchema-instance" xmlns:wptx1="http://www.garmin.com/xmlschemas/WaypointExtension/v1" xmlns:gpxtrx="http://www.garmin.com/xmlschemas/GpxExtensions/v3" xmlns:gpxtpx="http://www.garmin.com/xmlschemas/TrackPointExtension/v1" xmlns:gpxx="http://www.garmin.com/xmlschemas/GpxExtensions/v3" xmlns:trp="http://www.garmin.com/xmlschemas/TripExtensions/v1" xmlns:adv="http://www.garmin.com/xmlschemas/AdventuresExtensions/v1" xmlns:prs="http://www.garmin.com/xmlschemas/PressureExtension/v1" xmlns:tmd="http://www.garmin.com/xmlschemas/TripMetaDataExtensions/v1" xmlns:vptm="http://www.garmin.com/xmlschemas/ViaPointTransportationModeExtensions/v1" xmlns:ctx="http://www.garmin.com/xmlschemas/CreationTimeExtension/v1" xmlns:gpxacc="http://www.garmin.com/xmlschemas/AccelerationExtension/v1" xmlns:gpxpx="http://www.garmin.com/xmlschemas/PowerExtension/v1" xmlns:vidx1="http://www.garmin.com/xmlschemas/VideoExtension/v1">

  <metadata>
    <link href="http://www.garmin.com">
      <text>Garmin International</text>
    </link>
    <time>2018-10-16T06:34:15Z</time>
    <bounds maxlat="59.884248040616512" maxlon="7.118117026984692" minlat="59.853007011115551" minlon="7.073737028986216" />
  </metadata>

  <trk>
    <name>Verjesteinsnuten 2018</name>
    <extensions>
      <gpxx:TrackExtension>
        <gpxx:DisplayColor>DarkGray</gpxx:DisplayColor>
      </gpxx:TrackExtension>
    </extensions>
    <trkseg>
      <trkpt lat="59.853122010827065" lon="7.114409040659666">
        <ele>997.01999999999998</ele>
        <time>2018-10-15T13:01:55Z</time>
      </trkpt>
      <trkpt lat="59.853066019713879" lon="7.114452039822936">
        <ele>996.05999999999995</ele>
        <time>2018-10-15T13:02:02Z</time>
      </trkpt>
      <trkpt lat="59.853067025542259" lon="7.114439969882369">
        <ele>997.01999999999998</ele>
        <time>2018-10-15T13:02:04Z</time>
      </trkpt>
      <trkpt lat="59.853180013597012" lon="7.114124977961183">
        <ele>996.53999999999996</ele>
        <time>2018-10-15T13:02:11Z</time>
      </trkpt>
      <trkpt lat="59.853366008028388" lon="7.113621979951859">
        <ele>996.05999999999995</ele>
        <time>2018-10-15T13:02:21Z</time>
      </trkpt>
      <trkpt lat="59.853492993861437" lon="7.113284021615982">
        <ele>995.58000000000004</ele>
        <time>2018-10-15T13:02:28Z</time>
      </trkpt>
      <trkpt lat="59.853703966364264" lon="7.113656010478735">
        <ele>996.05999999999995</ele>
        <time>2018-10-15T13:02:38Z</time>
      </trkpt>
      <trkpt lat="59.853792982175946" lon="7.113703032955527">
        <ele>997.01999999999998</ele>
        <time>2018-10-15T13:02:41Z</time>
      </trkpt>
      <trkpt lat="59.853995991870761" lon="7.113347975537181">
        <ele>997.99000000000001</ele>
        <time>2018-10-15T13:02:49Z</time>
      </trkpt>
      <trkpt lat="59.854047037661076" lon="7.113290978595614">
        <ele>997.50999999999999</ele>
        <time>2018-10-15T13:02:51Z</time>
      </trkpt>
      <trkpt lat="59.85429598018527" lon="7.11330397054553">
        <ele>997.01999999999998</ele>
        <time>2018-10-15T13:02:59Z</time>
      </trkpt>
      <trkpt lat="59.85444501042366" lon="7.113313023000956">
        <ele>997.50999999999999</ele>
        <time>2018-10-15T13:03:04Z</time>
      </trkpt>
      <trkpt lat="59.85461600124836" lon="7.113427016884089">
        <ele>998.47000000000003</ele>
        <time>2018-10-15T13:03:10Z</time>
      </trkpt>
      <trkpt lat="59.85472203232348" lon="7.113513015210629">
        <ele>1000.39</ele>
        <time>2018-10-15T13:03:15Z</time>
      </trkpt>
      <trkpt lat="59.854803001508117" lon="7.113589039072394">
        <ele>1002.3099999999999</ele>
        <time>2018-10-15T13:03:19Z</time>
      </trkpt>
      <trkpt lat="59.854910960420966" lon="7.113833036273718">
        <ele>1004.23</ele>
        <time>2018-10-15T13:03:25Z</time>
      </trkpt>
      <trkpt lat="59.854952031746507" lon="7.113891039043665">
        <ele>1004.72</ele>
        <time>2018-10-15T13:03:27Z</time>
      </trkpt>
      <trkpt lat="59.855063008144498" lon="7.113809986039996">
        <ele>1005.6799999999999</ele>
        <time>2018-10-15T13:03:31Z</time>
      </trkpt>
      <trkpt lat="59.855115981772542" lon="7.113857008516789">
        <ele>1006.16</ele>
        <time>2018-10-15T13:03:33Z</time>
      </trkpt>
      <trkpt lat="59.855163004249334" lon="7.113842004910111">
        <ele>1007.12</ele>
        <time>2018-10-15T13:03:35Z</time>
      </trkpt>
      <trkpt lat="59.855351010337472" lon="7.113802023231983">
        <ele>1008.08</ele>
        <time>2018-10-15T13:03:43Z</time>
      </trkpt>
      <trkpt lat="59.855474978685379" lon="7.113878969103098">
        <ele>1009.04</ele>
        <time>2018-10-15T13:03:48Z</time>
      </trkpt>
      <trkpt lat="59.855546979233623" lon="7.11403101682663">
        <ele>1009.04</ele>
        <time>2018-10-15T13:03:53Z</time>
      </trkpt>
      <trkpt lat="59.85575501807034" lon="7.114230003207922">
        <ele>1010.96</ele>
        <time>2018-10-15T13:04:01Z</time>
      </trkpt>
      <trkpt lat="59.855842022225261" lon="7.114404011517763">
        <ele>1012.41</ele>
        <time>2018-10-15T13:04:06Z</time>
      </trkpt>
      <trkpt lat="59.856008989736438" lon="7.11465303786099">
        <ele>1013.37</ele>
        <time>2018-10-15T13:04:13Z</time>
      </trkpt>
      <trkpt lat="59.856115020811558" lon="7.114838026463985">
        <ele>1015.29</ele>
        <time>2018-10-15T13:04:20Z</time>
      </trkpt>
      <trkpt lat="59.856218034401536" lon="7.114989990368486">
        <ele>1016.25</ele>
        <time>2018-10-15T13:04:25Z</time>
      </trkpt>
      <trkpt lat="59.856323981657624" lon="7.11512896232307">
        <ele>1017.6900000000001</ele>
        <time>2018-10-15T13:04:30Z</time>
      </trkpt>
      <trkpt lat="59.856390031054616" lon="7.115266006439924">
        <ele>1018.65</ele>
        <time>2018-10-15T13:04:34Z</time>
      </trkpt>
      <trkpt lat="59.856437975540757" lon="7.115369020029903">
        <ele>1020.58</ele>
        <time>2018-10-15T13:04:38Z</time>
      </trkpt>
      <trkpt lat="59.856481980532408" lon="7.115527018904686">
        <ele>1022.02</ele>
        <time>2018-10-15T13:04:42Z</time>
      </trkpt>
      <trkpt lat="59.856517016887665" lon="7.115675965324044">
        <ele>1022.98</ele>
        <time>2018-10-15T13:04:48Z</time>
      </trkpt>
      <trkpt lat="59.856532020494342" lon="7.115816026926041">
        <ele>1024.9000000000001</ele>
        <time>2018-10-15T13:04:52Z</time>
      </trkpt>
      <trkpt lat="59.856538977473974" lon="7.115985006093979">
        <ele>1027.3099999999999</ele>
        <time>2018-10-15T13:04:57Z</time>
      </trkpt>
      <trkpt lat="59.856569990515709" lon="7.116261022165418">
        <ele>1030.1900000000001</ele>
        <time>2018-10-15T13:05:04Z</time>
      </trkpt>
      <trkpt lat="59.856625981628895" lon="7.116383984684944">
        <ele>1032.5899999999999</ele>
        <time>2018-10-15T13:05:10Z</time>
      </trkpt>
      <trkpt lat="59.856645008549094" lon="7.116383984684944">
        <ele>1033.55</ele>
        <time>2018-10-15T13:05:13Z</time>
      </trkpt>
      <trkpt lat="59.856684990227222" lon="7.116377027705312">
        <ele>1035</ele>
        <time>2018-10-15T13:05:17Z</time>
      </trkpt>
      <trkpt lat="59.856732012704015" lon="7.116389013826847">
        <ele>1035.96</ele>
        <time>2018-10-15T13:05:20Z</time>
      </trkpt>
      <trkpt lat="59.856777023524046" lon="7.116380967199802">
        <ele>1036.4400000000001</ele>
        <time>2018-10-15T13:05:22Z</time>
      </trkpt>
      <trkpt lat="59.856822034344077" lon="7.116404017433524">
        <ele>1037.4000000000001</ele>
        <time>2018-10-15T13:05:24Z</time>
      </trkpt>
      <trkpt lat="59.856880959123373" lon="7.116422038525343">
        <ele>1037.8800000000001</ele>
        <time>2018-10-15T13:05:27Z</time>
      </trkpt>
      <trkpt lat="59.857011968269944" lon="7.116394964978099">
        <ele>1038.8399999999999</ele>
        <time>2018-10-15T13:05:33Z</time>
      </trkpt>
      <trkpt lat="59.857116993516684" lon="7.116419021040201">
        <ele>1040.28</ele>
        <time>2018-10-15T13:05:39Z</time>
      </trkpt>
      <trkpt lat="59.857181031256914" lon="7.116426983848214">
        <ele>1041.25</ele>
        <time>2018-10-15T13:05:44Z</time>
      </trkpt>
      <trkpt lat="59.857214977964759" lon="7.116420026868582">
        <ele>1041.73</ele>
        <time>2018-10-15T13:05:46Z</time>
      </trkpt>
      <trkpt lat="59.857286978513002" lon="7.116378033533692">
        <ele>1042.21</ele>
        <time>2018-10-15T13:05:50Z</time>
      </trkpt>
      <trkpt lat="59.857397032901645" lon="7.116373004391789">
        <ele>1043.6500000000001</ele>
        <time>2018-10-15T13:05:56Z</time>
      </trkpt>
      <trkpt lat="59.857484959065914" lon="7.116391025483608">
        <ele>1045.0899999999999</ele>
        <time>2018-10-15T13:06:00Z</time>
      </trkpt>
      <trkpt lat="59.857534999027848" lon="7.116347020491958">
        <ele>1045.5699999999999</ele>
        <time>2018-10-15T13:06:02Z</time>
      </trkpt>
      <trkpt lat="59.857668019831181" lon="7.116318019106984">
        <ele>1046.53</ele>
        <time>2018-10-15T13:06:08Z</time>
      </trkpt>
      <trkpt lat="59.857691992074251" lon="7.116327993571758">
        <ele>1047.01</ele>
        <time>2018-10-15T13:06:09Z</time>
      </trkpt>
      <trkpt lat="59.857811015099287" lon="7.116344003006816">
        <ele>1048.45</ele>
        <time>2018-10-15T13:06:14Z</time>
      </trkpt>
      <trkpt lat="59.857914028689265" lon="7.1164829749614">
        <ele>1049.9000000000001</ele>
        <time>2018-10-15T13:06:19Z</time>
      </trkpt>
      <trkpt lat="59.85805400647223" lon="7.116603003814817">
        <ele>1050.8599999999999</ele>
        <time>2018-10-15T13:06:25Z</time>
      </trkpt>
      <trkpt lat="59.85816297121346" lon="7.116687996312976">
        <ele>1052.3</ele>
        <time>2018-10-15T13:06:31Z</time>
      </trkpt>
      <trkpt lat="59.858261961489916" lon="7.116796039044857">
        <ele>1053.26</ele>
        <time>2018-10-15T13:06:36Z</time>
      </trkpt>
      <trkpt lat="59.858348965644836" lon="7.116883965209127">
        <ele>1054.22</ele>
        <time>2018-10-15T13:06:41Z</time>
      </trkpt>
      <trkpt lat="59.858402023091912" lon="7.11695596575737">
        <ele>1054.22</ele>
        <time>2018-10-15T13:06:45Z</time>
      </trkpt>
      <trkpt lat="59.858439993113279" lon="7.116950014606118">
        <ele>1054.7</ele>
        <time>2018-10-15T13:06:47Z</time>
      </trkpt>
      <trkpt lat="59.858544012531638" lon="7.117025032639504">
        <ele>1055.6700000000001</ele>
        <time>2018-10-15T13:06:53Z</time>
      </trkpt>
      <trkpt lat="59.85861400142312" lon="7.117171967402101">
        <ele>1057.1099999999999</ele>
        <time>2018-10-15T13:06:59Z</time>
      </trkpt>
      <trkpt lat="59.858667980879545" lon="7.117201974615455">
        <ele>1058.55</ele>
        <time>2018-10-15T13:07:03Z</time>
      </trkpt>
      <trkpt lat="59.858764037489891" lon="7.117232987657189">
        <ele>1059.03</ele>
        <time>2018-10-15T13:07:09Z</time>
      </trkpt>
      <trkpt lat="59.858831008896232" lon="7.117338012903929">
        <ele>1062.3900000000001</ele>
        <time>2018-10-15T13:07:15Z</time>
      </trkpt>
      <trkpt lat="59.858835032209754" lon="7.117356033995748">
        <ele>1062.3900000000001</ele>
        <time>2018-10-15T13:07:16Z</time>
      </trkpt>
      <trkpt lat="59.858878031373024" lon="7.117418982088566">
        <ele>1063.8399999999999</ele>
        <time>2018-10-15T13:07:19Z</time>
      </trkpt>
      <trkpt lat="59.858904015272856" lon="7.117500035092235">
        <ele>1065.76</ele>
        <time>2018-10-15T13:07:23Z</time>
      </trkpt>
      <trkpt lat="59.858924970030785" lon="7.117562983185053">
        <ele>1067.2</ele>
        <time>2018-10-15T13:07:26Z</time>
      </trkpt>
      <trkpt lat="59.858991019427776" lon="7.117647975683212">
        <ele>1069.1199999999999</ele>
        <time>2018-10-15T13:07:31Z</time>
      </trkpt>
      <trkpt lat="59.859066037461162" lon="7.117696003988385">
        <ele>1071.05</ele>
        <time>2018-10-15T13:07:38Z</time>
      </trkpt>
      <trkpt lat="59.859162010252476" lon="7.117725005373359">
        <ele>1072.97</ele>
        <time>2018-10-15T13:07:44Z</time>
      </trkpt>
      <trkpt lat="59.859228981658816" lon="7.117784013971686">
        <ele>1074.8900000000001</ele>
        <time>2018-10-15T13:07:50Z</time>
      </trkpt>
      <trkpt lat="59.859265023842454" lon="7.117803962901235">
        <ele>1076.3299999999999</ele>
        <time>2018-10-15T13:07:53Z</time>
      </trkpt>
      <trkpt lat="59.859299976378679" lon="7.117811003699899">
        <ele>1077.29</ele>
        <time>2018-10-15T13:07:56Z</time>
      </trkpt>
      <trkpt lat="59.85934398137033" lon="7.117837993428111">
        <ele>1078.74</ele>
        <time>2018-10-15T13:07:59Z</time>
      </trkpt>
      <trkpt lat="59.85940701328218" lon="7.117854002863169">
        <ele>1080.6600000000001</ele>
        <time>2018-10-15T13:08:04Z</time>
      </trkpt>
      <trkpt lat="59.859457975253463" lon="7.117946036159992">
        <ele>1082.5799999999999</ele>
        <time>2018-10-15T13:08:10Z</time>
      </trkpt>
      <trkpt lat="59.859549002721906" lon="7.118038991466165">
        <ele>1084.5</ele>
        <time>2018-10-15T13:08:18Z</time>
      </trkpt>
      <trkpt lat="59.859585966914892" lon="7.118013007566333">
        <ele>1085.95</ele>
        <time>2018-10-15T13:08:21Z</time>
      </trkpt>
      <trkpt lat="59.859650004655123" lon="7.117979982867837">
        <ele>1088.3499999999999</ele>
        <time>2018-10-15T13:08:27Z</time>
      </trkpt>
      <trkpt lat="59.859729968011379" lon="7.117986017838121">
        <ele>1088.8299999999999</ele>
        <time>2018-10-15T13:08:32Z</time>
      </trkpt>
      <trkpt lat="59.859779002144933" lon="7.118021976202726">
        <ele>1088.3499999999999</ele>
        <time>2018-10-15T13:08:35Z</time>
      </trkpt>
      <trkpt lat="59.859833987429738" lon="7.118004960939288">
        <ele>1088.3499999999999</ele>
        <time>2018-10-15T13:08:39Z</time>
      </trkpt>
      <trkpt lat="59.859952004626393" lon="7.118043014779687">
        <ele>1089.3099999999999</ele>
        <time>2018-10-15T13:08:46Z</time>
      </trkpt>
      <trkpt lat="59.860054012387991" lon="7.118117026984692">
        <ele>1090.27</ele>
        <time>2018-10-15T13:08:54Z</time>
      </trkpt>
      <trkpt lat="59.860059041529894" lon="7.118110992014408">
        <ele>1090.27</ele>
        <time>2018-10-15T13:08:55Z</time>
      </trkpt>
      <trkpt lat="59.860188039019704" lon="7.118109986186028">
        <ele>1093.1600000000001</ele>
        <time>2018-10-15T13:09:03Z</time>
      </trkpt>
      <trkpt lat="59.860269008204341" lon="7.11809397675097">
        <ele>1094.5999999999999</ele>
        <time>2018-10-15T13:09:08Z</time>
      </trkpt>
      <trkpt lat="59.860358024016023" lon="7.118058018386364">
        <ele>1095.5599999999999</ele>
        <time>2018-10-15T13:09:13Z</time>
      </trkpt>
      <trkpt lat="59.860404040664434" lon="7.118023987859488">
        <ele>1095.5599999999999</ele>
        <time>2018-10-15T13:09:15Z</time>
      </trkpt>
      <trkpt lat="59.860433964058757" lon="7.118008984252811">
        <ele>1095.5599999999999</ele>
        <time>2018-10-15T13:09:17Z</time>
      </trkpt>
      <trkpt lat="59.860477969050407" lon="7.117972020059824">
        <ele>1096.52</ele>
        <time>2018-10-15T13:09:21Z</time>
      </trkpt>
      <trkpt lat="59.860528009012341" lon="7.117952993139625">
        <ele>1097.96</ele>
        <time>2018-10-15T13:09:26Z</time>
      </trkpt>
      <trkpt lat="59.860584000125527" lon="7.117920974269509">
        <ele>1098.9200000000001</ele>
        <time>2018-10-15T13:09:29Z</time>
      </trkpt>
      <trkpt lat="59.860702017322183" lon="7.117924997583032">
        <ele>1099.8900000000001</ele>
        <time>2018-10-15T13:09:35Z</time>
      </trkpt>
      <trkpt lat="59.860737975686789" lon="7.117947963997722">
        <ele>1099.8900000000001</ele>
        <time>2018-10-15T13:09:37Z</time>
      </trkpt>
      <trkpt lat="59.860886000096798" lon="7.118052989244461">
        <ele>1101.3299999999999</ele>
        <time>2018-10-15T13:09:46Z</time>
      </trkpt>
      <trkpt lat="59.860928999260068" lon="7.118046032264829">
        <ele>1102.29</ele>
        <time>2018-10-15T13:09:48Z</time>
      </trkpt>
      <trkpt lat="59.860987002030015" lon="7.118023987859488">
        <ele>1102.77</ele>
        <time>2018-10-15T13:09:51Z</time>
      </trkpt>
      <trkpt lat="59.86101902090013" lon="7.118033962324262">
        <ele>1103.25</ele>
        <time>2018-10-15T13:09:53Z</time>
      </trkpt>
      <trkpt lat="59.861129997298121" lon="7.117984006181359">
        <ele>1104.6900000000001</ele>
        <time>2018-10-15T13:10:00Z</time>
      </trkpt>
      <trkpt lat="59.861181965097785" lon="7.117965985089541">
        <ele>1105.1700000000001</ele>
        <time>2018-10-15T13:10:03Z</time>
      </trkpt>
      <trkpt lat="59.861273998394608" lon="7.117980988696218">
        <ele>1107.0999999999999</ele>
        <time>2018-10-15T13:10:08Z</time>
      </trkpt>
      <trkpt lat="59.861323032528162" lon="7.117969002574682">
        <ele>1108.54</ele>
        <time>2018-10-15T13:10:11Z</time>
      </trkpt>
      <trkpt lat="59.861402995884418" lon="7.117920974269509">
        <ele>1109.98</ele>
        <time>2018-10-15T13:10:17Z</time>
      </trkpt>
      <trkpt lat="59.861435014754534" lon="7.117915023118258">
        <ele>1110.9400000000001</ele>
        <time>2018-10-15T13:10:30Z</time>
      </trkpt>
      <trkpt lat="59.861486982554197" lon="7.117855008691549">
        <ele>1111.4200000000001</ele>
        <time>2018-10-15T13:10:42Z</time>
      </trkpt>
      <trkpt lat="59.861519001424313" lon="7.117846962064505">
        <ele>1111.9000000000001</ele>
        <time>2018-10-15T13:10:45Z</time>
      </trkpt>
      <trkpt lat="59.861677000299096" lon="7.117802035063505">
        <ele>1111.9000000000001</ele>
        <time>2018-10-15T13:10:56Z</time>
      </trkpt>
      <trkpt lat="59.861703990027308" lon="7.117776973173022">
        <ele>1112.3800000000001</ele>
        <time>2018-10-15T13:10:59Z</time>
      </trkpt>
      <trkpt lat="59.861799962818623" lon="7.117745960131288">
        <ele>1114.79</ele>
        <time>2018-10-15T13:11:07Z</time>
      </trkpt>
      <trkpt lat="59.86185503192246" lon="7.117764987051487">
        <ele>1115.75</ele>
        <time>2018-10-15T13:11:12Z</time>
      </trkpt>
      <trkpt lat="59.86190197058022" lon="7.117789965122938">
        <ele>1116.23</ele>
        <time>2018-10-15T13:11:15Z</time>
      </trkpt>
      <trkpt lat="59.862089976668358" lon="7.117700027301908">
        <ele>1117.6700000000001</ele>
        <time>2018-10-15T13:11:27Z</time>
      </trkpt>
      <trkpt lat="59.862270019948483" lon="7.117519984021783">
        <ele>1120.55</ele>
        <time>2018-10-15T13:11:41Z</time>
      </trkpt>
      <trkpt lat="59.862366998568177" lon="7.117472039535642">
        <ele>1123.4400000000001</ele>
        <time>2018-10-15T13:11:48Z</time>
      </trkpt>
      <trkpt lat="59.862451991066337" lon="7.117481008172035">
        <ele>1123.9200000000001</ele>
        <time>2018-10-15T13:11:52Z</time>
      </trkpt>
      <trkpt lat="59.862618036568165" lon="7.11755502037704">
        <ele>1125.3599999999999</ele>
        <time>2018-10-15T13:12:01Z</time>
      </trkpt>
      <trkpt lat="59.862717026844621" lon="7.117527024820447">
        <ele>1126.3199999999999</ele>
        <time>2018-10-15T13:12:07Z</time>
      </trkpt>
      <trkpt lat="59.86275801435113" lon="7.117543034255505">
        <ele>1126.8</ele>
        <time>2018-10-15T13:12:09Z</time>
      </trkpt>
      <trkpt lat="59.86282498575747" lon="7.117526018992066">
        <ele>1128.73</ele>
        <time>2018-10-15T13:12:13Z</time>
      </trkpt>
      <trkpt lat="59.862846024334431" lon="7.117525013163686">
        <ele>1129.6900000000001</ele>
        <time>2018-10-15T13:12:15Z</time>
      </trkpt>
      <trkpt lat="59.862923976033926" lon="7.117341030389071">
        <ele>1130.1700000000001</ele>
        <time>2018-10-15T13:12:21Z</time>
      </trkpt>
      <trkpt lat="59.862965969368815" lon="7.117264000698924">
        <ele>1131.1300000000001</ele>
        <time>2018-10-15T13:12:24Z</time>
      </trkpt>
      <trkpt lat="59.863001005724072" lon="7.117264000698924">
        <ele>1131.1300000000001</ele>
        <time>2018-10-15T13:12:26Z</time>
      </trkpt>
      <trkpt lat="59.863099996000528" lon="7.117140032351017">
        <ele>1132.5699999999999</ele>
        <time>2018-10-15T13:12:32Z</time>
      </trkpt>
      <trkpt lat="59.863160010427237" lon="7.117063002660871">
        <ele>1134.01</ele>
        <time>2018-10-15T13:12:36Z</time>
      </trkpt>
      <trkpt lat="59.863205021247268" lon="7.117055961862207">
        <ele>1134.49</ele>
        <time>2018-10-15T13:12:38Z</time>
      </trkpt>
      <trkpt lat="59.863293031230569" lon="7.116898968815804">
        <ele>1134.97</ele>
        <time>2018-10-15T13:12:44Z</time>
      </trkpt>
      <trkpt lat="59.863350028172135" lon="7.116859992966056">
        <ele>1135.45</ele>
        <time>2018-10-15T13:12:47Z</time>
      </trkpt>
      <trkpt lat="59.8634900059551" lon="7.11673803627491">
        <ele>1136.9000000000001</ele>
        <time>2018-10-15T13:12:55Z</time>
      </trkpt>
      <trkpt lat="59.863620009273291" lon="7.116569979116321">
        <ele>1136.9000000000001</ele>
        <time>2018-10-15T13:13:02Z</time>
      </trkpt>
      <trkpt lat="59.863769961521029" lon="7.116431007161737">
        <ele>1135.9400000000001</ele>
        <time>2018-10-15T13:13:10Z</time>
      </trkpt>
      <trkpt lat="59.863815978169441" lon="7.116453973576427">
        <ele>1135.45</ele>
        <time>2018-10-15T13:13:13Z</time>
      </trkpt>
      <trkpt lat="59.863900970667601" lon="7.116402005776763">
        <ele>1135.45</ele>
        <time>2018-10-15T13:13:19Z</time>
      </trkpt>
      <trkpt lat="59.864050000905991" lon="7.116276025772095">
        <ele>1136.4200000000001</ele>
        <time>2018-10-15T13:13:27Z</time>
      </trkpt>
      <trkpt lat="59.864207999780774" lon="7.116125989705324">
        <ele>1139.3</ele>
        <time>2018-10-15T13:13:37Z</time>
      </trkpt>
      <trkpt lat="59.864347977563739" lon="7.116032028570771">
        <ele>1142.6600000000001</ele>
        <time>2018-10-15T13:13:46Z</time>
      </trkpt>
      <trkpt lat="59.864449985325336" lon="7.116015013307333">
        <ele>1144.1099999999999</ele>
        <time>2018-10-15T13:13:51Z</time>
      </trkpt>
      <trkpt lat="59.864509999752045" lon="7.115968996658921">
        <ele>1143.6300000000001</ele>
        <time>2018-10-15T13:13:54Z</time>
      </trkpt>
      <trkpt lat="59.864601027220488" lon="7.115947036072612">
        <ele>1141.7</ele>
        <time>2018-10-15T13:13:58Z</time>
      </trkpt>
      <trkpt lat="59.864753996953368" lon="7.115721981972456">
        <ele>1142.6600000000001</ele>
        <time>2018-10-15T13:14:07Z</time>
      </trkpt>
      <trkpt lat="59.864809988066554" lon="7.11564595811069">
        <ele>1142.1800000000001</ele>
        <time>2018-10-15T13:14:12Z</time>
      </trkpt>
      <trkpt lat="59.864926999434829" lon="7.1154710277915">
        <ele>1141.22</ele>
        <time>2018-10-15T13:14:19Z</time>
      </trkpt>
      <trkpt lat="59.865025989711285" lon="7.115363990888">
        <ele>1142.1800000000001</ele>
        <time>2018-10-15T13:14:25Z</time>
      </trkpt>
      <trkpt lat="59.865106958895922" lon="7.115228036418557">
        <ele>1144.5899999999999</ele>
        <time>2018-10-15T13:14:31Z</time>
      </trkpt>
      <trkpt lat="59.865181976929307" lon="7.115133991464973">
        <ele>1145.0699999999999</ele>
        <time>2018-10-15T13:14:35Z</time>
      </trkpt>
      <trkpt lat="59.865285996347666" lon="7.11512896232307">
        <ele>1144.1099999999999</ele>
        <time>2018-10-15T13:14:41Z</time>
      </trkpt>
      <trkpt lat="59.865356991067529" lon="7.115099960938096">
        <ele>1143.6300000000001</ele>
        <time>2018-10-15T13:14:45Z</time>
      </trkpt>
      <trkpt lat="59.865457993000746" lon="7.115089986473322">
        <ele>1143.1400000000001</ele>
        <time>2018-10-15T13:14:50Z</time>
      </trkpt>
      <trkpt lat="59.865562012419105" lon="7.11508403532207">
        <ele>1145.0699999999999</ele>
        <time>2018-10-15T13:14:56Z</time>
      </trkpt>
      <trkpt lat="59.865669971331954" lon="7.11504296399653">
        <ele>1146.51</ele>
        <time>2018-10-15T13:15:02Z</time>
      </trkpt>
      <trkpt lat="59.865836016833782" lon="7.114952020347118">
        <ele>1147.47</ele>
        <time>2018-10-15T13:15:09Z</time>
      </trkpt>
      <trkpt lat="59.865955961868167" lon="7.114949002861977">
        <ele>1147.47</ele>
        <time>2018-10-15T13:15:15Z</time>
      </trkpt>
      <trkpt lat="59.866104992106557" lon="7.114896029233933">
        <ele>1146.99</ele>
        <time>2018-10-15T13:15:21Z</time>
      </trkpt>
      <trkpt lat="59.866142040118575" lon="7.114883959293366">
        <ele>1146.99</ele>
        <time>2018-10-15T13:15:23Z</time>
      </trkpt>
      <trkpt lat="59.866295009851456" lon="7.114916983991861">
        <ele>1145.55</ele>
        <time>2018-10-15T13:15:30Z</time>
      </trkpt>
      <trkpt lat="59.866453008726239" lon="7.114886976778507">
        <ele>1146.51</ele>
        <time>2018-10-15T13:15:37Z</time>
      </trkpt>
      <trkpt lat="59.866471029818058" lon="7.11487197317183">
        <ele>1146.51</ele>
        <time>2018-10-15T13:15:38Z</time>
      </trkpt>
      <trkpt lat="59.866645960137248" lon="7.114856969565153">
        <ele>1147.47</ele>
        <time>2018-10-15T13:15:45Z</time>
      </trkpt>
      <trkpt lat="59.86677504144609" lon="7.114810030907393">
        <ele>1147.47</ele>
        <time>2018-10-15T13:15:50Z</time>
      </trkpt>
      <trkpt lat="59.866879982873797" lon="7.114701988175511">
        <ele>1146.99</ele>
        <time>2018-10-15T13:15:55Z</time>
      </trkpt>
      <trkpt lat="59.866999005898833" lon="7.114622024819255">
        <ele>1146.99</ele>
        <time>2018-10-15T13:16:00Z</time>
      </trkpt>
      <trkpt lat="59.867181982845068" lon="7.114516999572516">
        <ele>1145.0699999999999</ele>
        <time>2018-10-15T13:16:07Z</time>
      </trkpt>
      <trkpt lat="59.867305029183626" lon="7.11441800929606">
        <ele>1144.1099999999999</ele>
        <time>2018-10-15T13:16:12Z</time>
      </trkpt>
      <trkpt lat="59.867350962013006" lon="7.11439898237586">
        <ele>1144.1099999999999</ele>
        <time>2018-10-15T13:16:14Z</time>
      </trkpt>
      <trkpt lat="59.867436038330197" lon="7.114380039274693">
        <ele>1144.1099999999999</ele>
        <time>2018-10-15T13:16:17Z</time>
      </trkpt>
      <trkpt lat="59.867609962821007" lon="7.114342991262674">
        <ele>1144.1099999999999</ele>
        <time>2018-10-15T13:16:23Z</time>
      </trkpt>
      <trkpt lat="59.867726974189281" lon="7.114361012354493">
        <ele>1145.0699999999999</ele>
        <time>2018-10-15T13:16:29Z</time>
      </trkpt>
      <trkpt lat="59.867823030799627" lon="7.114359000697732">
        <ele>1146.03</ele>
        <time>2018-10-15T13:16:33Z</time>
      </trkpt>
      <trkpt lat="59.867982035502791" lon="7.114287000149488">
        <ele>1143.6300000000001</ele>
        <time>2018-10-15T13:16:44Z</time>
      </trkpt>
      <trkpt lat="59.868011958897114" lon="7.114329999312758">
        <ele>1142.6600000000001</ele>
        <time>2018-10-15T13:16:52Z</time>
      </trkpt>
      <trkpt lat="59.868015982210636" lon="7.114326981827617">
        <ele>1142.6600000000001</ele>
        <time>2018-10-15T13:17:39Z</time>
      </trkpt>
      <trkpt lat="59.868014976382256" lon="7.1143330167979">
        <ele>1142.6600000000001</ele>
        <time>2018-10-15T13:17:57Z</time>
      </trkpt>
      <trkpt lat="59.868014976382256" lon="7.114334022626281">
        <ele>1142.6600000000001</ele>
        <time>2018-10-15T13:18:05Z</time>
      </trkpt>
      <trkpt lat="59.868101980537176" lon="7.114434018731117">
        <ele>1142.1800000000001</ele>
        <time>2018-10-15T13:20:52Z</time>
      </trkpt>
      <trkpt lat="59.868262996897101" lon="7.114466959610581">
        <ele>1143.6300000000001</ele>
        <time>2018-10-15T13:20:59Z</time>
      </trkpt>
      <trkpt lat="59.868373973295093" lon="7.114470982924104">
        <ele>1143.1400000000001</ele>
        <time>2018-10-15T13:21:03Z</time>
      </trkpt>
      <trkpt lat="59.8686049785465" lon="7.114292029291391">
        <ele>1143.6300000000001</ele>
        <time>2018-10-15T13:21:10Z</time>
      </trkpt>
      <trkpt lat="59.868751997128129" lon="7.114125983789563">
        <ele>1144.5899999999999</ele>
        <time>2018-10-15T13:21:15Z</time>
      </trkpt>
      <trkpt lat="59.868803964927793" lon="7.114156996831298">
        <ele>1145.0699999999999</ele>
        <time>2018-10-15T13:21:17Z</time>
      </trkpt>
      <trkpt lat="59.868933968245983" lon="7.11416102014482">
        <ele>1144.5899999999999</ele>
        <time>2018-10-15T13:21:20Z</time>
      </trkpt>
      <trkpt lat="59.869002029299736" lon="7.114179041236639">
        <ele>1144.1099999999999</ele>
        <time>2018-10-15T13:21:22Z</time>
      </trkpt>
      <trkpt lat="59.869059026241302" lon="7.114142999053001">
        <ele>1144.1099999999999</ele>
        <time>2018-10-15T13:21:24Z</time>
      </trkpt>
      <trkpt lat="59.869207972660661" lon="7.114110980182886">
        <ele>1145.0699999999999</ele>
        <time>2018-10-15T13:21:30Z</time>
      </trkpt>
      <trkpt lat="59.869217025116086" lon="7.114092037081718">
        <ele>1144.5899999999999</ele>
        <time>2018-10-15T13:21:31Z</time>
      </trkpt>
      <trkpt lat="59.869310986250639" lon="7.114057000726461">
        <ele>1144.5899999999999</ele>
        <time>2018-10-15T13:21:35Z</time>
      </trkpt>
      <trkpt lat="59.869360020384192" lon="7.113996986299753">
        <ele>1144.5899999999999</ele>
        <time>2018-10-15T13:21:37Z</time>
      </trkpt>
      <trkpt lat="59.869394972920418" lon="7.113975025713444">
        <ele>1144.5899999999999</ele>
        <time>2018-10-15T13:21:39Z</time>
      </trkpt>
      <trkpt lat="59.869583984836936" lon="7.113800011575222">
        <ele>1143.6300000000001</ele>
        <time>2018-10-15T13:21:46Z</time>
      </trkpt>
      <trkpt lat="59.869657997041941" lon="7.11368802934885">
        <ele>1143.6300000000001</ele>
        <time>2018-10-15T13:21:50Z</time>
      </trkpt>
      <trkpt lat="59.869807027280331" lon="7.113528018817306">
        <ele>1144.5899999999999</ele>
        <time>2018-10-15T13:21:58Z</time>
      </trkpt>
      <trkpt lat="59.869907023385167" lon="7.11338602937758">
        <ele>1144.5899999999999</ele>
        <time>2018-10-15T13:22:04Z</time>
      </trkpt>
      <trkpt lat="59.870005007833242" lon="7.113246973603964">
        <ele>1144.5899999999999</ele>
        <time>2018-10-15T13:22:10Z</time>
      </trkpt>
      <trkpt lat="59.870175998657942" lon="7.113058967515826">
        <ele>1144.1099999999999</ele>
        <time>2018-10-15T13:22:17Z</time>
      </trkpt>
      <trkpt lat="59.870330980047584" lon="7.112775994464755">
        <ele>1143.6300000000001</ele>
        <time>2018-10-15T13:22:23Z</time>
      </trkpt>
      <trkpt lat="59.870428964495659" lon="7.112452033907175">
        <ele>1145.0699999999999</ele>
        <time>2018-10-15T13:22:30Z</time>
      </trkpt>
      <trkpt lat="59.870568020269275" lon="7.11207702755928">
        <ele>1146.03</ele>
        <time>2018-10-15T13:22:38Z</time>
      </trkpt>
      <trkpt lat="59.870664998888969" lon="7.111791037023068">
        <ele>1146.03</ele>
        <time>2018-10-15T13:22:44Z</time>
      </trkpt>
      <trkpt lat="59.870804976671934" lon="7.111428016796708">
        <ele>1145.0699999999999</ele>
        <time>2018-10-15T13:22:51Z</time>
      </trkpt>
      <trkpt lat="59.870935985818505" lon="7.111076982691884">
        <ele>1144.5899999999999</ele>
        <time>2018-10-15T13:22:59Z</time>
      </trkpt>
      <trkpt lat="59.871071018278599" lon="7.110904986038804">
        <ele>1142.6600000000001</ele>
        <time>2018-10-15T13:23:04Z</time>
      </trkpt>
      <trkpt lat="59.871171014383435" lon="7.110672974959016">
        <ele>1142.1800000000001</ele>
        <time>2018-10-15T13:23:10Z</time>
      </trkpt>
      <trkpt lat="59.871319960802794" lon="7.110396958887577">
        <ele>1143.1400000000001</ele>
        <time>2018-10-15T13:23:19Z</time>
      </trkpt>
      <trkpt lat="59.871437977999449" lon="7.110253963619471">
        <ele>1144.1099999999999</ele>
        <time>2018-10-15T13:23:24Z</time>
      </trkpt>
      <trkpt lat="59.87154602073133" lon="7.110008038580418">
        <ele>1145.55</ele>
        <time>2018-10-15T13:23:30Z</time>
      </trkpt>
      <trkpt lat="59.871690021827817" lon="7.109851967543364">
        <ele>1147.47</ele>
        <time>2018-10-15T13:23:36Z</time>
      </trkpt>
      <trkpt lat="59.871803009882569" lon="7.109640995040536">
        <ele>1147.47</ele>
        <time>2018-10-15T13:23:42Z</time>
      </trkpt>
      <trkpt lat="59.871952040120959" lon="7.109476961195469">
        <ele>1147.95</ele>
        <time>2018-10-15T13:23:49Z</time>
      </trkpt>
      <trkpt lat="59.872068967670202" lon="7.109216032549739">
        <ele>1148.4300000000001</ele>
        <time>2018-10-15T13:23:55Z</time>
      </trkpt>
      <trkpt lat="59.872174998745322" lon="7.108954014256597">
        <ele>1147.95</ele>
        <time>2018-10-15T13:24:02Z</time>
      </trkpt>
      <trkpt lat="59.872230989858508" lon="7.108695013448596">
        <ele>1146.99</ele>
        <time>2018-10-15T13:24:07Z</time>
      </trkpt>
      <trkpt lat="59.872292010113597" lon="7.108379015699029">
        <ele>1147.95</ele>
        <time>2018-10-15T13:24:14Z</time>
      </trkpt>
      <trkpt lat="59.872335009276867" lon="7.108158990740776">
        <ele>1147.47</ele>
        <time>2018-10-15T13:24:21Z</time>
      </trkpt>
      <trkpt lat="59.872269965708256" lon="7.10791097022593">
        <ele>1146.03</ele>
        <time>2018-10-15T13:24:28Z</time>
      </trkpt>
      <trkpt lat="59.87240600399673" lon="7.107742996886373">
        <ele>1146.99</ele>
        <time>2018-10-15T13:24:35Z</time>
      </trkpt>
      <trkpt lat="59.8724299762398" lon="7.107560019940138">
        <ele>1146.51</ele>
        <time>2018-10-15T13:24:41Z</time>
      </trkpt>
      <trkpt lat="59.872574983164668" lon="7.107317028567195">
        <ele>1147.47</ele>
        <time>2018-10-15T13:24:49Z</time>
      </trkpt>
      <trkpt lat="59.872646983712912" lon="7.107026008889079">
        <ele>1148.4300000000001</ele>
        <time>2018-10-15T13:24:56Z</time>
      </trkpt>
      <trkpt lat="59.872699035331607" lon="7.106728032231331">
        <ele>1150.8399999999999</ele>
        <time>2018-10-15T13:25:05Z</time>
      </trkpt>
      <trkpt lat="59.872719990089536" lon="7.106630969792604">
        <ele>1152.76</ele>
        <time>2018-10-15T13:25:19Z</time>
      </trkpt>
      <trkpt lat="59.872714038938284" lon="7.106571961194277">
        <ele>1153.72</ele>
        <time>2018-10-15T13:25:26Z</time>
      </trkpt>
      <trkpt lat="59.872755026444793" lon="7.10644899867475">
        <ele>1154.6800000000001</ele>
        <time>2018-10-15T13:25:37Z</time>
      </trkpt>
      <trkpt lat="59.872776987031102" lon="7.106346990913153">
        <ele>1156.1199999999999</ele>
        <time>2018-10-15T13:25:41Z</time>
      </trkpt>
      <trkpt lat="59.872777992859483" lon="7.10623299703002">
        <ele>1158.05</ele>
        <time>2018-10-15T13:25:45Z</time>
      </trkpt>
      <trkpt lat="59.872799031436443" lon="7.10614800453186">
        <ele>1159.49</ele>
        <time>2018-10-15T13:25:48Z</time>
      </trkpt>
      <trkpt lat="59.872844964265823" lon="7.106012972071767">
        <ele>1161.4100000000001</ele>
        <time>2018-10-15T13:25:54Z</time>
      </trkpt>
      <trkpt lat="59.872889975085855" lon="7.10589000955224">
        <ele>1163.8099999999999</ele>
        <time>2018-10-15T13:25:59Z</time>
      </trkpt>
      <trkpt lat="59.872929034754634" lon="7.105827983468771">
        <ele>1166.22</ele>
        <time>2018-10-15T13:26:03Z</time>
      </trkpt>
      <trkpt lat="59.873015033081174" lon="7.10556797683239">
        <ele>1168.1400000000001</ele>
        <time>2018-10-15T13:26:13Z</time>
      </trkpt>
      <trkpt lat="59.872976979240775" lon="7.105272011831403">
        <ele>1169.5799999999999</ele>
        <time>2018-10-15T13:26:21Z</time>
      </trkpt>
      <trkpt lat="59.872972033917904" lon="7.105024997144938">
        <ele>1171.02</ele>
        <time>2018-10-15T13:26:28Z</time>
      </trkpt>
      <trkpt lat="59.873012015596032" lon="7.104786029085517">
        <ele>1173.9100000000001</ele>
        <time>2018-10-15T13:26:38Z</time>
      </trkpt>
      <trkpt lat="59.873088961467147" lon="7.104659965261817">
        <ele>1176.3099999999999</ele>
        <time>2018-10-15T13:26:44Z</time>
      </trkpt>
      <trkpt lat="59.873101031407714" lon="7.104617971926928">
        <ele>1176.79</ele>
        <time>2018-10-15T13:26:46Z</time>
      </trkpt>
      <trkpt lat="59.873120980337262" lon="7.104531973600388">
        <ele>1178.71</ele>
        <time>2018-10-15T13:26:50Z</time>
      </trkpt>
      <trkpt lat="59.873173031955957" lon="7.104219999164343">
        <ele>1181.1199999999999</ele>
        <time>2018-10-15T13:26:59Z</time>
      </trkpt>
      <trkpt lat="59.873234974220395" lon="7.10399997420609">
        <ele>1181.1199999999999</ele>
        <time>2018-10-15T13:27:05Z</time>
      </trkpt>
      <trkpt lat="59.873292976990342" lon="7.103859996423125">
        <ele>1181.1199999999999</ele>
        <time>2018-10-15T13:27:10Z</time>
      </trkpt>
      <trkpt lat="59.873403031378984" lon="7.103634020313621">
        <ele>1183.04</ele>
        <time>2018-10-15T13:27:18Z</time>
      </trkpt>
      <trkpt lat="59.873506966978312" lon="7.103404020890594">
        <ele>1184.48</ele>
        <time>2018-10-15T13:27:26Z</time>
      </trkpt>
      <trkpt lat="59.873620960861444" lon="7.103079976513982">
        <ele>1184.96</ele>
        <time>2018-10-15T13:27:35Z</time>
      </trkpt>
      <trkpt lat="59.873683992773294" lon="7.102746041491628">
        <ele>1185.9200000000001</ele>
        <time>2018-10-15T13:27:43Z</time>
      </trkpt>
      <trkpt lat="59.873866969719529" lon="7.102529034018517">
        <ele>1186.4000000000001</ele>
        <time>2018-10-15T13:27:52Z</time>
      </trkpt>
      <trkpt lat="59.873961014673114" lon="7.102313032373786">
        <ele>1187.3699999999999</ele>
        <time>2018-10-15T13:27:59Z</time>
      </trkpt>
      <trkpt lat="59.874045001342893" lon="7.102202977985144">
        <ele>1189.77</ele>
        <time>2018-10-15T13:28:04Z</time>
      </trkpt>
      <trkpt lat="59.874051036313176" lon="7.102164002135396">
        <ele>1189.77</ele>
        <time>2018-10-15T13:28:05Z</time>
      </trkpt>
      <trkpt lat="59.874138040468097" lon="7.101863007992506">
        <ele>1192.6500000000001</ele>
        <time>2018-10-15T13:28:14Z</time>
      </trkpt>
      <trkpt lat="59.874240970239043" lon="7.101685982197523">
        <ele>1193.1300000000001</ele>
        <time>2018-10-15T13:28:20Z</time>
      </trkpt>
      <trkpt lat="59.874368961900473" lon="7.101507028564811">
        <ele>1193.1300000000001</ele>
        <time>2018-10-15T13:28:28Z</time>
      </trkpt>
      <trkpt lat="59.874464012682438" lon="7.101234029978514">
        <ele>1194.0899999999999</ele>
        <time>2018-10-15T13:28:35Z</time>
      </trkpt>
      <trkpt lat="59.874523021280766" lon="7.101001013070345">
        <ele>1195.0599999999999</ele>
        <time>2018-10-15T13:28:41Z</time>
      </trkpt>
      <trkpt lat="59.874573983252048" lon="7.100675962865353">
        <ele>1195.54</ele>
        <time>2018-10-15T13:28:50Z</time>
      </trkpt>
      <trkpt lat="59.874659981578588" lon="7.10049600340426">
        <ele>1195.0599999999999</ele>
        <time>2018-10-15T13:29:00Z</time>
      </trkpt>
      <trkpt lat="59.874718990176916" lon="7.10034697316587">
        <ele>1194.0899999999999</ele>
        <time>2018-10-15T13:29:14Z</time>
      </trkpt>
      <trkpt lat="59.874723013490438" lon="7.100340016186237">
        <ele>1194.0899999999999</ele>
        <time>2018-10-15T13:30:15Z</time>
      </trkpt>
      <trkpt lat="59.874839019030333" lon="7.100138012319803">
        <ele>1196.02</ele>
        <time>2018-10-15T13:30:23Z</time>
      </trkpt>
      <trkpt lat="59.874925017356873" lon="7.099958974868059">
        <ele>1196.5</ele>
        <time>2018-10-15T13:30:29Z</time>
      </trkpt>
      <trkpt lat="59.874968016520143" lon="7.099859984591603">
        <ele>1196.98</ele>
        <time>2018-10-15T13:30:33Z</time>
      </trkpt>
      <trkpt lat="59.875020990148187" lon="7.099774992093444">
        <ele>1196.5</ele>
        <time>2018-10-15T13:30:42Z</time>
      </trkpt>
      <trkpt lat="59.875023001804948" lon="7.099779015406966">
        <ele>1196.5</ele>
        <time>2018-10-15T13:30:46Z</time>
      </trkpt>
      <trkpt lat="59.875143030658364" lon="7.099601989611983">
        <ele>1197.9400000000001</ele>
        <time>2018-10-15T13:30:54Z</time>
      </trkpt>
      <trkpt lat="59.875255012884736" lon="7.099434016272426">
        <ele>1198.4200000000001</ele>
        <time>2018-10-15T13:31:01Z</time>
      </trkpt>
      <trkpt lat="59.875340005382895" lon="7.099203011021018">
        <ele>1197.9400000000001</ele>
        <time>2018-10-15T13:31:08Z</time>
      </trkpt>
      <trkpt lat="59.875418040901423" lon="7.099076025187969">
        <ele>1197.9400000000001</ele>
        <time>2018-10-15T13:31:13Z</time>
      </trkpt>
      <trkpt lat="59.875503033399582" lon="7.098968988284469">
        <ele>1198.4200000000001</ele>
        <time>2018-10-15T13:31:18Z</time>
      </trkpt>
      <trkpt lat="59.875541003420949" lon="7.098880978301168">
        <ele>1198.4200000000001</ele>
        <time>2018-10-15T13:31:21Z</time>
      </trkpt>
      <trkpt lat="59.875643011182547" lon="7.098830016329885">
        <ele>1197.9400000000001</ele>
        <time>2018-10-15T13:31:28Z</time>
      </trkpt>
      <trkpt lat="59.87565097399056" lon="7.098807971924543">
        <ele>1198.4200000000001</ele>
        <time>2018-10-15T13:31:31Z</time>
      </trkpt>
      <trkpt lat="59.875707970932126" lon="7.098831022158265">
        <ele>1198.4200000000001</ele>
        <time>2018-10-15T13:31:35Z</time>
      </trkpt>
      <trkpt lat="59.87575801089406" lon="7.098839990794659">
        <ele>1198.9000000000001</ele>
        <time>2018-10-15T13:31:46Z</time>
      </trkpt>
      <trkpt lat="59.875768991187215" lon="7.09884200245142">
        <ele>1198.4200000000001</ele>
        <time>2018-10-15T13:31:53Z</time>
      </trkpt>
      <trkpt lat="59.875745018944144" lon="7.098605968058109">
        <ele>1198.9000000000001</ele>
        <time>2018-10-15T13:32:00Z</time>
      </trkpt>
      <trkpt lat="59.875619960948825" lon="7.098392983898521">
        <ele>1199.8599999999999</ele>
        <time>2018-10-15T13:32:09Z</time>
      </trkpt>
      <trkpt lat="59.875547960400581" lon="7.098163990303874">
        <ele>1200.8199999999999</ele>
        <time>2018-10-15T13:32:16Z</time>
      </trkpt>
      <trkpt lat="59.875491969287395" lon="7.097958968952298">
        <ele>1202.27</ele>
        <time>2018-10-15T13:32:22Z</time>
      </trkpt>
      <trkpt lat="59.875446036458015" lon="7.097707008942962">
        <ele>1203.71</ele>
        <time>2018-10-15T13:32:30Z</time>
      </trkpt>
      <trkpt lat="59.875463973730803" lon="7.097557978704572">
        <ele>1205.6300000000001</ele>
        <time>2018-10-15T13:32:34Z</time>
      </trkpt>
      <trkpt lat="59.875477971509099" lon="7.097394028678536">
        <ele>1207.55</ele>
        <time>2018-10-15T13:32:40Z</time>
      </trkpt>
      <trkpt lat="59.875401025637984" lon="7.097264025360346">
        <ele>1208.03</ele>
        <time>2018-10-15T13:32:46Z</time>
      </trkpt>
      <trkpt lat="59.875329025089741" lon="7.097250027582049">
        <ele>1208.51</ele>
        <time>2018-10-15T13:32:50Z</time>
      </trkpt>
      <trkpt lat="59.87524101510644" lon="7.097065960988402">
        <ele>1210.9200000000001</ele>
        <time>2018-10-15T13:32:58Z</time>
      </trkpt>
      <trkpt lat="59.875218970701098" lon="7.096974011510611">
        <ele>1212.3599999999999</ele>
        <time>2018-10-15T13:33:01Z</time>
      </trkpt>
      <trkpt lat="59.875163985416293" lon="7.096703024581075">
        <ele>1215.72</ele>
        <time>2018-10-15T13:33:09Z</time>
      </trkpt>
      <trkpt lat="59.875149987637997" lon="7.096657007932663">
        <ele>1216.21</ele>
        <time>2018-10-15T13:33:11Z</time>
      </trkpt>
      <trkpt lat="59.875133978202939" lon="7.096487022936344">
        <ele>1218.1300000000001</ele>
        <time>2018-10-15T13:33:17Z</time>
      </trkpt>
      <trkpt lat="59.875118974596262" lon="7.096340004354715">
        <ele>1219.5699999999999</ele>
        <time>2018-10-15T13:33:23Z</time>
      </trkpt>
      <trkpt lat="59.87506901845336" lon="7.096157027408481">
        <ele>1221.49</ele>
        <time>2018-10-15T13:33:30Z</time>
      </trkpt>
      <trkpt lat="59.875063989311457" lon="7.096064994111657">
        <ele>1222.45</ele>
        <time>2018-10-15T13:33:35Z</time>
      </trkpt>
      <trkpt lat="59.875131966546178" lon="7.095795013010502">
        <ele>1223.4200000000001</ele>
        <time>2018-10-15T13:33:43Z</time>
      </trkpt>
      <trkpt lat="59.875170020386577" lon="7.095581023022533">
        <ele>1223.9000000000001</ele>
        <time>2018-10-15T13:33:49Z</time>
      </trkpt>
      <trkpt lat="59.875257024541497" lon="7.095358986407518">
        <ele>1226.3</ele>
        <time>2018-10-15T13:33:56Z</time>
      </trkpt>
      <trkpt lat="59.875336987897754" lon="7.09510400891304">
        <ele>1226.78</ele>
        <time>2018-10-15T13:34:03Z</time>
      </trkpt>
      <trkpt lat="59.875398008152843" lon="7.094855988398194">
        <ele>1225.8199999999999</ele>
        <time>2018-10-15T13:34:09Z</time>
      </trkpt>
      <trkpt lat="59.875471014529467" lon="7.094690026715398">
        <ele>1224.3800000000001</ele>
        <time>2018-10-15T13:34:15Z</time>
      </trkpt>
      <trkpt lat="59.875619038939476" lon="7.094296999275684">
        <ele>1226.3</ele>
        <time>2018-10-15T13:34:26Z</time>
      </trkpt>
      <trkpt lat="59.875710988417268" lon="7.093998016789556">
        <ele>1226.3</ele>
        <time>2018-10-15T13:34:34Z</time>
      </trkpt>
      <trkpt lat="59.875802015885711" lon="7.093800958245993">
        <ele>1229.6600000000001</ele>
        <time>2018-10-15T13:34:40Z</time>
      </trkpt>
      <trkpt lat="59.875854989513755" lon="7.093638014048338">
        <ele>1230.1400000000001</ele>
        <time>2018-10-15T13:34:45Z</time>
      </trkpt>
      <trkpt lat="59.875923972576857" lon="7.093379013240337">
        <ele>1230.6199999999999</ele>
        <time>2018-10-15T13:34:53Z</time>
      </trkpt>
      <trkpt lat="59.875966971740127" lon="7.093096040189266">
        <ele>1232.55</ele>
        <time>2018-10-15T13:35:00Z</time>
      </trkpt>
      <trkpt lat="59.875993961468339" lon="7.092871991917491">
        <ele>1233.51</ele>
        <time>2018-10-15T13:35:06Z</time>
      </trkpt>
      <trkpt lat="59.876032015308738" lon="7.092595975846052">
        <ele>1234.95</ele>
        <time>2018-10-15T13:35:13Z</time>
      </trkpt>
      <trkpt lat="59.87608197145164" lon="7.09239698946476">
        <ele>1235.4300000000001</ele>
        <time>2018-10-15T13:35:19Z</time>
      </trkpt>
      <trkpt lat="59.876132011413574" lon="7.092132037505508">
        <ele>1234.95</ele>
        <time>2018-10-15T13:35:26Z</time>
      </trkpt>
      <trkpt lat="59.87614399753511" lon="7.091965992003679">
        <ele>1236.3900000000001</ele>
        <time>2018-10-15T13:35:31Z</time>
      </trkpt>
      <trkpt lat="59.876209041103721" lon="7.091768011450768">
        <ele>1239.28</ele>
        <time>2018-10-15T13:35:38Z</time>
      </trkpt>
      <trkpt lat="59.876228990033269" lon="7.091533988714218">
        <ele>1240.72</ele>
        <time>2018-10-15T13:35:44Z</time>
      </trkpt>
      <trkpt lat="59.876243993639946" lon="7.091229977086186">
        <ele>1242.1600000000001</ele>
        <time>2018-10-15T13:35:52Z</time>
      </trkpt>
      <trkpt lat="59.876283975318074" lon="7.090930994600058">
        <ele>1243.1199999999999</ele>
        <time>2018-10-15T13:36:00Z</time>
      </trkpt>
      <trkpt lat="59.876341978088021" lon="7.090731002390385">
        <ele>1243.5999999999999</ele>
        <time>2018-10-15T13:36:06Z</time>
      </trkpt>
      <trkpt lat="59.876369973644614" lon="7.090452974662185">
        <ele>1244.5599999999999</ele>
        <time>2018-10-15T13:36:14Z</time>
      </trkpt>
      <trkpt lat="59.876424036920071" lon="7.090188022702932">
        <ele>1244.0799999999999</ele>
        <time>2018-10-15T13:36:22Z</time>
      </trkpt>
      <trkpt lat="59.876484973356128" lon="7.089986018836498">
        <ele>1245.53</ele>
        <time>2018-10-15T13:36:30Z</time>
      </trkpt>
      <trkpt lat="59.876483967527747" lon="7.089784014970064">
        <ele>1247.9300000000001</ele>
        <time>2018-10-15T13:36:37Z</time>
      </trkpt>
      <trkpt lat="59.876534007489681" lon="7.089527025818825">
        <ele>1250.8099999999999</ele>
        <time>2018-10-15T13:36:45Z</time>
      </trkpt>
      <trkpt lat="59.876583963632584" lon="7.089309012517333">
        <ele>1252.25</ele>
        <time>2018-10-15T13:36:53Z</time>
      </trkpt>
      <trkpt lat="59.876618999987841" lon="7.089251009747386">
        <ele>1251.77</ele>
        <time>2018-10-15T13:37:06Z</time>
      </trkpt>
      <trkpt lat="59.876621011644602" lon="7.089245980605483">
        <ele>1252.25</ele>
        <time>2018-10-15T13:37:59Z</time>
      </trkpt>
      <trkpt lat="59.876600978896022" lon="7.089222008362413">
        <ele>1252.74</ele>
        <time>2018-10-15T13:38:24Z</time>
      </trkpt>
      <trkpt lat="59.876614976674318" lon="7.089057974517345">
        <ele>1253.22</ele>
        <time>2018-10-15T13:39:31Z</time>
      </trkpt>
      <trkpt lat="59.876643978059292" lon="7.088924031704664">
        <ele>1254.6600000000001</ele>
        <time>2018-10-15T13:39:37Z</time>
      </trkpt>
      <trkpt lat="59.876721007749438" lon="7.088588001206517">
        <ele>1257.54</ele>
        <time>2018-10-15T13:39:45Z</time>
      </trkpt>
      <trkpt lat="59.876730982214212" lon="7.088508037850261">
        <ele>1258.02</ele>
        <time>2018-10-15T13:39:47Z</time>
      </trkpt>
      <trkpt lat="59.876769036054611" lon="7.088310979306698">
        <ele>1258.98</ele>
        <time>2018-10-15T13:39:52Z</time>
      </trkpt>
      <trkpt lat="59.876841958612204" lon="7.088130014017224">
        <ele>1259.9400000000001</ele>
        <time>2018-10-15T13:39:58Z</time>
      </trkpt>
      <trkpt lat="59.876843970268965" lon="7.08807896822691">
        <ele>1259.9400000000001</ele>
        <time>2018-10-15T13:39:59Z</time>
      </trkpt>
      <trkpt lat="59.876871965825558" lon="7.087890040129423">
        <ele>1263.3099999999999</ele>
        <time>2018-10-15T13:40:07Z</time>
      </trkpt>
      <trkpt lat="59.876874983310699" lon="7.087872019037604">
        <ele>1264.27</ele>
        <time>2018-10-15T13:40:08Z</time>
      </trkpt>
      <trkpt lat="59.876951007172465" lon="7.087733969092369">
        <ele>1267.1600000000001</ele>
        <time>2018-10-15T13:40:13Z</time>
      </trkpt>
      <trkpt lat="59.877026025205851" lon="7.087671020999551">
        <ele>1268.5999999999999</ele>
        <time>2018-10-15T13:40:16Z</time>
      </trkpt>
      <trkpt lat="59.877075981348753" lon="7.087579993531108">
        <ele>1270.04</ele>
        <time>2018-10-15T13:40:19Z</time>
      </trkpt>
      <trkpt lat="59.877267004922032" lon="7.087255027145147">
        <ele>1270.52</ele>
        <time>2018-10-15T13:40:29Z</time>
      </trkpt>
      <trkpt lat="59.877341017127037" lon="7.087147990241647">
        <ele>1270.04</ele>
        <time>2018-10-15T13:40:34Z</time>
      </trkpt>
      <trkpt lat="59.877432966604829" lon="7.086970964446664">
        <ele>1270.52</ele>
        <time>2018-10-15T13:40:40Z</time>
      </trkpt>
      <trkpt lat="59.877532962709665" lon="7.086866023018956">
        <ele>1271</ele>
        <time>2018-10-15T13:40:45Z</time>
      </trkpt>
      <trkpt lat="59.877605969086289" lon="7.086768038570881">
        <ele>1271</ele>
        <time>2018-10-15T13:40:49Z</time>
      </trkpt>
      <trkpt lat="59.877767991274595" lon="7.086639041081071">
        <ele>1270.52</ele>
        <time>2018-10-15T13:40:57Z</time>
      </trkpt>
      <trkpt lat="59.877917021512985" lon="7.08651096560061">
        <ele>1271</ele>
        <time>2018-10-15T13:41:04Z</time>
      </trkpt>
      <trkpt lat="59.878027997910976" lon="7.086380962282419">
        <ele>1271</ele>
        <time>2018-10-15T13:41:10Z</time>
      </trkpt>
      <trkpt lat="59.878116007894278" lon="7.086375011131167">
        <ele>1271</ele>
        <time>2018-10-15T13:41:14Z</time>
      </trkpt>
      <trkpt lat="59.878248022869229" lon="7.086263028904796">
        <ele>1271.96</ele>
        <time>2018-10-15T13:41:21Z</time>
      </trkpt>
      <trkpt lat="59.878291022032499" lon="7.086154986172915">
        <ele>1271.96</ele>
        <time>2018-10-15T13:41:26Z</time>
      </trkpt>
      <trkpt lat="59.878386994823813" lon="7.085928004235029">
        <ele>1271.96</ele>
        <time>2018-10-15T13:41:33Z</time>
      </trkpt>
      <trkpt lat="59.878453966230154" lon="7.085828008130193">
        <ele>1271</ele>
        <time>2018-10-15T13:41:42Z</time>
      </trkpt>
      <trkpt lat="59.878458995372057" lon="7.085819039493799">
        <ele>1270.04</ele>
        <time>2018-10-15T13:41:57Z</time>
      </trkpt>
      <trkpt lat="59.878478022292256" lon="7.085816022008658">
        <ele>1270.04</ele>
        <time>2018-10-15T13:41:59Z</time>
      </trkpt>
      <trkpt lat="59.878510041162372" lon="7.085806969553232">
        <ele>1270.04</ele>
        <time>2018-10-15T13:42:01Z</time>
      </trkpt>
      <trkpt lat="59.878621017560363" lon="7.085554003715515">
        <ele>1271</ele>
        <time>2018-10-15T13:42:09Z</time>
      </trkpt>
      <trkpt lat="59.878703998401761" lon="7.085385024547577">
        <ele>1271.48</ele>
        <time>2018-10-15T13:42:14Z</time>
      </trkpt>
      <trkpt lat="59.878751020878553" lon="7.085172962397337">
        <ele>1271</ele>
        <time>2018-10-15T13:42:21Z</time>
      </trkpt>
      <trkpt lat="59.878752026706934" lon="7.085154019296169">
        <ele>1271</ele>
        <time>2018-10-15T13:42:22Z</time>
      </trkpt>
      <trkpt lat="59.878795025870204" lon="7.085140021517873">
        <ele>1271.96</ele>
        <time>2018-10-15T13:42:30Z</time>
      </trkpt>
      <trkpt lat="59.878869960084558" lon="7.084972970187664">
        <ele>1271</ele>
        <time>2018-10-15T13:42:37Z</time>
      </trkpt>
      <trkpt lat="59.878943972289562" lon="7.084836009889841">
        <ele>1271</ele>
        <time>2018-10-15T13:42:44Z</time>
      </trkpt>
      <trkpt lat="59.878974985331297" lon="7.084523029625416">
        <ele>1271.48</ele>
        <time>2018-10-15T13:42:52Z</time>
      </trkpt>
      <trkpt lat="59.879028964787722" lon="7.084310967475176">
        <ele>1271</ele>
        <time>2018-10-15T13:42:59Z</time>
      </trkpt>
      <trkpt lat="59.879100965335965" lon="7.084143999963999">
        <ele>1270.52</ele>
        <time>2018-10-15T13:43:06Z</time>
      </trkpt>
      <trkpt lat="59.879124015569687" lon="7.083929004147649">
        <ele>1269.5599999999999</ele>
        <time>2018-10-15T13:43:12Z</time>
      </trkpt>
      <trkpt lat="59.879208002239466" lon="7.083793971687555">
        <ele>1269.0799999999999</ele>
        <time>2018-10-15T13:43:19Z</time>
      </trkpt>
      <trkpt lat="59.87926097586751" lon="7.083796989172697">
        <ele>1269.5599999999999</ele>
        <time>2018-10-15T13:43:21Z</time>
      </trkpt>
      <trkpt lat="59.879362983629107" lon="7.083533965051174">
        <ele>1269.0799999999999</ele>
        <time>2018-10-15T13:43:28Z</time>
      </trkpt>
      <trkpt lat="59.879482006654143" lon="7.083260966464877">
        <ele>1269.5599999999999</ele>
        <time>2018-10-15T13:43:36Z</time>
      </trkpt>
      <trkpt lat="59.87962600775063" lon="7.082949997857213">
        <ele>1269.5599999999999</ele>
        <time>2018-10-15T13:43:46Z</time>
      </trkpt>
      <trkpt lat="59.87975500524044" lon="7.082641962915659">
        <ele>1269.5599999999999</ele>
        <time>2018-10-15T13:43:55Z</time>
      </trkpt>
      <trkpt lat="59.879784006625414" lon="7.082581026479602">
        <ele>1269.5599999999999</ele>
        <time>2018-10-15T13:43:57Z</time>
      </trkpt>
      <trkpt lat="59.879953991621733" lon="7.082377010956407">
        <ele>1270.04</ele>
        <time>2018-10-15T13:44:06Z</time>
      </trkpt>
      <trkpt lat="59.880034038797021" lon="7.082200990989804">
        <ele>1270.52</ele>
        <time>2018-10-15T13:44:11Z</time>
      </trkpt>
      <trkpt lat="59.880157001316547" lon="7.081969985738397">
        <ele>1270.52</ele>
        <time>2018-10-15T13:44:18Z</time>
      </trkpt>
      <trkpt lat="59.880244005471468" lon="7.081776028499007">
        <ele>1271.48</ele>
        <time>2018-10-15T13:44:25Z</time>
      </trkpt>
      <trkpt lat="59.88031399436295" lon="7.081652982160449">
        <ele>1271.48</ele>
        <time>2018-10-15T13:44:29Z</time>
      </trkpt>
      <trkpt lat="59.880410972982645" lon="7.081511998549104">
        <ele>1271</ele>
        <time>2018-10-15T13:44:35Z</time>
      </trkpt>
      <trkpt lat="59.880434023216367" lon="7.081437986344099">
        <ele>1271</ele>
        <time>2018-10-15T13:44:37Z</time>
      </trkpt>
      <trkpt lat="59.880603002384305" lon="7.081305971369147">
        <ele>1270.52</ele>
        <time>2018-10-15T13:44:44Z</time>
      </trkpt>
      <trkpt lat="59.880710039287806" lon="7.081067003309727">
        <ele>1270.04</ele>
        <time>2018-10-15T13:44:50Z</time>
      </trkpt>
      <trkpt lat="59.880831995978951" lon="7.080829963088036">
        <ele>1271</ele>
        <time>2018-10-15T13:44:57Z</time>
      </trkpt>
      <trkpt lat="59.880940960720181" lon="7.08062200807035">
        <ele>1270.04</ele>
        <time>2018-10-15T13:45:04Z</time>
      </trkpt>
      <trkpt lat="59.880975997075438" lon="7.080413969233632">
        <ele>1269.5599999999999</ele>
        <time>2018-10-15T13:45:08Z</time>
      </trkpt>
      <trkpt lat="59.88108797930181" lon="7.080122027546167">
        <ele>1269.0799999999999</ele>
        <time>2018-10-15T13:45:15Z</time>
      </trkpt>
      <trkpt lat="59.881155034527183" lon="7.079807035624981">
        <ele>1269.5599999999999</ele>
        <time>2018-10-15T13:45:22Z</time>
      </trkpt>
      <trkpt lat="59.88123600371182" lon="7.079731011763215">
        <ele>1270.52</ele>
        <time>2018-10-15T13:45:27Z</time>
      </trkpt>
      <trkpt lat="59.881404982879758" lon="7.079638978466392">
        <ele>1269.5599999999999</ele>
        <time>2018-10-15T13:45:34Z</time>
      </trkpt>
      <trkpt lat="59.881518976762891" lon="7.079501012340188">
        <ele>1269.0799999999999</ele>
        <time>2018-10-15T13:45:40Z</time>
      </trkpt>
      <trkpt lat="59.88164403475821" lon="7.079315017908812">
        <ele>1270.04</ele>
        <time>2018-10-15T13:45:46Z</time>
      </trkpt>
      <trkpt lat="59.881776971742511" lon="7.079188032075763">
        <ele>1269.5599999999999</ele>
        <time>2018-10-15T13:45:52Z</time>
      </trkpt>
      <trkpt lat="59.881898006424308" lon="7.079099016264081">
        <ele>1270.04</ele>
        <time>2018-10-15T13:45:58Z</time>
      </trkpt>
      <trkpt lat="59.88200998865068" lon="7.078971024602652">
        <ele>1271.48</ele>
        <time>2018-10-15T13:46:05Z</time>
      </trkpt>
      <trkpt lat="59.882072014734149" lon="7.078804979100823">
        <ele>1271.96</ele>
        <time>2018-10-15T13:46:11Z</time>
      </trkpt>
      <trkpt lat="59.882180979475379" lon="7.078686039894819">
        <ele>1275.3299999999999</ele>
        <time>2018-10-15T13:46:19Z</time>
      </trkpt>
      <trkpt lat="59.882228001952171" lon="7.078611021861434">
        <ele>1277.25</ele>
        <time>2018-10-15T13:46:24Z</time>
      </trkpt>
      <trkpt lat="59.882351970300078" lon="7.078529968857765">
        <ele>1279.6500000000001</ele>
        <time>2018-10-15T13:46:33Z</time>
      </trkpt>
      <trkpt lat="59.882450038567185" lon="7.078329976648092">
        <ele>1281.0899999999999</ele>
        <time>2018-10-15T13:46:40Z</time>
      </trkpt>
      <trkpt lat="59.882523966953158" lon="7.078167032450438">
        <ele>1283.98</ele>
        <time>2018-10-15T13:46:48Z</time>
      </trkpt>
      <trkpt lat="59.882536958903074" lon="7.078139036893845">
        <ele>1284.46</ele>
        <time>2018-10-15T13:46:50Z</time>
      </trkpt>
      <trkpt lat="59.882593033835292" lon="7.078091008588672">
        <ele>1285.9000000000001</ele>
        <time>2018-10-15T13:46:53Z</time>
      </trkpt>
      <trkpt lat="59.882662016898394" lon="7.078023031353951">
        <ele>1288.3</ele>
        <time>2018-10-15T13:46:59Z</time>
      </trkpt>
      <trkpt lat="59.882721025496721" lon="7.077921023592353">
        <ele>1289.75</ele>
        <time>2018-10-15T13:47:05Z</time>
      </trkpt>
      <trkpt lat="59.882797971367836" lon="7.077754978090525">
        <ele>1293.1099999999999</ele>
        <time>2018-10-15T13:47:17Z</time>
      </trkpt>
      <trkpt lat="59.882813980802894" lon="7.07772396504879">
        <ele>1296.48</ele>
        <time>2018-10-15T13:47:25Z</time>
      </trkpt>
      <trkpt lat="59.882882041856647" lon="7.07767803221941">
        <ele>1298.4000000000001</ele>
        <time>2018-10-15T13:47:32Z</time>
      </trkpt>
      <trkpt lat="59.882902996614575" lon="7.077623968943954">
        <ele>1299.8399999999999</ele>
        <time>2018-10-15T13:47:37Z</time>
      </trkpt>
      <trkpt lat="59.882920011878014" lon="7.077527996152639">
        <ele>1302.72</ele>
        <time>2018-10-15T13:47:43Z</time>
      </trkpt>
      <trkpt lat="59.882922023534775" lon="7.077450966462493">
        <ele>1304.6500000000001</ele>
        <time>2018-10-15T13:47:47Z</time>
      </trkpt>
      <trkpt lat="59.882962005212903" lon="7.077410984784365">
        <ele>1307.05</ele>
        <time>2018-10-15T13:47:55Z</time>
      </trkpt>
      <trkpt lat="59.882979020476341" lon="7.077388018369675">
        <ele>1308.01</ele>
        <time>2018-10-15T13:47:59Z</time>
      </trkpt>
      <trkpt lat="59.883003998547792" lon="7.077343007549644">
        <ele>1308.97</ele>
        <time>2018-10-15T13:48:03Z</time>
      </trkpt>
      <trkpt lat="59.883058983832598" lon="7.077282993122935">
        <ele>1312.3399999999999</ele>
        <time>2018-10-15T13:48:12Z</time>
      </trkpt>
      <trkpt lat="59.883072981610894" lon="7.077266983687878">
        <ele>1312.8199999999999</ele>
        <time>2018-10-15T13:48:14Z</time>
      </trkpt>
      <trkpt lat="59.883130984380841" lon="7.077194983139634">
        <ele>1316.6600000000001</ele>
        <time>2018-10-15T13:48:24Z</time>
      </trkpt>
      <trkpt lat="59.883140036836267" lon="7.077168999239802">
        <ele>1317.6199999999999</ele>
        <time>2018-10-15T13:48:27Z</time>
      </trkpt>
      <trkpt lat="59.883187981322408" lon="7.077029021456838">
        <ele>1321.47</ele>
        <time>2018-10-15T13:48:39Z</time>
      </trkpt>
      <trkpt lat="59.883202984929085" lon="7.077008988708258">
        <ele>1321.47</ele>
        <time>2018-10-15T13:48:41Z</time>
      </trkpt>
      <trkpt lat="59.883273979648948" lon="7.076946962624788">
        <ele>1324.8299999999999</ele>
        <time>2018-10-15T13:48:50Z</time>
      </trkpt>
      <trkpt lat="59.883292000740767" lon="7.076898012310267">
        <ele>1326.28</ele>
        <time>2018-10-15T13:48:55Z</time>
      </trkpt>
      <trkpt lat="59.88334103487432" lon="7.076868005096912">
        <ele>1329.6400000000001</ele>
        <time>2018-10-15T13:49:04Z</time>
      </trkpt>
      <trkpt lat="59.883374981582165" lon="7.076803967356682">
        <ele>1331.0799999999999</ele>
        <time>2018-10-15T13:49:10Z</time>
      </trkpt>
      <trkpt lat="59.883447987958789" lon="7.076753005385399">
        <ele>1333.97</ele>
        <time>2018-10-15T13:49:21Z</time>
      </trkpt>
      <trkpt lat="59.883514959365129" lon="7.076730038970709">
        <ele>1336.3699999999999</ele>
        <time>2018-10-15T13:49:29Z</time>
      </trkpt>
      <trkpt lat="59.883530968800187" lon="7.076730960980058">
        <ele>1336.8499999999999</ele>
        <time>2018-10-15T13:49:30Z</time>
      </trkpt>
      <trkpt lat="59.883559970185161" lon="7.076822994276881">
        <ele>1337.3299999999999</ele>
        <time>2018-10-15T13:49:35Z</time>
      </trkpt>
      <trkpt lat="59.883563993498683" lon="7.076845038682222">
        <ele>1337.3299999999999</ele>
        <time>2018-10-15T13:49:37Z</time>
      </trkpt>
      <trkpt lat="59.883614033460617" lon="7.076804973185062">
        <ele>1339.73</ele>
        <time>2018-10-15T13:49:46Z</time>
      </trkpt>
      <trkpt lat="59.883619984611869" lon="7.076806984841824">
        <ele>1339.73</ele>
        <time>2018-10-15T13:49:47Z</time>
      </trkpt>
      <trkpt lat="59.883644040673971" lon="7.076831962913275">
        <ele>1341.6600000000001</ele>
        <time>2018-10-15T13:49:50Z</time>
      </trkpt>
      <trkpt lat="59.883692990988493" lon="7.076898012310267">
        <ele>1344.54</ele>
        <time>2018-10-15T13:49:59Z</time>
      </trkpt>
      <trkpt lat="59.883703971281648" lon="7.076886026188731">
        <ele>1345.02</ele>
        <time>2018-10-15T13:50:01Z</time>
      </trkpt>
      <trkpt lat="59.883785024285316" lon="7.076935982331634">
        <ele>1347.4300000000001</ele>
        <time>2018-10-15T13:50:11Z</time>
      </trkpt>
      <trkpt lat="59.883797010406852" lon="7.076930031180382">
        <ele>1347.9100000000001</ele>
        <time>2018-10-15T13:50:14Z</time>
      </trkpt>
      <trkpt lat="59.883837997913361" lon="7.076860964298248">
        <ele>1349.8299999999999</ele>
        <time>2018-10-15T13:50:21Z</time>
      </trkpt>
      <trkpt lat="59.883849984034896" lon="7.07682098262012">
        <ele>1351.27</ele>
        <time>2018-10-15T13:50:25Z</time>
      </trkpt>
      <trkpt lat="59.883856019005179" lon="7.076812013983727">
        <ele>1351.75</ele>
        <time>2018-10-15T13:50:26Z</time>
      </trkpt>
      <trkpt lat="59.883877979591489" lon="7.076792987063527">
        <ele>1353.1900000000001</ele>
        <time>2018-10-15T13:50:29Z</time>
      </trkpt>
      <trkpt lat="59.883915027603507" lon="7.076703971251845">
        <ele>1356.5599999999999</ele>
        <time>2018-10-15T13:50:39Z</time>
      </trkpt>
      <trkpt lat="59.883954003453255" lon="7.076700031757355">
        <ele>1358.48</ele>
        <time>2018-10-15T13:50:49Z</time>
      </trkpt>
      <trkpt lat="59.883979987353086" lon="7.076644962653518">
        <ele>1359.9200000000001</ele>
        <time>2018-10-15T13:51:00Z</time>
      </trkpt>
      <trkpt lat="59.883969007059932" lon="7.076594000682235">
        <ele>1361.3599999999999</ele>
        <time>2018-10-15T13:51:10Z</time>
      </trkpt>
      <trkpt lat="59.883985016494989" lon="7.076492998749018">
        <ele>1361.8399999999999</ele>
        <time>2018-10-15T13:51:18Z</time>
      </trkpt>
      <trkpt lat="59.884021980687976" lon="7.07632401958108">
        <ele>1362.8099999999999</ele>
        <time>2018-10-15T13:51:23Z</time>
      </trkpt>
      <trkpt lat="59.884083000943065" lon="7.076246989890933">
        <ele>1365.6900000000001</ele>
        <time>2018-10-15T13:51:32Z</time>
      </trkpt>
      <trkpt lat="59.884093981236219" lon="7.07621899433434">
        <ele>1367.6099999999999</ele>
        <time>2018-10-15T13:51:35Z</time>
      </trkpt>
      <trkpt lat="59.884105967357755" lon="7.076231986284256">
        <ele>1369.05</ele>
        <time>2018-10-15T13:51:37Z</time>
      </trkpt>
      <trkpt lat="59.884132035076618" lon="7.076224023476243">
        <ele>1370.02</ele>
        <time>2018-10-15T13:51:40Z</time>
      </trkpt>
      <trkpt lat="59.884156007319689" lon="7.076169960200787">
        <ele>1372.4200000000001</ele>
        <time>2018-10-15T13:51:47Z</time>
      </trkpt>
      <trkpt lat="59.884172016754746" lon="7.076180018484592">
        <ele>1373.3800000000001</ele>
        <time>2018-10-15T13:51:51Z</time>
      </trkpt>
      <trkpt lat="59.884237982332706" lon="7.076244978234172">
        <ele>1374.3399999999999</ele>
        <time>2018-10-15T13:51:59Z</time>
      </trkpt>
      <trkpt lat="59.884245023131371" lon="7.076275991275907">
        <ele>1376.75</ele>
        <time>2018-10-15T13:52:19Z</time>
      </trkpt>
      <trkpt lat="59.884248040616512" lon="7.076255958527327">
        <ele>1374.8199999999999</ele>
        <time>2018-10-15T13:54:11Z</time>
      </trkpt>
      <trkpt lat="59.884234964847565" lon="7.076256964355707">
        <ele>1375.3</ele>
        <time>2018-10-15T13:54:23Z</time>
      </trkpt>
      <trkpt lat="59.884172016754746" lon="7.075992012396455">
        <ele>1372.4200000000001</ele>
        <time>2018-10-15T13:54:31Z</time>
      </trkpt>
      <trkpt lat="59.884153995662928" lon="7.075835019350052">
        <ele>1371.9400000000001</ele>
        <time>2018-10-15T13:54:39Z</time>
      </trkpt>
      <trkpt lat="59.884211998432875" lon="7.075588004663587">
        <ele>1370.5</ele>
        <time>2018-10-15T13:54:45Z</time>
      </trkpt>
      <trkpt lat="59.884216021746397" lon="7.075391029939055">
        <ele>1369.05</ele>
        <time>2018-10-15T13:54:51Z</time>
      </trkpt>
      <trkpt lat="59.884194983169436" lon="7.075146026909351">
        <ele>1370.02</ele>
        <time>2018-10-15T13:55:01Z</time>
      </trkpt>
      <trkpt lat="59.884222978726029" lon="7.075039995834231">
        <ele>1371.46</ele>
        <time>2018-10-15T13:55:07Z</time>
      </trkpt>
      <trkpt lat="59.88411501981318" lon="7.074766997247934">
        <ele>1370.5</ele>
        <time>2018-10-15T13:55:21Z</time>
      </trkpt>
      <trkpt lat="59.884073026478291" lon="7.074785018339753">
        <ele>1370.5</ele>
        <time>2018-10-15T13:55:24Z</time>
      </trkpt>
      <trkpt lat="59.883959032595158" lon="7.074859030544758">
        <ele>1372.4200000000001</ele>
        <time>2018-10-15T13:55:32Z</time>
      </trkpt>
      <trkpt lat="59.883855013176799" lon="7.074978975579143">
        <ele>1373.3800000000001</ele>
        <time>2018-10-15T13:55:39Z</time>
      </trkpt>
      <trkpt lat="59.883758034557104" lon="7.075086012482643">
        <ele>1376.75</ele>
        <time>2018-10-15T13:55:45Z</time>
      </trkpt>
      <trkpt lat="59.883743030950427" lon="7.075096992775798">
        <ele>1376.75</ele>
        <time>2018-10-15T13:55:46Z</time>
      </trkpt>
      <trkpt lat="59.883713023737073" lon="7.075102021917701">
        <ele>1378.6700000000001</ele>
        <time>2018-10-15T13:55:49Z</time>
      </trkpt>
      <trkpt lat="59.883678993210196" lon="7.075096992775798">
        <ele>1380.1099999999999</ele>
        <time>2018-10-15T13:55:52Z</time>
      </trkpt>
      <trkpt lat="59.883529040962458" lon="7.075163964182138">
        <ele>1381.55</ele>
        <time>2018-10-15T13:56:04Z</time>
      </trkpt>
      <trkpt lat="59.883497022092342" lon="7.075222972780466">
        <ele>1381.0699999999999</ele>
        <time>2018-10-15T13:56:11Z</time>
      </trkpt>
      <trkpt lat="59.883387973532081" lon="7.075253985822201">
        <ele>1380.5899999999999</ele>
        <time>2018-10-15T13:56:17Z</time>
      </trkpt>
      <trkpt lat="59.883314967155457" lon="7.075179973617196">
        <ele>1378.6700000000001</ele>
        <time>2018-10-15T13:56:23Z</time>
      </trkpt>
      <trkpt lat="59.883262999355793" lon="7.075215009972453">
        <ele>1376.26</ele>
        <time>2018-10-15T13:56:34Z</time>
      </trkpt>
      <trkpt lat="59.883265011012554" lon="7.075201012194157">
        <ele>1375.78</ele>
        <time>2018-10-15T13:56:51Z</time>
      </trkpt>
      <trkpt lat="59.883259981870651" lon="7.075193971395493">
        <ele>1375.78</ele>
        <time>2018-10-15T13:57:16Z</time>
      </trkpt>
      <trkpt lat="59.883261993527412" lon="7.075190031901002">
        <ele>1374.8199999999999</ele>
        <time>2018-10-15T13:58:11Z</time>
      </trkpt>
      <trkpt lat="59.883243972435594" lon="7.075041001662612">
        <ele>1374.8199999999999</ele>
        <time>2018-10-15T13:58:20Z</time>
      </trkpt>
      <trkpt lat="59.883188987150788" lon="7.075077965855598">
        <ele>1372.9000000000001</ele>
        <time>2018-10-15T13:58:26Z</time>
      </trkpt>
      <trkpt lat="59.883253024891019" lon="7.0749949850142">
        <ele>1373.3800000000001</ele>
        <time>2018-10-15T13:58:32Z</time>
      </trkpt>
      <trkpt lat="59.883203990757465" lon="7.075019963085651">
        <ele>1373.3800000000001</ele>
        <time>2018-10-15T13:58:38Z</time>
      </trkpt>
      <trkpt lat="59.883233997970819" lon="7.074989033862948">
        <ele>1373.3800000000001</ele>
        <time>2018-10-15T13:58:40Z</time>
      </trkpt>
      <trkpt lat="59.883253024891019" lon="7.07518701441586">
        <ele>1373.8599999999999</ele>
        <time>2018-10-15T13:58:51Z</time>
      </trkpt>
      <trkpt lat="59.883262999355793" lon="7.075182991102338">
        <ele>1374.8199999999999</ele>
        <time>2018-10-15T13:59:08Z</time>
      </trkpt>
      <trkpt lat="59.883246989920735" lon="7.07520604133606">
        <ele>1375.78</ele>
        <time>2018-10-15T13:59:18Z</time>
      </trkpt>
      <trkpt lat="59.883227963000536" lon="7.075223978608847">
        <ele>1373.3800000000001</ele>
        <time>2018-10-15T13:59:27Z</time>
      </trkpt>
      <trkpt lat="59.883227963000536" lon="7.075225990265608">
        <ele>1372.9000000000001</ele>
        <time>2018-10-15T14:00:07Z</time>
      </trkpt>
      <trkpt lat="59.883227040991187" lon="7.075225990265608">
        <ele>1373.3800000000001</ele>
        <time>2018-10-15T14:00:47Z</time>
      </trkpt>
      <trkpt lat="59.883109023794532" lon="7.075070003047586">
        <ele>1370.02</ele>
        <time>2018-10-15T14:00:56Z</time>
      </trkpt>
      <trkpt lat="59.883086979389191" lon="7.075061034411192">
        <ele>1370.02</ele>
        <time>2018-10-15T14:00:57Z</time>
      </trkpt>
      <trkpt lat="59.883036017417908" lon="7.075029015541077">
        <ele>1368.0899999999999</ele>
        <time>2018-10-15T14:01:00Z</time>
      </trkpt>
      <trkpt lat="59.882980026304722" lon="7.075054999440908">
        <ele>1365.6900000000001</ele>
        <time>2018-10-15T14:01:05Z</time>
      </trkpt>
      <trkpt lat="59.883012967184186" lon="7.075020968914032">
        <ele>1364.73</ele>
        <time>2018-10-15T14:01:07Z</time>
      </trkpt>
      <trkpt lat="59.883057978004217" lon="7.074962966144085">
        <ele>1364.73</ele>
        <time>2018-10-15T14:01:12Z</time>
      </trkpt>
      <trkpt lat="59.883077004924417" lon="7.074959026649594">
        <ele>1364.73</ele>
        <time>2018-10-15T14:01:13Z</time>
      </trkpt>
      <trkpt lat="59.883054960519075" lon="7.075001019984484">
        <ele>1365.6900000000001</ele>
        <time>2018-10-15T14:01:18Z</time>
      </trkpt>
      <trkpt lat="59.883099971339107" lon="7.074957014992833">
        <ele>1366.1700000000001</ele>
        <time>2018-10-15T14:01:22Z</time>
      </trkpt>
      <trkpt lat="59.88304004073143" lon="7.075046030804515">
        <ele>1366.6500000000001</ele>
        <time>2018-10-15T14:01:27Z</time>
      </trkpt>
      <trkpt lat="59.883115980774164" lon="7.075053993612528">
        <ele>1365.21</ele>
        <time>2018-10-15T14:01:32Z</time>
      </trkpt>
      <trkpt lat="59.883130984380841" lon="7.07505801692605">
        <ele>1365.21</ele>
        <time>2018-10-15T14:01:33Z</time>
      </trkpt>
      <trkpt lat="59.883218994364142" lon="7.075148960575461">
        <ele>1368.5699999999999</ele>
        <time>2018-10-15T14:01:40Z</time>
      </trkpt>
      <trkpt lat="59.883250007405877" lon="7.075193971395493">
        <ele>1371.9400000000001</ele>
        <time>2018-10-15T14:01:48Z</time>
      </trkpt>
      <trkpt lat="59.883285965770483" lon="7.075215009972453">
        <ele>1374.8199999999999</ele>
        <time>2018-10-15T14:02:04Z</time>
      </trkpt>
      <trkpt lat="59.883274985477328" lon="7.075225990265608">
        <ele>1374.8199999999999</ele>
        <time>2018-10-15T14:02:06Z</time>
      </trkpt>
      <trkpt lat="59.883254030719399" lon="7.075176034122706">
        <ele>1374.3399999999999</ele>
        <time>2018-10-15T14:02:13Z</time>
      </trkpt>
      <trkpt lat="59.883250007405877" lon="7.075173016637564">
        <ele>1373.3800000000001</ele>
        <time>2018-10-15T14:02:24Z</time>
      </trkpt>
      <trkpt lat="59.883252019062638" lon="7.075181985273957">
        <ele>1372.9000000000001</ele>
        <time>2018-10-15T14:02:42Z</time>
      </trkpt>
      <trkpt lat="59.883254030719399" lon="7.075188020244241">
        <ele>1373.3800000000001</ele>
        <time>2018-10-15T14:02:52Z</time>
      </trkpt>
      <trkpt lat="59.883254030719399" lon="7.07518600858748">
        <ele>1372.9000000000001</ele>
        <time>2018-10-15T14:03:10Z</time>
      </trkpt>
      <trkpt lat="59.883253024891019" lon="7.075199000537396">
        <ele>1373.3800000000001</ele>
        <time>2018-10-15T14:03:22Z</time>
      </trkpt>
      <trkpt lat="59.883254030719399" lon="7.075196988880634">
        <ele>1374.8199999999999</ele>
        <time>2018-10-15T14:03:54Z</time>
      </trkpt>
      <trkpt lat="59.883246989920735" lon="7.075158013030887">
        <ele>1376.26</ele>
        <time>2018-10-15T14:03:57Z</time>
      </trkpt>
      <trkpt lat="59.883210025727749" lon="7.075081989169121">
        <ele>1375.3</ele>
        <time>2018-10-15T14:04:02Z</time>
      </trkpt>
      <trkpt lat="59.883142970502377" lon="7.075124988332391">
        <ele>1372.4200000000001</ele>
        <time>2018-10-15T14:04:07Z</time>
      </trkpt>
      <trkpt lat="59.883082034066319" lon="7.075099004432559">
        <ele>1370.5</ele>
        <time>2018-10-15T14:04:10Z</time>
      </trkpt>
      <trkpt lat="59.883030988276005" lon="7.075086012482643">
        <ele>1368.5699999999999</ele>
        <time>2018-10-15T14:04:13Z</time>
      </trkpt>
      <trkpt lat="59.882983965799212" lon="7.075113002210856">
        <ele>1365.21</ele>
        <time>2018-10-15T14:04:16Z</time>
      </trkpt>
      <trkpt lat="59.882959993556142" lon="7.075109984725714">
        <ele>1365.21</ele>
        <time>2018-10-15T14:04:17Z</time>
      </trkpt>
      <trkpt lat="59.882880030199885" lon="7.075047036632896">
        <ele>1363.29</ele>
        <time>2018-10-15T14:04:20Z</time>
      </trkpt>
      <trkpt lat="59.882690012454987" lon="7.075028009712696">
        <ele>1360.8800000000001</ele>
        <time>2018-10-15T14:04:28Z</time>
      </trkpt>
      <trkpt lat="59.882607031613588" lon="7.074894988909364">
        <ele>1358.48</ele>
        <time>2018-10-15T14:04:36Z</time>
      </trkpt>
      <trkpt lat="59.882540982216597" lon="7.074829023331404">
        <ele>1357.04</ele>
        <time>2018-10-15T14:04:43Z</time>
      </trkpt>
      <trkpt lat="59.882464036345482" lon="7.074616961181164">
        <ele>1355.1199999999999</ele>
        <time>2018-10-15T14:04:48Z</time>
      </trkpt>
      <trkpt lat="59.882447021082044" lon="7.074503973126411">
        <ele>1354.1500000000001</ele>
        <time>2018-10-15T14:04:53Z</time>
      </trkpt>
      <trkpt lat="59.882340990006924" lon="7.07441596314311">
        <ele>1354.1500000000001</ele>
        <time>2018-10-15T14:05:07Z</time>
      </trkpt>
      <trkpt lat="59.882301008328795" lon="7.074525011703372">
        <ele>1353.6700000000001</ele>
        <time>2018-10-15T14:05:11Z</time>
      </trkpt>
      <trkpt lat="59.88220302388072" lon="7.07464998587966">
        <ele>1356.0799999999999</ele>
        <time>2018-10-15T14:05:20Z</time>
      </trkpt>
      <trkpt lat="59.88218299113214" lon="7.074723998084664">
        <ele>1357.52</ele>
        <time>2018-10-15T14:05:23Z</time>
      </trkpt>
      <trkpt lat="59.882137980312109" lon="7.074812008067966">
        <ele>1359.4400000000001</ele>
        <time>2018-10-15T14:05:28Z</time>
      </trkpt>
      <trkpt lat="59.882106967270374" lon="7.074859030544758">
        <ele>1360.8800000000001</ele>
        <time>2018-10-15T14:05:31Z</time>
      </trkpt>
      <trkpt lat="59.882066985592246" lon="7.074914015829563">
        <ele>1362.8099999999999</ele>
        <time>2018-10-15T14:05:35Z</time>
      </trkpt>
      <trkpt lat="59.88203396089375" lon="7.074852995574474">
        <ele>1364.25</ele>
        <time>2018-10-15T14:05:38Z</time>
      </trkpt>
      <trkpt lat="59.882007976993918" lon="7.074838997796178">
        <ele>1365.21</ele>
        <time>2018-10-15T14:05:41Z</time>
      </trkpt>
      <trkpt lat="59.881972018629313" lon="7.074902029708028">
        <ele>1365.6900000000001</ele>
        <time>2018-10-15T14:05:46Z</time>
      </trkpt>
      <trkpt lat="59.88194402307272" lon="7.07495098002255">
        <ele>1367.1300000000001</ele>
        <time>2018-10-15T14:05:49Z</time>
      </trkpt>
      <trkpt lat="59.881910998374224" lon="7.075001019984484">
        <ele>1368.5699999999999</ele>
        <time>2018-10-15T14:05:52Z</time>
      </trkpt>
      <trkpt lat="59.881862970069051" lon="7.075090035796166">
        <ele>1370.5</ele>
        <time>2018-10-15T14:05:56Z</time>
      </trkpt>
      <trkpt lat="59.881757022812963" lon="7.075149966403842">
        <ele>1372.9000000000001</ele>
        <time>2018-10-15T14:06:06Z</time>
      </trkpt>
      <trkpt lat="59.881699020043015" lon="7.075147032737732">
        <ele>1375.78</ele>
        <time>2018-10-15T14:06:14Z</time>
      </trkpt>
      <trkpt lat="59.881675969809294" lon="7.075117025524378">
        <ele>1377.71</ele>
        <time>2018-10-15T14:06:17Z</time>
      </trkpt>
      <trkpt lat="59.881588965654373" lon="7.075021974742413">
        <ele>1380.5899999999999</ele>
        <time>2018-10-15T14:06:26Z</time>
      </trkpt>
      <trkpt lat="59.881489975377917" lon="7.074922984465957">
        <ele>1383.47</ele>
        <time>2018-10-15T14:06:34Z</time>
      </trkpt>
      <trkpt lat="59.881440019235015" lon="7.074862970039249">
        <ele>1383.96</ele>
        <time>2018-10-15T14:06:42Z</time>
      </trkpt>
      <trkpt lat="59.881389979273081" lon="7.074832962825894">
        <ele>1383.96</ele>
        <time>2018-10-15T14:06:51Z</time>
      </trkpt>
      <trkpt lat="59.881346980109811" lon="7.074848972260952">
        <ele>1385.8800000000001</ele>
        <time>2018-10-15T14:06:58Z</time>
      </trkpt>
      <trkpt lat="59.881277997046709" lon="7.074630036950111">
        <ele>1385.8800000000001</ele>
        <time>2018-10-15T14:07:07Z</time>
      </trkpt>
      <trkpt lat="59.881240027025342" lon="7.074648980051279">
        <ele>1386.3599999999999</ele>
        <time>2018-10-15T14:07:11Z</time>
      </trkpt>
      <trkpt lat="59.881221000105143" lon="7.074674963951111">
        <ele>1387.3199999999999</ele>
        <time>2018-10-15T14:07:14Z</time>
      </trkpt>
      <trkpt lat="59.881139025092125" lon="7.074701031669974">
        <ele>1390.6800000000001</ele>
        <time>2018-10-15T14:07:23Z</time>
      </trkpt>
      <trkpt lat="59.881139025092125" lon="7.07477998919785">
        <ele>1391.1700000000001</ele>
        <time>2018-10-15T14:07:27Z</time>
      </trkpt>
      <trkpt lat="59.88108797930181" lon="7.074731038883328">
        <ele>1393.5699999999999</ele>
        <time>2018-10-15T14:07:35Z</time>
      </trkpt>
      <trkpt lat="59.881059983745217" lon="7.074697008356452">
        <ele>1395.49</ele>
        <time>2018-10-15T14:07:41Z</time>
      </trkpt>
      <trkpt lat="59.881056966260076" lon="7.074700025841594">
        <ele>1396.45</ele>
        <time>2018-10-15T14:07:42Z</time>
      </trkpt>
      <trkpt lat="59.881009021773934" lon="7.0747359842062">
        <ele>1398.8599999999999</ele>
        <time>2018-10-15T14:07:49Z</time>
      </trkpt>
      <trkpt lat="59.880997035652399" lon="7.074829023331404">
        <ele>1400.78</ele>
        <time>2018-10-15T14:07:55Z</time>
      </trkpt>
      <trkpt lat="59.880970967933536" lon="7.074891971424222">
        <ele>1403.1800000000001</ele>
        <time>2018-10-15T14:08:01Z</time>
      </trkpt>
      <trkpt lat="59.880906008183956" lon="7.075094981119037">
        <ele>1405.5799999999999</ele>
        <time>2018-10-15T14:08:11Z</time>
      </trkpt>
      <trkpt lat="59.880873989313841" lon="7.075175028294325">
        <ele>1406.55</ele>
        <time>2018-10-15T14:08:15Z</time>
      </trkpt>
      <trkpt lat="59.880804000422359" lon="7.07542103715241">
        <ele>1408.47</ele>
        <time>2018-10-15T14:08:26Z</time>
      </trkpt>
      <trkpt lat="59.88078597933054" lon="7.075559003278613">
        <ele>1408.95</ele>
        <time>2018-10-15T14:08:31Z</time>
      </trkpt>
      <trkpt lat="59.880776004865766" lon="7.075834013521671">
        <ele>1410.3900000000001</ele>
        <time>2018-10-15T14:08:42Z</time>
      </trkpt>
      <trkpt lat="59.880782039836049" lon="7.075868966057897">
        <ele>1410.8699999999999</ele>
        <time>2018-10-15T14:08:45Z</time>
      </trkpt>
      <trkpt lat="59.880730994045734" lon="7.076150011271238">
        <ele>1414.24</ele>
        <time>2018-10-15T14:08:55Z</time>
      </trkpt>
      <trkpt lat="59.880713978782296" lon="7.076309015974402">
        <ele>1415.6800000000001</ele>
        <time>2018-10-15T14:09:02Z</time>
      </trkpt>
      <trkpt lat="59.880673997104168" lon="7.076499033719301">
        <ele>1418.0799999999999</ele>
        <time>2018-10-15T14:09:11Z</time>
      </trkpt>
      <trkpt lat="59.880538964644074" lon="7.07651898264885">
        <ele>1419.52</ele>
        <time>2018-10-15T14:09:21Z</time>
      </trkpt>
      <trkpt lat="59.880524966865778" lon="7.076467014849186">
        <ele>1421.45</ele>
        <time>2018-10-15T14:09:25Z</time>
      </trkpt>
      <trkpt lat="59.880557991564274" lon="7.076308010146022">
        <ele>1423.8499999999999</ele>
        <time>2018-10-15T14:09:33Z</time>
      </trkpt>
      <trkpt lat="59.88057098351419" lon="7.076159985736013">
        <ele>1423.3699999999999</ele>
        <time>2018-10-15T14:09:40Z</time>
      </trkpt>
      <trkpt lat="59.880575006827712" lon="7.075922023504973">
        <ele>1421.9300000000001</ele>
        <time>2018-10-15T14:09:48Z</time>
      </trkpt>
      <trkpt lat="59.880575006827712" lon="7.075908025726676">
        <ele>1421.9300000000001</ele>
        <time>2018-10-15T14:09:49Z</time>
      </trkpt>
      <trkpt lat="59.880578024312854" lon="7.075822027400136">
        <ele>1423.8499999999999</ele>
        <time>2018-10-15T14:09:59Z</time>
      </trkpt>
      <trkpt lat="59.880574000999331" lon="7.075799982994795">
        <ele>1425.77</ele>
        <time>2018-10-15T14:10:04Z</time>
      </trkpt>
      <trkpt lat="59.880561009049416" lon="7.07581196911633">
        <ele>1426.73</ele>
        <time>2018-10-15T14:10:07Z</time>
      </trkpt>
      <trkpt lat="59.880540976300836" lon="7.075818004086614">
        <ele>1428.1800000000001</ele>
        <time>2018-10-15T14:10:11Z</time>
      </trkpt>
      <trkpt lat="59.880522033199668" lon="7.07578900270164">
        <ele>1429.6199999999999</ele>
        <time>2018-10-15T14:10:14Z</time>
      </trkpt>
      <trkpt lat="59.880507029592991" lon="7.075756983831525">
        <ele>1430.5799999999999</ele>
        <time>2018-10-15T14:10:19Z</time>
      </trkpt>
      <trkpt lat="59.880500994622707" lon="7.07570199854672">
        <ele>1431.0599999999999</ele>
        <time>2018-10-15T14:10:22Z</time>
      </trkpt>
      <trkpt lat="59.880493031814694" lon="7.075667968019843">
        <ele>1430.5799999999999</ele>
        <time>2018-10-15T14:10:26Z</time>
      </trkpt>
      <trkpt lat="59.880431005731225" lon="7.075539976358414">
        <ele>1432.5</ele>
        <time>2018-10-15T14:10:36Z</time>
      </trkpt>
      <trkpt lat="59.880383983254433" lon="7.07553000189364">
        <ele>1433.46</ele>
        <time>2018-10-15T14:10:44Z</time>
      </trkpt>
      <trkpt lat="59.880379037931561" lon="7.075517009943724">
        <ele>1433.9400000000001</ele>
        <time>2018-10-15T14:10:45Z</time>
      </trkpt>
      <trkpt lat="59.880299996584654" lon="7.075300002470613">
        <ele>1435.3900000000001</ele>
        <time>2018-10-15T14:10:53Z</time>
      </trkpt>
      <trkpt lat="59.880296979099512" lon="7.075240993872285">
        <ele>1435.8699999999999</ele>
        <time>2018-10-15T14:10:56Z</time>
      </trkpt>
      <trkpt lat="59.880222966894507" lon="7.074975958094001">
        <ele>1436.3499999999999</ele>
        <time>2018-10-15T14:11:05Z</time>
      </trkpt>
      <trkpt lat="59.88016203045845" lon="7.074916027486324">
        <ele>1436.8299999999999</ele>
        <time>2018-10-15T14:11:13Z</time>
      </trkpt>
      <trkpt lat="59.880143003538251" lon="7.074999008327723">
        <ele>1438.27</ele>
        <time>2018-10-15T14:11:19Z</time>
      </trkpt>
      <trkpt lat="59.88003596663475" lon="7.074978975579143">
        <ele>1440.6700000000001</ele>
        <time>2018-10-15T14:11:27Z</time>
      </trkpt>
      <trkpt lat="59.879991039633751" lon="7.074970006942749">
        <ele>1441.1500000000001</ele>
        <time>2018-10-15T14:11:31Z</time>
      </trkpt>
      <trkpt lat="59.879914009943604" lon="7.074939999729395">
        <ele>1442.1099999999999</ele>
        <time>2018-10-15T14:11:37Z</time>
      </trkpt>
      <trkpt lat="59.87990696914494" lon="7.074955003336072">
        <ele>1442.5999999999999</ele>
        <time>2018-10-15T14:11:39Z</time>
      </trkpt>
      <trkpt lat="59.879833962768316" lon="7.074966989457607">
        <ele>1445.48</ele>
        <time>2018-10-15T14:11:47Z</time>
      </trkpt>
      <trkpt lat="59.879729021340609" lon="7.075004037469626">
        <ele>1447.8800000000001</ele>
        <time>2018-10-15T14:11:55Z</time>
      </trkpt>
      <trkpt lat="59.879652997478843" lon="7.075046030804515">
        <ele>1448.8399999999999</ele>
        <time>2018-10-15T14:12:00Z</time>
      </trkpt>
      <trkpt lat="59.879573034122586" lon="7.075241999700666">
        <ele>1451.25</ele>
        <time>2018-10-15T14:12:08Z</time>
      </trkpt>
      <trkpt lat="59.879533974453807" lon="7.075383989140391">
        <ele>1452.21</ele>
        <time>2018-10-15T14:12:15Z</time>
      </trkpt>
      <trkpt lat="59.87943003885448" lon="7.075434029102325">
        <ele>1452.6900000000001</ele>
        <time>2018-10-15T14:12:24Z</time>
      </trkpt>
      <trkpt lat="59.879401959478855" lon="7.075406033545733">
        <ele>1453.1700000000001</ele>
        <time>2018-10-15T14:12:27Z</time>
      </trkpt>
      <trkpt lat="59.879335993900895" lon="7.075344007462263">
        <ele>1455.0899999999999</ele>
        <time>2018-10-15T14:12:35Z</time>
      </trkpt>
      <trkpt lat="59.879228034988046" lon="7.075185002759099">
        <ele>1456.05</ele>
        <time>2018-10-15T14:12:42Z</time>
      </trkpt>
      <trkpt lat="59.879194004461169" lon="7.075131023302674">
        <ele>1456.05</ele>
        <time>2018-10-15T14:12:44Z</time>
      </trkpt>
      <trkpt lat="59.879099959507585" lon="7.074923990294337">
        <ele>1457.98</ele>
        <time>2018-10-15T14:12:52Z</time>
      </trkpt>
      <trkpt lat="59.878999963402748" lon="7.074760040268302">
        <ele>1457.98</ele>
        <time>2018-10-15T14:12:58Z</time>
      </trkpt>
      <trkpt lat="59.878932991996408" lon="7.074471032246947">
        <ele>1457.5</ele>
        <time>2018-10-15T14:13:06Z</time>
      </trkpt>
      <trkpt lat="59.878883035853505" lon="7.074356032535434">
        <ele>1457.5</ele>
        <time>2018-10-15T14:13:11Z</time>
      </trkpt>
      <trkpt lat="59.87883098423481" lon="7.074416968971491">
        <ele>1457.02</ele>
        <time>2018-10-15T14:13:20Z</time>
      </trkpt>
      <trkpt lat="59.878783039748669" lon="7.074487041682005">
        <ele>1458.9400000000001</ele>
        <time>2018-10-15T14:13:26Z</time>
      </trkpt>
      <trkpt lat="59.878740962594748" lon="7.074469020590186">
        <ele>1460.3800000000001</ele>
        <time>2018-10-15T14:13:30Z</time>
      </trkpt>
      <trkpt lat="59.878620011731982" lon="7.074488969519734">
        <ele>1461.3399999999999</ele>
        <time>2018-10-15T14:13:38Z</time>
      </trkpt>
      <trkpt lat="59.878545999526978" lon="7.074533980339766">
        <ele>1462.78</ele>
        <time>2018-10-15T14:13:44Z</time>
      </trkpt>
      <trkpt lat="59.878407027572393" lon="7.074548983946443">
        <ele>1464.23</ele>
        <time>2018-10-15T14:13:55Z</time>
      </trkpt>
      <trkpt lat="59.87833796069026" lon="7.074354020878673">
        <ele>1464.71</ele>
        <time>2018-10-15T14:14:02Z</time>
      </trkpt>
      <trkpt lat="59.87824902869761" lon="7.074238015338779">
        <ele>1462.78</ele>
        <time>2018-10-15T14:14:09Z</time>
      </trkpt>
      <trkpt lat="59.87812296487391" lon="7.07419803366065">
        <ele>1463.74</ele>
        <time>2018-10-15T14:14:17Z</time>
      </trkpt>
      <trkpt lat="59.878072002902627" lon="7.074257964268327">
        <ele>1465.6700000000001</ele>
        <time>2018-10-15T14:14:25Z</time>
      </trkpt>
      <trkpt lat="59.87803403288126" lon="7.07441202364862">
        <ele>1469.03</ele>
        <time>2018-10-15T14:14:32Z</time>
      </trkpt>
      <trkpt lat="59.878021962940693" lon="7.074423003941774">
        <ele>1469.51</ele>
        <time>2018-10-15T14:14:34Z</time>
      </trkpt>
      <trkpt lat="59.877960020676255" lon="7.074473965913057">
        <ele>1472.4000000000001</ele>
        <time>2018-10-15T14:14:43Z</time>
      </trkpt>
      <trkpt lat="59.877835968509316" lon="7.074360977858305">
        <ele>1472.8800000000001</ele>
        <time>2018-10-15T14:14:50Z</time>
      </trkpt>
      <trkpt lat="59.877768997102976" lon="7.074344968423247">
        <ele>1473.8399999999999</ele>
        <time>2018-10-15T14:14:55Z</time>
      </trkpt>
      <trkpt lat="59.877702025696635" lon="7.074311021715403">
        <ele>1474.3199999999999</ele>
        <time>2018-10-15T14:14:59Z</time>
      </trkpt>
      <trkpt lat="59.877644022926688" lon="7.074535991996527">
        <ele>1475.28</ele>
        <time>2018-10-15T14:15:07Z</time>
      </trkpt>
      <trkpt lat="59.877562969923019" lon="7.074632970616221">
        <ele>1476.72</ele>
        <time>2018-10-15T14:15:14Z</time>
      </trkpt>
      <trkpt lat="59.877422992140055" lon="7.074676975607872">
        <ele>1477.6800000000001</ele>
        <time>2018-10-15T14:15:22Z</time>
      </trkpt>
      <trkpt lat="59.877302963286638" lon="7.074659960344434">
        <ele>1479.1300000000001</ele>
        <time>2018-10-15T14:15:30Z</time>
      </trkpt>
      <trkpt lat="59.877226017415524" lon="7.074678987264633">
        <ele>1481.05</ele>
        <time>2018-10-15T14:15:37Z</time>
      </trkpt>
      <trkpt lat="59.877095008268952" lon="7.074633976444602">
        <ele>1482.01</ele>
        <time>2018-10-15T14:15:45Z</time>
      </trkpt>
      <trkpt lat="59.877018984407187" lon="7.074502967298031">
        <ele>1483.45</ele>
        <time>2018-10-15T14:15:51Z</time>
      </trkpt>
      <trkpt lat="59.876971039921045" lon="7.074530040845275">
        <ele>1484.8900000000001</ele>
        <time>2018-10-15T14:15:55Z</time>
      </trkpt>
      <trkpt lat="59.876879006624222" lon="7.07460799254477">
        <ele>1487.78</ele>
        <time>2018-10-15T14:16:03Z</time>
      </trkpt>
      <trkpt lat="59.876838019117713" lon="7.074632970616221">
        <ele>1489.7</ele>
        <time>2018-10-15T14:16:08Z</time>
      </trkpt>
      <trkpt lat="59.876736011356115" lon="7.074699020013213">
        <ele>1493.0599999999999</ele>
        <time>2018-10-15T14:16:19Z</time>
      </trkpt>
      <trkpt lat="59.876656970009208" lon="7.074771020561457">
        <ele>1496.4300000000001</ele>
        <time>2018-10-15T14:16:28Z</time>
      </trkpt>
      <trkpt lat="59.876594021916389" lon="7.074815025553107">
        <ele>1498.3499999999999</ele>
        <time>2018-10-15T14:16:33Z</time>
      </trkpt>
      <trkpt lat="59.876477010548115" lon="7.074890965595841">
        <ele>1498.8299999999999</ele>
        <time>2018-10-15T14:16:43Z</time>
      </trkpt>
      <trkpt lat="59.876471981406212" lon="7.074897000566125">
        <ele>1498.8299999999999</ele>
        <time>2018-10-15T14:16:44Z</time>
      </trkpt>
      <trkpt lat="59.876340972259641" lon="7.074978975579143">
        <ele>1499.3099999999999</ele>
        <time>2018-10-15T14:16:54Z</time>
      </trkpt>
      <trkpt lat="59.87627299502492" lon="7.0750140119344">
        <ele>1501.72</ele>
        <time>2018-10-15T14:17:01Z</time>
      </trkpt>
      <trkpt lat="59.876257991418242" lon="7.075034966692329">
        <ele>1502.2</ele>
        <time>2018-10-15T14:17:03Z</time>
      </trkpt>
      <trkpt lat="59.876174004748464" lon="7.075113002210856">
        <ele>1504.5999999999999</ele>
        <time>2018-10-15T14:17:13Z</time>
      </trkpt>
      <trkpt lat="59.876164030283689" lon="7.075111996382475">
        <ele>1505.5599999999999</ele>
        <time>2018-10-15T14:17:28Z</time>
      </trkpt>
      <trkpt lat="59.87616503611207" lon="7.075118031352758">
        <ele>1505.5599999999999</ele>
        <time>2018-10-15T14:18:16Z</time>
      </trkpt>
      <trkpt lat="59.876162018626928" lon="7.075130017474294">
        <ele>1505.5599999999999</ele>
        <time>2018-10-15T14:18:49Z</time>
      </trkpt>
      <trkpt lat="59.876149026677012" lon="7.075228001922369">
        <ele>1506.52</ele>
        <time>2018-10-15T14:18:59Z</time>
      </trkpt>
      <trkpt lat="59.876147015020251" lon="7.075223978608847">
        <ele>1506.52</ele>
        <time>2018-10-15T14:19:01Z</time>
      </trkpt>
      <trkpt lat="59.87607903778553" lon="7.075373008847237">
        <ele>1507</ele>
        <time>2018-10-15T14:19:11Z</time>
      </trkpt>
      <trkpt lat="59.8759959731251" lon="7.075538970530033">
        <ele>1508.9300000000001</ele>
        <time>2018-10-15T14:19:22Z</time>
      </trkpt>
      <trkpt lat="59.875858006998897" lon="7.075513992458582">
        <ele>1511.3299999999999</ele>
        <time>2018-10-15T14:19:32Z</time>
      </trkpt>
      <trkpt lat="59.875744013115764" lon="7.075505023822188">
        <ele>1514.21</ele>
        <time>2018-10-15T14:19:43Z</time>
      </trkpt>
      <trkpt lat="59.875670000910759" lon="7.075535031035543">
        <ele>1515.6600000000001</ele>
        <time>2018-10-15T14:19:55Z</time>
      </trkpt>
      <trkpt lat="59.875661032274365" lon="7.075548022985458">
        <ele>1515.6600000000001</ele>
        <time>2018-10-15T14:19:57Z</time>
      </trkpt>
      <trkpt lat="59.875546032562852" lon="7.075632009655237">
        <ele>1516.1400000000001</ele>
        <time>2018-10-15T14:20:08Z</time>
      </trkpt>
      <trkpt lat="59.875446036458015" lon="7.075526984408498">
        <ele>1517.0999999999999</ele>
        <time>2018-10-15T14:20:15Z</time>
      </trkpt>
      <trkpt lat="59.875330030918121" lon="7.075499994680286">
        <ele>1519.5</ele>
        <time>2018-10-15T14:20:26Z</time>
      </trkpt>
      <trkpt lat="59.875299017876387" lon="7.075493959710002">
        <ele>1519.98</ele>
        <time>2018-10-15T14:20:30Z</time>
      </trkpt>
      <trkpt lat="59.875233974307775" lon="7.075541988015175">
        <ele>1520.46</ele>
        <time>2018-10-15T14:20:35Z</time>
      </trkpt>
      <trkpt lat="59.875201033428311" lon="7.075626980513334">
        <ele>1520.9400000000001</ele>
        <time>2018-10-15T14:20:41Z</time>
      </trkpt>
      <trkpt lat="59.875131966546178" lon="7.075730999931693">
        <ele>1522.3900000000001</ele>
        <time>2018-10-15T14:20:51Z</time>
      </trkpt>
      <trkpt lat="59.875116962939501" lon="7.075763018801808">
        <ele>1522.8699999999999</ele>
        <time>2018-10-15T14:20:53Z</time>
      </trkpt>
      <trkpt lat="59.874998023733497" lon="7.075657993555069">
        <ele>1523.8299999999999</ele>
        <time>2018-10-15T14:21:04Z</time>
      </trkpt>
      <trkpt lat="59.874912025406957" lon="7.075707027688623">
        <ele>1525.27</ele>
        <time>2018-10-15T14:21:12Z</time>
      </trkpt>
      <trkpt lat="59.874843964353204" lon="7.075838036835194">
        <ele>1528.6300000000001</ele>
        <time>2018-10-15T14:21:20Z</time>
      </trkpt>
      <trkpt lat="59.874814040958881" lon="7.075877012684941">
        <ele>1530.5599999999999</ele>
        <time>2018-10-15T14:21:29Z</time>
      </trkpt>
      <trkpt lat="59.87481496296823" lon="7.075880030170083">
        <ele>1530.5599999999999</ele>
        <time>2018-10-15T14:21:36Z</time>
      </trkpt>
      <trkpt lat="59.874755032360554" lon="7.075842982158065">
        <ele>1531.52</ele>
        <time>2018-10-15T14:21:42Z</time>
      </trkpt>
      <trkpt lat="59.874713961035013" lon="7.075769975781441">
        <ele>1532</ele>
        <time>2018-10-15T14:21:47Z</time>
      </trkpt>
      <trkpt lat="59.874610025435686" lon="7.075833007693291">
        <ele>1533.9200000000001</ele>
        <time>2018-10-15T14:21:55Z</time>
      </trkpt>
      <trkpt lat="59.874565014615655" lon="7.0758739951998">
        <ele>1534.4000000000001</ele>
        <time>2018-10-15T14:22:02Z</time>
      </trkpt>
      <trkpt lat="59.874487984925508" lon="7.076011039316654">
        <ele>1533.4400000000001</ele>
        <time>2018-10-15T14:22:09Z</time>
      </trkpt>
      <trkpt lat="59.874387988820672" lon="7.076050015166402">
        <ele>1532.48</ele>
        <time>2018-10-15T14:22:15Z</time>
      </trkpt>
      <trkpt lat="59.874249016866088" lon="7.075997963547707">
        <ele>1532</ele>
        <time>2018-10-15T14:22:30Z</time>
      </trkpt>
      <trkpt lat="59.874244993552566" lon="7.075993018224835">
        <ele>1532.48</ele>
        <time>2018-10-15T14:22:35Z</time>
      </trkpt>
      <trkpt lat="59.874192019924521" lon="7.075543999671936">
        <ele>1531.52</ele>
        <time>2018-10-15T14:33:13Z</time>
      </trkpt>
      <trkpt lat="59.874153966084123" lon="7.075456995517016">
        <ele>1532</ele>
        <time>2018-10-15T14:33:21Z</time>
      </trkpt>
      <trkpt lat="59.874181039631367" lon="7.075398992747068">
        <ele>1531.52</ele>
        <time>2018-10-15T14:33:27Z</time>
      </trkpt>
      <trkpt lat="59.874199982732534" lon="7.075349036604166">
        <ele>1532</ele>
        <time>2018-10-15T14:33:30Z</time>
      </trkpt>
      <trkpt lat="59.874258991330862" lon="7.075336966663599">
        <ele>1532</ele>
        <time>2018-10-15T14:33:35Z</time>
      </trkpt>
      <trkpt lat="59.874282963573933" lon="7.075335960835218">
        <ele>1532.48</ele>
        <time>2018-10-15T14:33:37Z</time>
      </trkpt>
      <trkpt lat="59.874331997707486" lon="7.075108978897333">
        <ele>1534.8800000000001</ele>
        <time>2018-10-15T14:33:45Z</time>
      </trkpt>
      <trkpt lat="59.87431799992919" lon="7.074904963374138">
        <ele>1535.8399999999999</ele>
        <time>2018-10-15T14:33:52Z</time>
      </trkpt>
      <trkpt lat="59.874269971624017" lon="7.074619978666306">
        <ele>1537.29</ele>
        <time>2018-10-15T14:34:01Z</time>
      </trkpt>
      <trkpt lat="59.874256979674101" lon="7.074439013376832">
        <ele>1537.29</ele>
        <time>2018-10-15T14:34:07Z</time>
      </trkpt>
      <trkpt lat="59.874253962188959" lon="7.074373969808221">
        <ele>1536.3199999999999</ele>
        <time>2018-10-15T14:34:11Z</time>
      </trkpt>
      <trkpt lat="59.874267959967256" lon="7.074159979820252">
        <ele>1535.3599999999999</ele>
        <time>2018-10-15T14:34:18Z</time>
      </trkpt>
      <trkpt lat="59.874200988560915" lon="7.073938027024269">
        <ele>1532.96</ele>
        <time>2018-10-15T14:34:26Z</time>
      </trkpt>
      <trkpt lat="59.874109961092472" lon="7.073850017040968">
        <ele>1532.48</ele>
        <time>2018-10-15T14:34:32Z</time>
      </trkpt>
      <trkpt lat="59.874051036313176" lon="7.073737028986216">
        <ele>1533.4400000000001</ele>
        <time>2018-10-15T14:34:39Z</time>
      </trkpt>
      <trkpt lat="59.874025974422693" lon="7.073753960430622">
        <ele>1535.8399999999999</ele>
        <time>2018-10-15T14:34:46Z</time>
      </trkpt>
      <trkpt lat="59.874020023271441" lon="7.073757983744144">
        <ele>1535.8399999999999</ele>
        <time>2018-10-15T14:34:47Z</time>
      </trkpt>
      <trkpt lat="59.873970989137888" lon="7.073825960978866">
        <ele>1537.77</ele>
        <time>2018-10-15T14:34:53Z</time>
      </trkpt>
      <trkpt lat="59.873962020501494" lon="7.074156040325761">
        <ele>1538.73</ele>
        <time>2018-10-15T14:35:03Z</time>
      </trkpt>
      <trkpt lat="59.873968977481127" lon="7.074301969259977">
        <ele>1538.73</ele>
        <time>2018-10-15T14:35:08Z</time>
      </trkpt>
      <trkpt lat="59.873938970267773" lon="7.074486035853624">
        <ele>1538.25</ele>
        <time>2018-10-15T14:35:15Z</time>
      </trkpt>
      <trkpt lat="59.873864036053419" lon="7.074560970067978">
        <ele>1539.21</ele>
        <time>2018-10-15T14:35:20Z</time>
      </trkpt>
      <trkpt lat="59.873779965564609" lon="7.07456398755312">
        <ele>1542.0899999999999</ele>
        <time>2018-10-15T14:35:27Z</time>
      </trkpt>
      <trkpt lat="59.873756999149919" lon="7.074586031958461">
        <ele>1543.05</ele>
        <time>2018-10-15T14:35:29Z</time>
      </trkpt>
      <trkpt lat="59.873705031350255" lon="7.074622996151447">
        <ele>1544.98</ele>
        <time>2018-10-15T14:35:33Z</time>
      </trkpt>
      <trkpt lat="59.873620038852096" lon="7.074635988101363">
        <ele>1548.3399999999999</ele>
        <time>2018-10-15T14:35:41Z</time>
      </trkpt>
      <trkpt lat="59.873606963083148" lon="7.074662977829576">
        <ele>1548.8199999999999</ele>
        <time>2018-10-15T14:35:43Z</time>
      </trkpt>
      <trkpt lat="59.873525993898511" lon="7.07475702278316">
        <ele>1550.74</ele>
        <time>2018-10-15T14:35:51Z</time>
      </trkpt>
      <trkpt lat="59.873454999178648" lon="7.074793986976147">
        <ele>1553.1500000000001</ele>
        <time>2018-10-15T14:36:00Z</time>
      </trkpt>
      <trkpt lat="59.873442007228732" lon="7.074790969491005">
        <ele>1553.6300000000001</ele>
        <time>2018-10-15T14:36:02Z</time>
      </trkpt>
      <trkpt lat="59.873418034985662" lon="7.074797004461289">
        <ele>1555.0699999999999</ele>
        <time>2018-10-15T14:36:05Z</time>
      </trkpt>
      <trkpt lat="59.873339999467134" lon="7.074846960604191">
        <ele>1558.4300000000001</ele>
        <time>2018-10-15T14:36:14Z</time>
      </trkpt>
      <trkpt lat="59.873261963948607" lon="7.074828017503023">
        <ele>1560.3599999999999</ele>
        <time>2018-10-15T14:36:25Z</time>
      </trkpt>
      <trkpt lat="59.873170014470816" lon="7.074774960055947">
        <ele>1562.76</ele>
        <time>2018-10-15T14:36:33Z</time>
      </trkpt>
      <trkpt lat="59.873076975345612" lon="7.074855007231236">
        <ele>1565.1600000000001</ele>
        <time>2018-10-15T14:36:41Z</time>
      </trkpt>
      <trkpt lat="59.873073035851121" lon="7.074863975867629">
        <ele>1565.1600000000001</ele>
        <time>2018-10-15T14:36:42Z</time>
      </trkpt>
      <trkpt lat="59.872939009219408" lon="7.075000014156103">
        <ele>1566.6099999999999</ele>
        <time>2018-10-15T14:36:53Z</time>
      </trkpt>
      <trkpt lat="59.872868014499545" lon="7.075000014156103">
        <ele>1568.53</ele>
        <time>2018-10-15T14:36:58Z</time>
      </trkpt>
      <trkpt lat="59.872767012566328" lon="7.075139991939068">
        <ele>1569.97</ele>
        <time>2018-10-15T14:37:08Z</time>
      </trkpt>
      <trkpt lat="59.872668022289872" lon="7.075148038566113">
        <ele>1570.9300000000001</ele>
        <time>2018-10-15T14:37:15Z</time>
      </trkpt>
      <trkpt lat="59.872639020904899" lon="7.075333027169108">
        <ele>1572.3699999999999</ele>
        <time>2018-10-15T14:37:27Z</time>
      </trkpt>
      <trkpt lat="59.872637009248137" lon="7.075393041595817">
        <ele>1574.3</ele>
        <time>2018-10-15T14:37:40Z</time>
      </trkpt>
      <trkpt lat="59.872633991762996" lon="7.075398992747068">
        <ele>1574.3</ele>
        <time>2018-10-15T14:38:11Z</time>
      </trkpt>
      <trkpt lat="59.872632985934615" lon="7.075440986081958">
        <ele>1574.3</ele>
        <time>2018-10-15T14:38:25Z</time>
      </trkpt>
      <trkpt lat="59.872524021193385" lon="7.075694035738707">
        <ele>1574.78</ele>
        <time>2018-10-15T14:38:39Z</time>
      </trkpt>
      <trkpt lat="59.872455960139632" lon="7.075661011040211">
        <ele>1574.78</ele>
        <time>2018-10-15T14:38:45Z</time>
      </trkpt>
      <trkpt lat="59.872374990954995" lon="7.075686994940043">
        <ele>1574.78</ele>
        <time>2018-10-15T14:38:54Z</time>
      </trkpt>
      <trkpt lat="59.872265020385385" lon="7.075651958584786">
        <ele>1574.78</ele>
        <time>2018-10-15T14:39:01Z</time>
      </trkpt>
      <trkpt lat="59.872173992916942" lon="7.075582975521684">
        <ele>1573.3299999999999</ele>
        <time>2018-10-15T14:39:08Z</time>
      </trkpt>
      <trkpt lat="59.87210601568222" lon="7.075464958325028">
        <ele>1573.3299999999999</ele>
        <time>2018-10-15T14:39:17Z</time>
      </trkpt>
      <trkpt lat="59.872096041217446" lon="7.075463030487299">
        <ele>1573.3299999999999</ele>
        <time>2018-10-15T14:39:18Z</time>
      </trkpt>
      <trkpt lat="59.87206301651895" lon="7.075411984696984">
        <ele>1575.26</ele>
        <time>2018-10-15T14:39:24Z</time>
      </trkpt>
      <trkpt lat="59.872009959071875" lon="7.075477028265595">
        <ele>1578.6199999999999</ele>
        <time>2018-10-15T14:39:33Z</time>
      </trkpt>
      <trkpt lat="59.871931001543999" lon="7.075362028554082">
        <ele>1581.03</ele>
        <time>2018-10-15T14:39:38Z</time>
      </trkpt>
      <trkpt lat="59.871918009594083" lon="7.075344007462263">
        <ele>1581.03</ele>
        <time>2018-10-15T14:39:40Z</time>
      </trkpt>
      <trkpt lat="59.871902000159025" lon="7.075356999412179">
        <ele>1581.51</ele>
        <time>2018-10-15T14:39:42Z</time>
      </trkpt>
      <trkpt lat="59.871866041794419" lon="7.075378959998488">
        <ele>1582.95</ele>
        <time>2018-10-15T14:39:47Z</time>
      </trkpt>
      <trkpt lat="59.871819019317627" lon="7.075450038537383">
        <ele>1584.8699999999999</ele>
        <time>2018-10-15T14:39:53Z</time>
      </trkpt>
      <trkpt lat="59.871792029589415" lon="7.075485996901989">
        <ele>1585.8299999999999</ele>
        <time>2018-10-15T14:39:56Z</time>
      </trkpt>
      <trkpt lat="59.871687004342675" lon="7.075426988303661">
        <ele>1588.24</ele>
        <time>2018-10-15T14:40:04Z</time>
      </trkpt>
      <trkpt lat="59.871612992137671" lon="7.075565960258246">
        <ele>1590.1600000000001</ele>
        <time>2018-10-15T14:40:13Z</time>
      </trkpt>
      <trkpt lat="59.871576027944684" lon="7.075707027688623">
        <ele>1593.52</ele>
        <time>2018-10-15T14:40:20Z</time>
      </trkpt>
      <trkpt lat="59.871576027944684" lon="7.075733011588454">
        <ele>1593.52</ele>
        <time>2018-10-15T14:40:21Z</time>
      </trkpt>
      <trkpt lat="59.871543003246188" lon="7.075867960229516">
        <ele>1595.45</ele>
        <time>2018-10-15T14:40:27Z</time>
      </trkpt>
      <trkpt lat="59.871512996032834" lon="7.075948007404804">
        <ele>1597.8499999999999</ele>
        <time>2018-10-15T14:40:31Z</time>
      </trkpt>
      <trkpt lat="59.871516013517976" lon="7.075978014618158">
        <ele>1598.3299999999999</ele>
        <time>2018-10-15T14:40:33Z</time>
      </trkpt>
      <trkpt lat="59.871501009911299" lon="7.076095025986433">
        <ele>1600.25</ele>
        <time>2018-10-15T14:40:38Z</time>
      </trkpt>
      <trkpt lat="59.871480977162719" lon="7.076128972694278">
        <ele>1602.1700000000001</ele>
        <time>2018-10-15T14:40:41Z</time>
      </trkpt>
      <trkpt lat="59.871440995484591" lon="7.076173983514309">
        <ele>1604.0999999999999</ele>
        <time>2018-10-15T14:40:44Z</time>
      </trkpt>
      <trkpt lat="59.871399002149701" lon="7.07619896158576">
        <ele>1606.02</ele>
        <time>2018-10-15T14:40:48Z</time>
      </trkpt>
      <trkpt lat="59.871313003823161" lon="7.076189992949367">
        <ele>1608.4200000000001</ele>
        <time>2018-10-15T14:40:55Z</time>
      </trkpt>
      <trkpt lat="59.871123991906643" lon="7.076079016551375">
        <ele>1609.3800000000001</ele>
        <time>2018-10-15T14:41:09Z</time>
      </trkpt>
      <trkpt lat="59.871065989136696" lon="7.076059989631176">
        <ele>1610.3499999999999</ele>
        <time>2018-10-15T14:41:14Z</time>
      </trkpt>
      <trkpt lat="59.871001029387116" lon="7.076152022928">
        <ele>1611.79</ele>
        <time>2018-10-15T14:41:21Z</time>
      </trkpt>
      <trkpt lat="59.87090103328228" lon="7.076256964355707">
        <ele>1614.6700000000001</ele>
        <time>2018-10-15T14:41:31Z</time>
      </trkpt>
      <trkpt lat="59.870816040784121" lon="7.07628202624619">
        <ele>1616.5899999999999</ele>
        <time>2018-10-15T14:41:36Z</time>
      </trkpt>
      <trkpt lat="59.870706992223859" lon="7.076376993209124">
        <ele>1619.48</ele>
        <time>2018-10-15T14:41:44Z</time>
      </trkpt>
      <trkpt lat="59.870616970583797" lon="7.076509008184075">
        <ele>1622.3599999999999</ele>
        <time>2018-10-15T14:41:54Z</time>
      </trkpt>
      <trkpt lat="59.870465006679296" lon="7.076558964326978">
        <ele>1622.8399999999999</ele>
        <time>2018-10-15T14:42:03Z</time>
      </trkpt>
      <trkpt lat="59.870325028896332" lon="7.076660972088575">
        <ele>1623.3199999999999</ele>
        <time>2018-10-15T14:42:11Z</time>
      </trkpt>
      <trkpt lat="59.870240958407521" lon="7.076773038133979">
        <ele>1624.77</ele>
        <time>2018-10-15T14:42:18Z</time>
      </trkpt>
      <trkpt lat="59.870153032243252" lon="7.076885020360351">
        <ele>1627.6500000000001</ele>
        <time>2018-10-15T14:42:25Z</time>
      </trkpt>
      <trkpt lat="59.870135011151433" lon="7.07690597511828">
        <ele>1627.6500000000001</ele>
        <time>2018-10-15T14:42:26Z</time>
      </trkpt>
      <trkpt lat="59.870010958984494" lon="7.076922990381718">
        <ele>1628.1300000000001</ele>
        <time>2018-10-15T14:42:32Z</time>
      </trkpt>
      <trkpt lat="59.869924038648605" lon="7.076956015080214">
        <ele>1630.53</ele>
        <time>2018-10-15T14:42:39Z</time>
      </trkpt>
      <trkpt lat="59.869838962331414" lon="7.076920978724957">
        <ele>1633.9000000000001</ele>
        <time>2018-10-15T14:42:50Z</time>
      </trkpt>
      <trkpt lat="59.869728991761804" lon="7.076918967068195">
        <ele>1635.8199999999999</ele>
        <time>2018-10-15T14:43:00Z</time>
      </trkpt>
      <trkpt lat="59.869643999263644" lon="7.077032038941979">
        <ele>1635.8199999999999</ele>
        <time>2018-10-15T14:43:08Z</time>
      </trkpt>
      <trkpt lat="59.869473008438945" lon="7.077119965106249">
        <ele>1636.3</ele>
        <time>2018-10-15T14:43:17Z</time>
      </trkpt>
      <trkpt lat="59.869362032040954" lon="7.077141003683209">
        <ele>1635.8199999999999</ele>
        <time>2018-10-15T14:43:23Z</time>
      </trkpt>
      <trkpt lat="59.869294976815581" lon="7.07720504142344">
        <ele>1637.26</ele>
        <time>2018-10-15T14:43:28Z</time>
      </trkpt>
      <trkpt lat="59.869235968217254" lon="7.077315011993051">
        <ele>1638.7</ele>
        <time>2018-10-15T14:43:33Z</time>
      </trkpt>
      <trkpt lat="59.869192969053984" lon="7.077349964529276">
        <ele>1640.1500000000001</ele>
        <time>2018-10-15T14:43:36Z</time>
      </trkpt>
      <trkpt lat="59.86909699626267" lon="7.077462030574679">
        <ele>1641.5899999999999</ele>
        <time>2018-10-15T14:43:42Z</time>
      </trkpt>
      <trkpt lat="59.868977973237634" lon="7.077515004202724">
        <ele>1642.0699999999999</ele>
        <time>2018-10-15T14:43:48Z</time>
      </trkpt>
      <trkpt lat="59.868874959647655" lon="7.077563032507896">
        <ele>1643.99</ele>
        <time>2018-10-15T14:43:56Z</time>
      </trkpt>
      <trkpt lat="59.868811005726457" lon="7.077580969780684">
        <ele>1644.95</ele>
        <time>2018-10-15T14:44:01Z</time>
      </trkpt>
      <trkpt lat="59.868774963542819" lon="7.077467981725931">
        <ele>1645.9100000000001</ele>
        <time>2018-10-15T14:44:05Z</time>
      </trkpt>
      <trkpt lat="59.868684019893408" lon="7.077419031411409">
        <ele>1645.4300000000001</ele>
        <time>2018-10-15T14:44:12Z</time>
      </trkpt>
      <trkpt lat="59.868589974939823" lon="7.077388018369675">
        <ele>1644.95</ele>
        <time>2018-10-15T14:44:18Z</time>
      </trkpt>
      <trkpt lat="59.868492996320128" lon="7.077377960085869">
        <ele>1645.4300000000001</ele>
        <time>2018-10-15T14:44:23Z</time>
      </trkpt>
      <trkpt lat="59.868393000215292" lon="7.077348036691546">
        <ele>1646.8800000000001</ele>
        <time>2018-10-15T14:44:29Z</time>
      </trkpt>
      <trkpt lat="59.868327034637332" lon="7.077276036143303">
        <ele>1648.3199999999999</ele>
        <time>2018-10-15T14:44:34Z</time>
      </trkpt>
      <trkpt lat="59.868228966370225" lon="7.077276036143303">
        <ele>1650.24</ele>
        <time>2018-10-15T14:44:43Z</time>
      </trkpt>
      <trkpt lat="59.86815202049911" lon="7.077281987294555">
        <ele>1651.2</ele>
        <time>2018-10-15T14:44:49Z</time>
      </trkpt>
      <trkpt lat="59.868092006072402" lon="7.077289028093219">
        <ele>1652.6400000000001</ele>
        <time>2018-10-15T14:44:54Z</time>
      </trkpt>
      <trkpt lat="59.868058981373906" lon="7.077253991737962">
        <ele>1654.5699999999999</ele>
        <time>2018-10-15T14:44:57Z</time>
      </trkpt>
      <trkpt lat="59.868037020787597" lon="7.077231025323272">
        <ele>1656.01</ele>
        <time>2018-10-15T14:45:00Z</time>
      </trkpt>
      <trkpt lat="59.867901988327503" lon="7.077171010896564">
        <ele>1658.4100000000001</ele>
        <time>2018-10-15T14:45:16Z</time>
      </trkpt>
      <trkpt lat="59.86787298694253" lon="7.07724804058671">
        <ele>1658.8900000000001</ele>
        <time>2018-10-15T14:45:44Z</time>
      </trkpt>
      <trkpt lat="59.867874998599291" lon="7.077244017273188">
        <ele>1659.3699999999999</ele>
        <time>2018-10-15T14:46:11Z</time>
      </trkpt>
      <trkpt lat="59.867870975285769" lon="7.077246028929949">
        <ele>1659.3699999999999</ele>
        <time>2018-10-15T14:46:32Z</time>
      </trkpt>
      <trkpt lat="59.86787298694253" lon="7.07725097425282">
        <ele>1660.8099999999999</ele>
        <time>2018-10-15T14:46:36Z</time>
      </trkpt>
      <trkpt lat="59.867871981114149" lon="7.077259020879865">
        <ele>1658.8900000000001</ele>
        <time>2018-10-15T14:46:43Z</time>
      </trkpt>
      <trkpt lat="59.867855971679091" lon="7.077256003394723">
        <ele>1660.3299999999999</ele>
        <time>2018-10-15T14:46:51Z</time>
      </trkpt>
      <trkpt lat="59.867856977507472" lon="7.077253991737962">
        <ele>1659.3699999999999</ele>
        <time>2018-10-15T14:47:34Z</time>
      </trkpt>
      <trkpt lat="59.86785102635622" lon="7.077262038365006">
        <ele>1659.8499999999999</ele>
        <time>2018-10-15T14:47:42Z</time>
      </trkpt>
      <trkpt lat="59.867854965850711" lon="7.07725097425282">
        <ele>1660.8099999999999</ele>
        <time>2018-10-15T14:47:47Z</time>
      </trkpt>
      <trkpt lat="59.867899976670742" lon="7.077077971771359">
        <ele>1659.3699999999999</ele>
        <time>2018-10-15T14:47:55Z</time>
      </trkpt>
      <trkpt lat="59.867906011641026" lon="7.077065985649824">
        <ele>1659.3699999999999</ele>
        <time>2018-10-15T14:47:56Z</time>
      </trkpt>
      <trkpt lat="59.867931995540857" lon="7.077042013406754">
        <ele>1658.4100000000001</ele>
        <time>2018-10-15T14:48:03Z</time>
      </trkpt>
      <trkpt lat="59.867882961407304" lon="7.077259020879865">
        <ele>1656.97</ele>
        <time>2018-10-15T14:48:12Z</time>
      </trkpt>
      <trkpt lat="59.867868963629007" lon="7.077302020043135">
        <ele>1658.4100000000001</ele>
        <time>2018-10-15T14:48:20Z</time>
      </trkpt>
      <trkpt lat="59.867882039397955" lon="7.077339990064502">
        <ele>1659.3699999999999</ele>
        <time>2018-10-15T14:48:23Z</time>
      </trkpt>
      <trkpt lat="59.867885978892446" lon="7.077490026131272">
        <ele>1657.9300000000001</ele>
        <time>2018-10-15T14:48:31Z</time>
      </trkpt>
      <trkpt lat="59.867907017469406" lon="7.077564960345626">
        <ele>1656.97</ele>
        <time>2018-10-15T14:48:36Z</time>
      </trkpt>
      <trkpt lat="59.867783971130848" lon="7.077628998085856">
        <ele>1654.0899999999999</ele>
        <time>2018-10-15T14:48:45Z</time>
      </trkpt>
      <trkpt lat="59.867697972804308" lon="7.077710973098874">
        <ele>1654.5699999999999</ele>
        <time>2018-10-15T14:48:57Z</time>
      </trkpt>
      <trkpt lat="59.867696966975927" lon="7.077666968107224">
        <ele>1653.5999999999999</ele>
        <time>2018-10-15T14:51:39Z</time>
      </trkpt>
      <trkpt lat="59.867685986682773" lon="7.077455995604396">
        <ele>1650.72</ele>
        <time>2018-10-15T14:51:50Z</time>
      </trkpt>
      <trkpt lat="59.867660002782941" lon="7.077478040009737">
        <ele>1649.28</ele>
        <time>2018-10-15T14:51:53Z</time>
      </trkpt>
      <trkpt lat="59.867623038589954" lon="7.077555991709232">
        <ele>1647.8399999999999</ele>
        <time>2018-10-15T14:52:02Z</time>
      </trkpt>
      <trkpt lat="59.867619015276432" lon="7.077565966174007">
        <ele>1647.8399999999999</ele>
        <time>2018-10-15T14:52:09Z</time>
      </trkpt>
      <trkpt lat="59.86761499196291" lon="7.077712984755635">
        <ele>1645.9100000000001</ele>
        <time>2018-10-15T15:02:44Z</time>
      </trkpt>
      <trkpt lat="59.867617003619671" lon="7.077795965597034">
        <ele>1645.4300000000001</ele>
        <time>2018-10-15T15:02:54Z</time>
      </trkpt>
      <trkpt lat="59.86761599779129" lon="7.077796971425414">
        <ele>1644.95</ele>
        <time>2018-10-15T15:02:56Z</time>
      </trkpt>
      <trkpt lat="59.867641981691122" lon="7.077823961153626">
        <ele>1644.95</ele>
        <time>2018-10-15T15:03:01Z</time>
      </trkpt>
      <trkpt lat="59.867637036368251" lon="7.077865032479167">
        <ele>1645.4300000000001</ele>
        <time>2018-10-15T15:03:04Z</time>
      </trkpt>
      <trkpt lat="59.867625972256064" lon="7.07793602719903">
        <ele>1645.4300000000001</ele>
        <time>2018-10-15T15:03:09Z</time>
      </trkpt>
      <trkpt lat="59.867629995569587" lon="7.078053038567305">
        <ele>1644.47</ele>
        <time>2018-10-15T15:03:15Z</time>
      </trkpt>
      <trkpt lat="59.8676379583776" lon="7.078183963894844">
        <ele>1643.03</ele>
        <time>2018-10-15T15:03:21Z</time>
      </trkpt>
      <trkpt lat="59.86761499196291" lon="7.078287983313203">
        <ele>1643.03</ele>
        <time>2018-10-15T15:03:28Z</time>
      </trkpt>
      <trkpt lat="59.867609040811658" lon="7.078286977484822">
        <ele>1643.03</ele>
        <time>2018-10-15T15:03:29Z</time>
      </trkpt>
      <trkpt lat="59.867695039138198" lon="7.078876979649067">
        <ele>1639.6700000000001</ele>
        <time>2018-10-15T15:05:18Z</time>
      </trkpt>
      <trkpt lat="59.867665031924844" lon="7.078967001289129">
        <ele>1638.22</ele>
        <time>2018-10-15T15:05:22Z</time>
      </trkpt>
      <trkpt lat="59.867670983076096" lon="7.079107984900475">
        <ele>1635.8199999999999</ele>
        <time>2018-10-15T15:05:30Z</time>
      </trkpt>
      <trkpt lat="59.867670983076096" lon="7.079102033749223">
        <ele>1635.8199999999999</ele>
        <time>2018-10-15T15:05:40Z</time>
      </trkpt>
      <trkpt lat="59.867759998887777" lon="7.079207981005311">
        <ele>1636.3</ele>
        <time>2018-10-15T15:05:50Z</time>
      </trkpt>
      <trkpt lat="59.867895031347871" lon="7.079346030950546">
        <ele>1637.74</ele>
        <time>2018-10-15T15:06:03Z</time>
      </trkpt>
      <trkpt lat="59.867929983884096" lon="7.07939900457859">
        <ele>1638.7</ele>
        <time>2018-10-15T15:06:14Z</time>
      </trkpt>
      <trkpt lat="59.867900982499123" lon="7.079380983486772">
        <ele>1638.22</ele>
        <time>2018-10-15T15:06:20Z</time>
      </trkpt>
      <trkpt lat="59.867903999984264" lon="7.079387018457055">
        <ele>1638.22</ele>
        <time>2018-10-15T15:06:22Z</time>
      </trkpt>
      <trkpt lat="59.867938030511141" lon="7.079379977658391">
        <ele>1638.7</ele>
        <time>2018-10-15T15:06:24Z</time>
      </trkpt>
      <trkpt lat="59.868027968332171" lon="7.079503023996949">
        <ele>1639.1900000000001</ele>
        <time>2018-10-15T15:06:30Z</time>
      </trkpt>
      <trkpt lat="59.868085971102118" lon="7.079658005386591">
        <ele>1638.22</ele>
        <time>2018-10-15T15:06:37Z</time>
      </trkpt>
      <trkpt lat="59.868100974708796" lon="7.079839976504445">
        <ele>1637.26</ele>
        <time>2018-10-15T15:06:43Z</time>
      </trkpt>
      <trkpt lat="59.868106003850698" lon="7.080198973417282">
        <ele>1637.74</ele>
        <time>2018-10-15T15:06:52Z</time>
      </trkpt>
      <trkpt lat="59.868155959993601" lon="7.080416986718774">
        <ele>1636.78</ele>
        <time>2018-10-15T15:06:59Z</time>
      </trkpt>
      <trkpt lat="59.868166018277407" lon="7.080426961183548">
        <ele>1636.78</ele>
        <time>2018-10-15T15:07:00Z</time>
      </trkpt>
      <trkpt lat="59.868146991357207" lon="7.080605998635292">
        <ele>1636.3</ele>
        <time>2018-10-15T15:07:05Z</time>
      </trkpt>
      <trkpt lat="59.868158977478743" lon="7.080870028585196">
        <ele>1635.8199999999999</ele>
        <time>2018-10-15T15:07:12Z</time>
      </trkpt>
      <trkpt lat="59.868183033540845" lon="7.08105199970305">
        <ele>1635.3399999999999</ele>
        <time>2018-10-15T15:07:19Z</time>
      </trkpt>
      <trkpt lat="59.868183033540845" lon="7.08105199970305">
        <ele>1635.8199999999999</ele>
        <time>2018-10-15T15:07:22Z</time>
      </trkpt>
      <trkpt lat="59.86825997941196" lon="7.081173034384847">
        <ele>1637.26</ele>
        <time>2018-10-15T15:07:29Z</time>
      </trkpt>
      <trkpt lat="59.868245981633663" lon="7.081338996067643">
        <ele>1635.3399999999999</ele>
        <time>2018-10-15T15:07:36Z</time>
      </trkpt>
      <trkpt lat="59.868247993290424" lon="7.081341007724404">
        <ele>1635.3399999999999</ele>
        <time>2018-10-15T15:07:37Z</time>
      </trkpt>
      <trkpt lat="59.868242964148521" lon="7.081547034904361">
        <ele>1635.8199999999999</ele>
        <time>2018-10-15T15:07:45Z</time>
      </trkpt>
      <trkpt lat="59.868327034637332" lon="7.08169799298048">
        <ele>1635.8199999999999</ele>
        <time>2018-10-15T15:07:54Z</time>
      </trkpt>
      <trkpt lat="59.868336003273726" lon="7.081936039030552">
        <ele>1635.8199999999999</ele>
        <time>2018-10-15T15:08:01Z</time>
      </trkpt>
      <trkpt lat="59.868308007717133" lon="7.081995969638228">
        <ele>1635.3399999999999</ele>
        <time>2018-10-15T15:08:08Z</time>
      </trkpt>
      <trkpt lat="59.868327034637332" lon="7.082206020131707">
        <ele>1635.3399999999999</ele>
        <time>2018-10-15T15:08:15Z</time>
      </trkpt>
      <trkpt lat="59.868308007717133" lon="7.082244995981455">
        <ele>1634.8599999999999</ele>
        <time>2018-10-15T15:08:21Z</time>
      </trkpt>
      <trkpt lat="59.868255034089088" lon="7.082387991249561">
        <ele>1633.4200000000001</ele>
        <time>2018-10-15T15:14:16Z</time>
      </trkpt>
      <trkpt lat="59.86821798607707" lon="7.082370975986123">
        <ele>1631.01</ele>
        <time>2018-10-15T15:14:29Z</time>
      </trkpt>
      <trkpt lat="59.86821698024869" lon="7.082399977371097">
        <ele>1630.05</ele>
        <time>2018-10-15T15:14:33Z</time>
      </trkpt>
      <trkpt lat="59.868250004947186" lon="7.08249201066792">
        <ele>1627.6500000000001</ele>
        <time>2018-10-15T15:14:45Z</time>
      </trkpt>
      <trkpt lat="59.868256961926818" lon="7.082530986517668">
        <ele>1626.6900000000001</ele>
        <time>2018-10-15T15:14:55Z</time>
      </trkpt>
      <trkpt lat="59.868225026875734" lon="7.082563005387783">
        <ele>1623.8</ele>
        <time>2018-10-15T15:15:06Z</time>
      </trkpt>
      <trkpt lat="59.868230978026986" lon="7.08259703591466">
        <ele>1622.3599999999999</ele>
        <time>2018-10-15T15:15:15Z</time>
      </trkpt>
      <trkpt lat="59.868225026875734" lon="7.082656966522336">
        <ele>1620.9200000000001</ele>
        <time>2018-10-15T15:15:24Z</time>
      </trkpt>
      <trkpt lat="59.868235001340508" lon="7.082712035626173">
        <ele>1619.48</ele>
        <time>2018-10-15T15:15:36Z</time>
      </trkpt>
      <trkpt lat="59.868205999955535" lon="7.082794010639191">
        <ele>1617.5599999999999</ele>
        <time>2018-10-15T15:15:44Z</time>
      </trkpt>
      <trkpt lat="59.86813098192215" lon="7.0828159712255">
        <ele>1614.1900000000001</ele>
        <time>2018-10-15T15:15:55Z</time>
      </trkpt>
      <trkpt lat="59.86813098192215" lon="7.08281496539712">
        <ele>1612.27</ele>
        <time>2018-10-15T15:16:58Z</time>
      </trkpt>
      <trkpt lat="59.868115978315473" lon="7.082810020074248">
        <ele>1611.3099999999999</ele>
        <time>2018-10-15T15:18:08Z</time>
      </trkpt>
      <trkpt lat="59.868124024942517" lon="7.082817982882261">
        <ele>1611.79</ele>
        <time>2018-10-15T15:18:26Z</time>
      </trkpt>
      <trkpt lat="59.868144979700446" lon="7.082831980660558">
        <ele>1612.27</ele>
        <time>2018-10-15T15:18:29Z</time>
      </trkpt>
      <trkpt lat="59.868190996348858" lon="7.082865005359054">
        <ele>1614.6700000000001</ele>
        <time>2018-10-15T15:18:40Z</time>
      </trkpt>
      <trkpt lat="59.868208011612296" lon="7.082923008129001">
        <ele>1612.75</ele>
        <time>2018-10-15T15:18:52Z</time>
      </trkpt>
      <trkpt lat="59.868215974420309" lon="7.08298796787858">
        <ele>1610.8299999999999</ele>
        <time>2018-10-15T15:18:59Z</time>
      </trkpt>
      <trkpt lat="59.868226032704115" lon="7.083244035020471">
        <ele>1609.8599999999999</ele>
        <time>2018-10-15T15:19:08Z</time>
      </trkpt>
      <trkpt lat="59.868253022432327" lon="7.083261972293258">
        <ele>1609.3800000000001</ele>
        <time>2018-10-15T15:19:11Z</time>
      </trkpt>
      <trkpt lat="59.868343966081738" lon="7.083294996991754">
        <ele>1609.8599999999999</ele>
        <time>2018-10-15T15:19:21Z</time>
      </trkpt>
      <trkpt lat="59.868375984951854" lon="7.083301031962037">
        <ele>1607.46</ele>
        <time>2018-10-15T15:19:28Z</time>
      </trkpt>
      <trkpt lat="59.868397023528814" lon="7.083376972004771">
        <ele>1605.0599999999999</ele>
        <time>2018-10-15T15:19:37Z</time>
      </trkpt>
      <trkpt lat="59.86836701631546" lon="7.083402033895254">
        <ele>1603.6199999999999</ele>
        <time>2018-10-15T15:19:43Z</time>
      </trkpt>
      <trkpt lat="59.868325022980571" lon="7.083452995866537">
        <ele>1601.21</ele>
        <time>2018-10-15T15:19:53Z</time>
      </trkpt>
      <trkpt lat="59.868294009938836" lon="7.083512004464865">
        <ele>1598.3299999999999</ele>
        <time>2018-10-15T15:20:04Z</time>
      </trkpt>
      <trkpt lat="59.868285963311791" lon="7.083565983921289">
        <ele>1596.8900000000001</ele>
        <time>2018-10-15T15:20:12Z</time>
      </trkpt>
      <trkpt lat="59.868301972746849" lon="7.083584005013108">
        <ele>1597.8499999999999</ele>
        <time>2018-10-15T15:20:20Z</time>
      </trkpt>
      <trkpt lat="59.868279006332159" lon="7.083575958386064">
        <ele>1595.9300000000001</ele>
        <time>2018-10-15T15:20:28Z</time>
      </trkpt>
      <trkpt lat="59.868239024654031" lon="7.083734041079879">
        <ele>1595.45</ele>
        <time>2018-10-15T15:20:34Z</time>
      </trkpt>
      <trkpt lat="59.868210023269057" lon="7.083836970850825">
        <ele>1594.48</ele>
        <time>2018-10-15T15:20:43Z</time>
      </trkpt>
      <trkpt lat="59.868175992742181" lon="7.084004022181034">
        <ele>1594.48</ele>
        <time>2018-10-15T15:20:54Z</time>
      </trkpt>
      <trkpt lat="59.868172975257039" lon="7.083849962800741">
        <ele>1595.45</ele>
        <time>2018-10-15T15:21:01Z</time>
      </trkpt>
      <trkpt lat="59.868156965821981" lon="7.083805035799742">
        <ele>1593.52</ele>
        <time>2018-10-15T15:21:11Z</time>
      </trkpt>
      <trkpt lat="59.868144979700446" lon="7.083811992779374">
        <ele>1592.0799999999999</ele>
        <time>2018-10-15T15:21:14Z</time>
      </trkpt>
      <trkpt lat="59.868138022720814" lon="7.083840994164348">
        <ele>1591.5999999999999</ele>
        <time>2018-10-15T15:21:16Z</time>
      </trkpt>
      <trkpt lat="59.868085971102118" lon="7.083952976390719">
        <ele>1589.2</ele>
        <time>2018-10-15T15:21:24Z</time>
      </trkpt>
      <trkpt lat="59.868064010515809" lon="7.083992036059499">
        <ele>1587.75</ele>
        <time>2018-10-15T15:21:27Z</time>
      </trkpt>
      <trkpt lat="59.868052024394274" lon="7.084005028009415">
        <ele>1586.3099999999999</ele>
        <time>2018-10-15T15:21:30Z</time>
      </trkpt>
      <trkpt lat="59.868054036051035" lon="7.083999998867512">
        <ele>1586.3099999999999</ele>
        <time>2018-10-15T15:21:31Z</time>
      </trkpt>
      <trkpt lat="59.868016988039017" lon="7.084148023277521">
        <ele>1585.3499999999999</ele>
        <time>2018-10-15T15:21:39Z</time>
      </trkpt>
      <trkpt lat="59.868005001917481" lon="7.084156991913915">
        <ele>1584.8699999999999</ele>
        <time>2018-10-15T15:21:41Z</time>
      </trkpt>
      <trkpt lat="59.86793601885438" lon="7.084260005503893">
        <ele>1581.03</ele>
        <time>2018-10-15T15:21:51Z</time>
      </trkpt>
      <trkpt lat="59.867920009419322" lon="7.08425497636199">
        <ele>1579.5799999999999</ele>
        <time>2018-10-15T15:21:53Z</time>
      </trkpt>
      <trkpt lat="59.867897965013981" lon="7.084228992462158">
        <ele>1578.1400000000001</ele>
        <time>2018-10-15T15:21:57Z</time>
      </trkpt>
      <trkpt lat="59.867882961407304" lon="7.084249025210738">
        <ele>1578.1400000000001</ele>
        <time>2018-10-15T15:22:01Z</time>
      </trkpt>
      <trkpt lat="59.867826970294118" lon="7.084372993558645">
        <ele>1576.22</ele>
        <time>2018-10-15T15:22:09Z</time>
      </trkpt>
      <trkpt lat="59.867821019142866" lon="7.084392020478845">
        <ele>1575.26</ele>
        <time>2018-10-15T15:22:11Z</time>
      </trkpt>
      <trkpt lat="59.867757987231016" lon="7.084508026018739">
        <ele>1573.3299999999999</ele>
        <time>2018-10-15T15:22:18Z</time>
      </trkpt>
      <trkpt lat="59.867732003331184" lon="7.084459997713566">
        <ele>1572.3699999999999</ele>
        <time>2018-10-15T15:22:22Z</time>
      </trkpt>
      <trkpt lat="59.867705013602972" lon="7.084407024085522">
        <ele>1570.9300000000001</ele>
        <time>2018-10-15T15:22:27Z</time>
      </trkpt>
      <trkpt lat="59.867607029154897" lon="7.084288001060486">
        <ele>1569.49</ele>
        <time>2018-10-15T15:22:34Z</time>
      </trkpt>
      <trkpt lat="59.867599988356233" lon="7.084242990240455">
        <ele>1569.49</ele>
        <time>2018-10-15T15:22:36Z</time>
      </trkpt>
      <trkpt lat="59.867608034983277" lon="7.083925986662507">
        <ele>1568.05</ele>
        <time>2018-10-15T15:22:50Z</time>
      </trkpt>
      <trkpt lat="59.867566963657737" lon="7.083737980574369">
        <ele>1566.6099999999999</ele>
        <time>2018-10-15T15:22:59Z</time>
      </trkpt>
      <trkpt lat="59.867564029991627" lon="7.083728006109595">
        <ele>1566.6099999999999</ele>
        <time>2018-10-15T15:23:00Z</time>
      </trkpt>
      <trkpt lat="59.867512984201312" lon="7.083615018054843">
        <ele>1566.1199999999999</ele>
        <time>2018-10-15T15:23:09Z</time>
      </trkpt>
      <trkpt lat="59.867496974766254" lon="7.083476968109608">
        <ele>1565.6400000000001</ele>
        <time>2018-10-15T15:23:15Z</time>
      </trkpt>
      <trkpt lat="59.867494963109493" lon="7.08330798894167">
        <ele>1564.6800000000001</ele>
        <time>2018-10-15T15:23:22Z</time>
      </trkpt>
      <trkpt lat="59.867449030280113" lon="7.083198018372059">
        <ele>1564.2</ele>
        <time>2018-10-15T15:23:30Z</time>
      </trkpt>
      <trkpt lat="59.867436038330197" lon="7.083128029480577">
        <ele>1563.72</ele>
        <time>2018-10-15T15:23:34Z</time>
      </trkpt>
      <trkpt lat="59.867361020296812" lon="7.08304999396205">
        <ele>1562.76</ele>
        <time>2018-10-15T15:23:42Z</time>
      </trkpt>
      <trkpt lat="59.867244008928537" lon="7.082848995923996">
        <ele>1560.8399999999999</ele>
        <time>2018-10-15T15:23:52Z</time>
      </trkpt>
      <trkpt lat="59.867223976179957" lon="7.082798033952713">
        <ele>1560.8399999999999</ele>
        <time>2018-10-15T15:23:56Z</time>
      </trkpt>
      <trkpt lat="59.867174020037055" lon="7.082584965974093">
        <ele>1558.4300000000001</ele>
        <time>2018-10-15T15:24:07Z</time>
      </trkpt>
      <trkpt lat="59.867202015593648" lon="7.08244800567627">
        <ele>1556.99</ele>
        <time>2018-10-15T15:24:15Z</time>
      </trkpt>
      <trkpt lat="59.867194974794984" lon="7.082422021776438">
        <ele>1556.51</ele>
        <time>2018-10-15T15:24:18Z</time>
      </trkpt>
      <trkpt lat="59.867203021422029" lon="7.082189004868269">
        <ele>1556.03</ele>
        <time>2018-10-15T15:24:29Z</time>
      </trkpt>
      <trkpt lat="59.86716597341001" lon="7.08201901987195">
        <ele>1554.5899999999999</ele>
        <time>2018-10-15T15:24:39Z</time>
      </trkpt>
      <trkpt lat="59.867132026702166" lon="7.081965962424874">
        <ele>1553.1500000000001</ele>
        <time>2018-10-15T15:24:43Z</time>
      </trkpt>
      <trkpt lat="59.867064971476793" lon="7.081827996298671">
        <ele>1551.22</ele>
        <time>2018-10-15T15:24:52Z</time>
      </trkpt>
      <trkpt lat="59.867091039195657" lon="7.081602020189166">
        <ele>1549.3</ele>
        <time>2018-10-15T15:25:00Z</time>
      </trkpt>
      <trkpt lat="59.86701300367713" lon="7.08143899217248">
        <ele>1546.9000000000001</ele>
        <time>2018-10-15T15:25:07Z</time>
      </trkpt>
      <trkpt lat="59.86692700535059" lon="7.081335978582501">
        <ele>1544.98</ele>
        <time>2018-10-15T15:25:13Z</time>
      </trkpt>
      <trkpt lat="59.866934968158603" lon="7.081262972205877">
        <ele>1542.5699999999999</ele>
        <time>2018-10-15T15:29:13Z</time>
      </trkpt>
      <trkpt lat="59.866925999522209" lon="7.081229025498033">
        <ele>1542.0899999999999</ele>
        <time>2018-10-15T15:29:45Z</time>
      </trkpt>
      <trkpt lat="59.866910995915532" lon="7.081188037991524">
        <ele>1541.6099999999999</ele>
        <time>2018-10-15T15:29:49Z</time>
      </trkpt>
      <trkpt lat="59.866867996752262" lon="7.081197006627917">
        <ele>1539.6900000000001</ele>
        <time>2018-10-15T15:29:56Z</time>
      </trkpt>
      <trkpt lat="59.866855004802346" lon="7.081187032163143">
        <ele>1539.21</ele>
        <time>2018-10-15T15:29:58Z</time>
      </trkpt>
      <trkpt lat="59.866817034780979" lon="7.08115803077817">
        <ele>1537.77</ele>
        <time>2018-10-15T15:30:05Z</time>
      </trkpt>
      <trkpt lat="59.866750985383987" lon="7.081068009138107">
        <ele>1534.8800000000001</ele>
        <time>2018-10-15T15:30:16Z</time>
      </trkpt>
      <trkpt lat="59.86667001619935" lon="7.080961978062987">
        <ele>1531.52</ele>
        <time>2018-10-15T15:30:24Z</time>
      </trkpt>
      <trkpt lat="59.866640008985996" lon="7.080734996125102">
        <ele>1527.6700000000001</ele>
        <time>2018-10-15T15:30:34Z</time>
      </trkpt>
      <trkpt lat="59.866632968187332" lon="7.08070901222527">
        <ele>1527.6700000000001</ele>
        <time>2018-10-15T15:30:35Z</time>
      </trkpt>
      <trkpt lat="59.866607990115881" lon="7.08064598031342">
        <ele>1526.71</ele>
        <time>2018-10-15T15:30:38Z</time>
      </trkpt>
      <trkpt lat="59.866545964032412" lon="7.08047398366034">
        <ele>1523.3499999999999</ele>
        <time>2018-10-15T15:30:48Z</time>
      </trkpt>
      <trkpt lat="59.866447979584336" lon="7.08030198700726">
        <ele>1520.46</ele>
        <time>2018-10-15T15:30:57Z</time>
      </trkpt>
      <trkpt lat="59.866382014006376" lon="7.080124039202929">
        <ele>1516.6199999999999</ele>
        <time>2018-10-15T15:31:07Z</time>
      </trkpt>
      <trkpt lat="59.866338009014726" lon="7.080055978149176">
        <ele>1514.6900000000001</ele>
        <time>2018-10-15T15:31:12Z</time>
      </trkpt>
      <trkpt lat="59.866271037608385" lon="7.079966040328145">
        <ele>1512.29</ele>
        <time>2018-10-15T15:31:19Z</time>
      </trkpt>
      <trkpt lat="59.866268020123243" lon="7.079951036721468">
        <ele>1511.3299999999999</ele>
        <time>2018-10-15T15:31:20Z</time>
      </trkpt>
      <trkpt lat="59.866184033453465" lon="7.079826984554529">
        <ele>1508.45</ele>
        <time>2018-10-15T15:31:28Z</time>
      </trkpt>
      <trkpt lat="59.866126030683517" lon="7.079701004549861">
        <ele>1505.5599999999999</ele>
        <time>2018-10-15T15:31:35Z</time>
      </trkpt>
      <trkpt lat="59.866084037348628" lon="7.079647025093436">
        <ele>1503.1600000000001</ele>
        <time>2018-10-15T15:31:44Z</time>
      </trkpt>
      <trkpt lat="59.866082025691867" lon="7.079458013176918">
        <ele>1502.2</ele>
        <time>2018-10-15T15:31:54Z</time>
      </trkpt>
      <trkpt lat="59.866072973236442" lon="7.079275036230683">
        <ele>1501.24</ele>
        <time>2018-10-15T15:32:04Z</time>
      </trkpt>
      <trkpt lat="59.866023017093539" lon="7.079251985996962">
        <ele>1497.8699999999999</ele>
        <time>2018-10-15T15:32:11Z</time>
      </trkpt>
      <trkpt lat="59.866014970466495" lon="7.079241005703807">
        <ele>1497.8699999999999</ele>
        <time>2018-10-15T15:32:12Z</time>
      </trkpt>
      <trkpt lat="59.86600399017334" lon="7.079218961298466">
        <ele>1496.4300000000001</ele>
        <time>2018-10-15T15:32:14Z</time>
      </trkpt>
      <trkpt lat="59.865987980738282" lon="7.079174034297466">
        <ele>1495.95</ele>
        <time>2018-10-15T15:32:16Z</time>
      </trkpt>
      <trkpt lat="59.865969959646463" lon="7.079104967415333">
        <ele>1494.51</ele>
        <time>2018-10-15T15:32:19Z</time>
      </trkpt>
      <trkpt lat="59.865848002955317" lon="7.079004971310496">
        <ele>1490.6600000000001</ele>
        <time>2018-10-15T15:32:28Z</time>
      </trkpt>
      <trkpt lat="59.865763010457158" lon="7.078973958268762">
        <ele>1487.78</ele>
        <time>2018-10-15T15:32:36Z</time>
      </trkpt>
      <trkpt lat="59.865706013515592" lon="7.079050987958908">
        <ele>1485.3699999999999</ele>
        <time>2018-10-15T15:32:42Z</time>
      </trkpt>
      <trkpt lat="59.865645999088883" lon="7.079066997393966">
        <ele>1483.45</ele>
        <time>2018-10-15T15:32:47Z</time>
      </trkpt>
      <trkpt lat="59.865657985210419" lon="7.079085018485785">
        <ele>1482.01</ele>
        <time>2018-10-15T15:32:54Z</time>
      </trkpt>
      <trkpt lat="59.865632001310587" lon="7.079059034585953">
        <ele>1480.0899999999999</ele>
        <time>2018-10-15T15:33:00Z</time>
      </trkpt>
      <trkpt lat="59.86559797078371" lon="7.079049982130528">
        <ele>1477.2</ele>
        <time>2018-10-15T15:33:07Z</time>
      </trkpt>
      <trkpt lat="59.865567041561007" lon="7.079008994624019">
        <ele>1475.28</ele>
        <time>2018-10-15T15:33:17Z</time>
      </trkpt>
      <trkpt lat="59.865562012419105" lon="7.079023998230696">
        <ele>1474.3199999999999</ele>
        <time>2018-10-15T15:33:20Z</time>
      </trkpt>
      <trkpt lat="59.865503003820777" lon="7.079021986573935">
        <ele>1471.4400000000001</ele>
        <time>2018-10-15T15:33:30Z</time>
      </trkpt>
      <trkpt lat="59.865480037406087" lon="7.079061968252063">
        <ele>1469.03</ele>
        <time>2018-10-15T15:33:40Z</time>
      </trkpt>
      <trkpt lat="59.865451036021113" lon="7.079025004059076">
        <ele>1467.5899999999999</ele>
        <time>2018-10-15T15:33:52Z</time>
      </trkpt>
      <trkpt lat="59.865442989394069" lon="7.079002037644386">
        <ele>1466.1500000000001</ele>
        <time>2018-10-15T15:34:01Z</time>
      </trkpt>
      <trkpt lat="59.865440977737308" lon="7.078978987410665">
        <ele>1466.1500000000001</ele>
        <time>2018-10-15T15:34:14Z</time>
      </trkpt>
      <trkpt lat="59.865447012707591" lon="7.078977981582284">
        <ele>1466.1500000000001</ele>
        <time>2018-10-15T15:34:33Z</time>
      </trkpt>
      <trkpt lat="59.865419017150998" lon="7.078954009339213">
        <ele>1464.23</ele>
        <time>2018-10-15T15:35:04Z</time>
      </trkpt>
      <trkpt lat="59.865389009937644" lon="7.078918972983956">
        <ele>1461.3399999999999</ele>
        <time>2018-10-15T15:35:14Z</time>
      </trkpt>
      <trkpt lat="59.8653170093894" lon="7.078900029882789">
        <ele>1458.9400000000001</ele>
        <time>2018-10-15T15:35:21Z</time>
      </trkpt>
      <trkpt lat="59.865300999954343" lon="7.078879997134209">
        <ele>1458.46</ele>
        <time>2018-10-15T15:35:23Z</time>
      </trkpt>
      <trkpt lat="59.865279961377382" lon="7.078872034326196">
        <ele>1456.53</ele>
        <time>2018-10-15T15:35:29Z</time>
      </trkpt>
      <trkpt lat="59.865219024941325" lon="7.078891983255744">
        <ele>1453.1700000000001</ele>
        <time>2018-10-15T15:35:38Z</time>
      </trkpt>
      <trkpt lat="59.865197986364365" lon="7.078858036547899">
        <ele>1452.21</ele>
        <time>2018-10-15T15:35:43Z</time>
      </trkpt>
      <trkpt lat="59.865192035213113" lon="7.078798022121191">
        <ele>1451.25</ele>
        <time>2018-10-15T15:35:47Z</time>
      </trkpt>
      <trkpt lat="59.865163033828139" lon="7.078772038221359">
        <ele>1448.8399999999999</ele>
        <time>2018-10-15T15:35:52Z</time>
      </trkpt>
      <trkpt lat="59.865113999694586" lon="7.07877597771585">
        <ele>1445.96</ele>
        <time>2018-10-15T15:36:01Z</time>
      </trkpt>
      <trkpt lat="59.865093966946006" lon="7.078762985765934">
        <ele>1443.5599999999999</ele>
        <time>2018-10-15T15:36:12Z</time>
      </trkpt>
      <trkpt lat="59.865078963339329" lon="7.078735996037722">
        <ele>1442.1099999999999</ele>
        <time>2018-10-15T15:36:24Z</time>
      </trkpt>
      <trkpt lat="59.86508097499609" lon="7.078709006309509">
        <ele>1442.1099999999999</ele>
        <time>2018-10-15T15:36:33Z</time>
      </trkpt>
      <trkpt lat="59.86508097499609" lon="7.078709006309509">
        <ele>1442.1099999999999</ele>
        <time>2018-10-15T15:36:36Z</time>
      </trkpt>
      <trkpt lat="59.865090027451515" lon="7.078657960519195">
        <ele>1441.1500000000001</ele>
        <time>2018-10-15T15:36:45Z</time>
      </trkpt>
      <trkpt lat="59.865072006359696" lon="7.078639017418027">
        <ele>1440.1900000000001</ele>
        <time>2018-10-15T15:36:59Z</time>
      </trkpt>
      <trkpt lat="59.865061026066542" lon="7.078596018254757">
        <ele>1439.71</ele>
        <time>2018-10-15T15:37:04Z</time>
      </trkpt>
      <trkpt lat="59.864971004426479" lon="7.078514965251088">
        <ele>1438.75</ele>
        <time>2018-10-15T15:37:16Z</time>
      </trkpt>
      <trkpt lat="59.864937979727983" lon="7.078508008271456">
        <ele>1437.79</ele>
        <time>2018-10-15T15:37:20Z</time>
      </trkpt>
      <trkpt lat="59.864848041906953" lon="7.078493004664779">
        <ele>1436.3499999999999</ele>
        <time>2018-10-15T15:37:28Z</time>
      </trkpt>
      <trkpt lat="59.864794984459877" lon="7.078600963577628">
        <ele>1432.98</ele>
        <time>2018-10-15T15:37:38Z</time>
      </trkpt>
      <trkpt lat="59.864814011380076" lon="7.078673969954252">
        <ele>1430.5799999999999</ele>
        <time>2018-10-15T15:37:52Z</time>
      </trkpt>
      <trkpt lat="59.864824991673231" lon="7.078729039058089">
        <ele>1429.1400000000001</ele>
        <time>2018-10-15T15:38:07Z</time>
      </trkpt>
      <trkpt lat="59.864848041906953" lon="7.078784024342895">
        <ele>1425.77</ele>
        <time>2018-10-15T15:38:16Z</time>
      </trkpt>
      <trkpt lat="59.864874025806785" lon="7.078887037932873">
        <ele>1423.8499999999999</ele>
        <time>2018-10-15T15:38:25Z</time>
      </trkpt>
      <trkpt lat="59.864817028865218" lon="7.079023998230696">
        <ele>1421.9300000000001</ele>
        <time>2018-10-15T15:38:35Z</time>
      </trkpt>
      <trkpt lat="59.864832032471895" lon="7.079069009050727">
        <ele>1420.49</ele>
        <time>2018-10-15T15:38:44Z</time>
      </trkpt>
      <trkpt lat="59.864831026643515" lon="7.079164981842041">
        <ele>1420</ele>
        <time>2018-10-15T15:38:50Z</time>
      </trkpt>
      <trkpt lat="59.864827003329992" lon="7.079336978495121">
        <ele>1417.5999999999999</ele>
        <time>2018-10-15T15:39:03Z</time>
      </trkpt>
      <trkpt lat="59.864808982238173" lon="7.079391963779926">
        <ele>1414.24</ele>
        <time>2018-10-15T15:39:13Z</time>
      </trkpt>
      <trkpt lat="59.864806970581412" lon="7.079480979591608">
        <ele>1413.28</ele>
        <time>2018-10-15T15:39:24Z</time>
      </trkpt>
      <trkpt lat="59.864766988903284" lon="7.079555997624993">
        <ele>1410.8699999999999</ele>
        <time>2018-10-15T15:39:33Z</time>
      </trkpt>
      <trkpt lat="59.864699011668563" lon="7.079536970704794">
        <ele>1407.51</ele>
        <time>2018-10-15T15:39:41Z</time>
      </trkpt>
      <trkpt lat="59.864695994183421" lon="7.079475028440356">
        <ele>1406.55</ele>
        <time>2018-10-15T15:39:46Z</time>
      </trkpt>
      <trkpt lat="59.864635979756713" lon="7.079514004290104">
        <ele>1404.6199999999999</ele>
        <time>2018-10-15T15:39:52Z</time>
      </trkpt>
      <trkpt lat="59.864612007513642" lon="7.079558009281755">
        <ele>1402.22</ele>
        <time>2018-10-15T15:40:01Z</time>
      </trkpt>
      <trkpt lat="59.864615024998784" lon="7.07955096848309">
        <ele>1402.22</ele>
        <time>2018-10-15T15:40:07Z</time>
      </trkpt>
      <trkpt lat="59.864641008898616" lon="7.079458013176918">
        <ele>1402.7</ele>
        <time>2018-10-15T15:40:17Z</time>
      </trkpt>
      <trkpt lat="59.864613013342023" lon="7.07946203649044">
        <ele>1400.78</ele>
        <time>2018-10-15T15:40:25Z</time>
      </trkpt>
      <trkpt lat="59.86458501778543" lon="7.079495983198285">
        <ele>1399.3399999999999</ele>
        <time>2018-10-15T15:40:29Z</time>
      </trkpt>
      <trkpt lat="59.86460798420012" lon="7.07957100123167">
        <ele>1397.4100000000001</ele>
        <time>2018-10-15T15:40:39Z</time>
      </trkpt>
      <trkpt lat="59.864589041098952" lon="7.079506041482091">
        <ele>1397.4100000000001</ele>
        <time>2018-10-15T15:40:55Z</time>
      </trkpt>
      <trkpt lat="59.864577976986766" lon="7.079370003193617">
        <ele>1397.4100000000001</ele>
        <time>2018-10-15T15:41:04Z</time>
      </trkpt>
      <trkpt lat="59.864560039713979" lon="7.079353993758559">
        <ele>1396.9300000000001</ele>
        <time>2018-10-15T15:41:08Z</time>
      </trkpt>
      <trkpt lat="59.864527015015483" lon="7.079392969608307">
        <ele>1395.49</ele>
        <time>2018-10-15T15:41:13Z</time>
      </trkpt>
      <trkpt lat="59.864472029730678" lon="7.079400010406971">
        <ele>1391.6500000000001</ele>
        <time>2018-10-15T15:41:25Z</time>
      </trkpt>
      <trkpt lat="59.864474041387439" lon="7.079405961558223">
        <ele>1388.76</ele>
        <time>2018-10-15T15:41:44Z</time>
      </trkpt>
      <trkpt lat="59.864461971446872" lon="7.07946203649044">
        <ele>1388.28</ele>
        <time>2018-10-15T15:41:59Z</time>
      </trkpt>
      <trkpt lat="59.864443028345704" lon="7.079539988189936">
        <ele>1384.9200000000001</ele>
        <time>2018-10-15T15:42:08Z</time>
      </trkpt>
      <trkpt lat="59.864425007253885" lon="7.079643001779914">
        <ele>1382.51</ele>
        <time>2018-10-15T15:42:20Z</time>
      </trkpt>
      <trkpt lat="59.864415032789111" lon="7.079688012599945">
        <ele>1381.55</ele>
        <time>2018-10-15T15:42:23Z</time>
      </trkpt>
      <trkpt lat="59.864378990605474" lon="7.079756995663047">
        <ele>1379.6300000000001</ele>
        <time>2018-10-15T15:42:27Z</time>
      </trkpt>
      <trkpt lat="59.864341020584106" lon="7.079770993441343">
        <ele>1377.71</ele>
        <time>2018-10-15T15:42:31Z</time>
      </trkpt>
      <trkpt lat="59.864320987835526" lon="7.079759007319808">
        <ele>1375.78</ele>
        <time>2018-10-15T15:42:34Z</time>
      </trkpt>
      <trkpt lat="59.864288968965411" lon="7.079749032855034">
        <ele>1374.3399999999999</ele>
        <time>2018-10-15T15:42:37Z</time>
      </trkpt>
      <trkpt lat="59.864267008379102" lon="7.079701004549861">
        <ele>1372.9000000000001</ele>
        <time>2018-10-15T15:42:40Z</time>
      </trkpt>
      <trkpt lat="59.864254016429186" lon="7.07967703230679">
        <ele>1371.9400000000001</ele>
        <time>2018-10-15T15:42:42Z</time>
      </trkpt>
      <trkpt lat="59.864242030307651" lon="7.079646019265056">
        <ele>1370.98</ele>
        <time>2018-10-15T15:42:44Z</time>
      </trkpt>
      <trkpt lat="59.864213028922677" lon="7.079668985679746">
        <ele>1368.0899999999999</ele>
        <time>2018-10-15T15:42:55Z</time>
      </trkpt>
      <trkpt lat="59.864203976467252" lon="7.079692035913467">
        <ele>1366.6500000000001</ele>
        <time>2018-10-15T15:43:06Z</time>
      </trkpt>
      <trkpt lat="59.864194002002478" lon="7.079697987064719">
        <ele>1366.1700000000001</ele>
        <time>2018-10-15T15:43:08Z</time>
      </trkpt>
      <trkpt lat="59.864161983132362" lon="7.079759007319808">
        <ele>1363.29</ele>
        <time>2018-10-15T15:43:15Z</time>
      </trkpt>
      <trkpt lat="59.864159971475601" lon="7.079832013696432">
        <ele>1360.8800000000001</ele>
        <time>2018-10-15T15:43:23Z</time>
      </trkpt>
      <trkpt lat="59.864146979525685" lon="7.07985196262598">
        <ele>1359.4400000000001</ele>
        <time>2018-10-15T15:43:31Z</time>
      </trkpt>
      <trkpt lat="59.864145973697305" lon="7.079869983717799">
        <ele>1358.96</ele>
        <time>2018-10-15T15:43:32Z</time>
      </trkpt>
      <trkpt lat="59.864138010889292" lon="7.079940978437662">
        <ele>1358</ele>
        <time>2018-10-15T15:43:46Z</time>
      </trkpt>
      <trkpt lat="59.864102974534035" lon="7.079921029508114">
        <ele>1357.04</ele>
        <time>2018-10-15T15:43:51Z</time>
      </trkpt>
      <trkpt lat="59.864042960107327" lon="7.079995963722467">
        <ele>1353.1900000000001</ele>
        <time>2018-10-15T15:44:02Z</time>
      </trkpt>
      <trkpt lat="59.86404899507761" lon="7.080009039491415">
        <ele>1352.71</ele>
        <time>2018-10-15T15:44:04Z</time>
      </trkpt>
      <trkpt lat="59.86400599591434" lon="7.080165026709437">
        <ele>1349.8299999999999</ele>
        <time>2018-10-15T15:44:14Z</time>
      </trkpt>
      <trkpt lat="59.863970037549734" lon="7.080396031960845">
        <ele>1345.98</ele>
        <time>2018-10-15T15:44:23Z</time>
      </trkpt>
      <trkpt lat="59.863927038386464" lon="7.080527041107416">
        <ele>1344.0599999999999</ele>
        <time>2018-10-15T15:44:32Z</time>
      </trkpt>
      <trkpt lat="59.863927960395813" lon="7.080532992258668">
        <ele>1344.0599999999999</ele>
        <time>2018-10-15T15:44:38Z</time>
      </trkpt>
      <trkpt lat="59.863907005637884" lon="7.080549001693726">
        <ele>1344.0599999999999</ele>
        <time>2018-10-15T15:44:40Z</time>
      </trkpt>
      <trkpt lat="59.863794017583132" lon="7.080609016120434">
        <ele>1341.1800000000001</ele>
        <time>2018-10-15T15:44:49Z</time>
      </trkpt>
      <trkpt lat="59.863739032298326" lon="7.080766009166837">
        <ele>1339.25</ele>
        <time>2018-10-15T15:44:56Z</time>
      </trkpt>
      <trkpt lat="59.863743977621198" lon="7.080783024430275">
        <ele>1338.77</ele>
        <time>2018-10-15T15:44:57Z</time>
      </trkpt>
      <trkpt lat="59.863722017034888" lon="7.081090975552797">
        <ele>1335.8900000000001</ele>
        <time>2018-10-15T15:45:06Z</time>
      </trkpt>
      <trkpt lat="59.863645993173122" lon="7.081257021054626">
        <ele>1333.97</ele>
        <time>2018-10-15T15:45:12Z</time>
      </trkpt>
      <trkpt lat="59.863599976524711" lon="7.081428011879325">
        <ele>1331.0799999999999</ele>
        <time>2018-10-15T15:45:18Z</time>
      </trkpt>
      <trkpt lat="59.863561000674963" lon="7.081508981063962">
        <ele>1328.6800000000001</ele>
        <time>2018-10-15T15:45:24Z</time>
      </trkpt>
      <trkpt lat="59.863494029268622" lon="7.081582993268967">
        <ele>1326.76</ele>
        <time>2018-10-15T15:45:33Z</time>
      </trkpt>
      <trkpt lat="59.863486988469958" lon="7.08161098882556">
        <ele>1325.8</ele>
        <time>2018-10-15T15:45:34Z</time>
      </trkpt>
      <trkpt lat="59.863475002348423" lon="7.081642001867294">
        <ele>1325.3099999999999</ele>
        <time>2018-10-15T15:45:36Z</time>
      </trkpt>
      <trkpt lat="59.863454969599843" lon="7.081716014072299">
        <ele>1323.3900000000001</ele>
        <time>2018-10-15T15:45:39Z</time>
      </trkpt>
      <trkpt lat="59.863409036770463" lon="7.081812992691994">
        <ele>1321.47</ele>
        <time>2018-10-15T15:45:43Z</time>
      </trkpt>
      <trkpt lat="59.863380035385489" lon="7.081928998231888">
        <ele>1318.0999999999999</ele>
        <time>2018-10-15T15:45:51Z</time>
      </trkpt>
      <trkpt lat="59.863389004021883" lon="7.082025976851583">
        <ele>1317.6199999999999</ele>
        <time>2018-10-15T15:45:55Z</time>
      </trkpt>
      <trkpt lat="59.863264029845595" lon="7.081964034587145">
        <ele>1315.22</ele>
        <time>2018-10-15T15:46:03Z</time>
      </trkpt>
      <trkpt lat="59.863217007368803" lon="7.081950958818197">
        <ele>1313.3</ele>
        <time>2018-10-15T15:46:06Z</time>
      </trkpt>
      <trkpt lat="59.863195968791842" lon="7.08199798129499">
        <ele>1312.3399999999999</ele>
        <time>2018-10-15T15:46:09Z</time>
      </trkpt>
      <trkpt lat="59.863138971850276" lon="7.082124967128038">
        <ele>1309.9300000000001</ele>
        <time>2018-10-15T15:46:16Z</time>
      </trkpt>
      <trkpt lat="59.86310301348567" lon="7.082077022641897">
        <ele>1306.5699999999999</ele>
        <time>2018-10-15T15:46:25Z</time>
      </trkpt>
      <trkpt lat="59.863095972687006" lon="7.082068976014853">
        <ele>1306.0899999999999</ele>
        <time>2018-10-15T15:46:26Z</time>
      </trkpt>
      <trkpt lat="59.863001005724072" lon="7.082093032076955">
        <ele>1303.2</ele>
        <time>2018-10-15T15:46:33Z</time>
      </trkpt>
      <trkpt lat="59.862954989075661" lon="7.082162015140057">
        <ele>1301.28</ele>
        <time>2018-10-15T15:46:36Z</time>
      </trkpt>
      <trkpt lat="59.862906038761139" lon="7.082155980169773">
        <ele>1298.8800000000001</ele>
        <time>2018-10-15T15:46:40Z</time>
      </trkpt>
      <trkpt lat="59.862840995192528" lon="7.08214801736176">
        <ele>1297.4400000000001</ele>
        <time>2018-10-15T15:46:43Z</time>
      </trkpt>
      <trkpt lat="59.862783998250961" lon="7.082243990153074">
        <ele>1294.0699999999999</ele>
        <time>2018-10-15T15:46:51Z</time>
      </trkpt>
      <trkpt lat="59.862709986045957" lon="7.082314984872937">
        <ele>1291.1900000000001</ele>
        <time>2018-10-15T15:46:59Z</time>
      </trkpt>
      <trkpt lat="59.862666986882687" lon="7.082401989027858">
        <ele>1290.23</ele>
        <time>2018-10-15T15:47:03Z</time>
      </trkpt>
      <trkpt lat="59.862549975514412" lon="7.082332000136375">
        <ele>1287.3399999999999</ele>
        <time>2018-10-15T15:47:10Z</time>
      </trkpt>
      <trkpt lat="59.862526003271341" lon="7.082349015399814">
        <ele>1287.3399999999999</ele>
        <time>2018-10-15T15:47:11Z</time>
      </trkpt>
      <trkpt lat="59.862464983016253" lon="7.08240601234138">
        <ele>1285.4200000000001</ele>
        <time>2018-10-15T15:47:15Z</time>
      </trkpt>
      <trkpt lat="59.86235098913312" lon="7.082579014822841">
        <ele>1282.0599999999999</ele>
        <time>2018-10-15T15:47:23Z</time>
      </trkpt>
      <trkpt lat="59.862335985526443" lon="7.082584965974093">
        <ele>1281.0899999999999</ele>
        <time>2018-10-15T15:47:25Z</time>
      </trkpt>
      <trkpt lat="59.862319976091385" lon="7.082665013149381">
        <ele>1279.1700000000001</ele>
        <time>2018-10-15T15:47:28Z</time>
      </trkpt>
      <trkpt lat="59.862301032990217" lon="7.082774983718991">
        <ele>1277.25</ele>
        <time>2018-10-15T15:47:31Z</time>
      </trkpt>
      <trkpt lat="59.86226499080658" lon="7.082800967618823">
        <ele>1275.8099999999999</ele>
        <time>2018-10-15T15:47:34Z</time>
      </trkpt>
      <trkpt lat="59.862218974158168" lon="7.082848995923996">
        <ele>1273.8800000000001</ele>
        <time>2018-10-15T15:47:37Z</time>
      </trkpt>
      <trkpt lat="59.862171029672027" lon="7.08289803005755">
        <ele>1270.52</ele>
        <time>2018-10-15T15:47:40Z</time>
      </trkpt>
      <trkpt lat="59.86215895973146" lon="7.082914961501956">
        <ele>1270.52</ele>
        <time>2018-10-15T15:47:41Z</time>
      </trkpt>
      <trkpt lat="59.86213599331677" lon="7.082957960665226">
        <ele>1268.5999999999999</ele>
        <time>2018-10-15T15:47:44Z</time>
      </trkpt>
      <trkpt lat="59.862142028287053" lon="7.082982016727328">
        <ele>1266.6700000000001</ele>
        <time>2018-10-15T15:47:47Z</time>
      </trkpt>
      <trkpt lat="59.862141022458673" lon="7.082991991192102">
        <ele>1265.23</ele>
        <time>2018-10-15T15:47:49Z</time>
      </trkpt>
      <trkpt lat="59.862126018851995" lon="7.08303096704185">
        <ele>1264.27</ele>
        <time>2018-10-15T15:47:51Z</time>
      </trkpt>
      <trkpt lat="59.862076984718442" lon="7.083058962598443">
        <ele>1261.8699999999999</ele>
        <time>2018-10-15T15:47:58Z</time>
      </trkpt>
      <trkpt lat="59.86207103356719" lon="7.083064997568727">
        <ele>1261.8699999999999</ele>
        <time>2018-10-15T15:47:59Z</time>
      </trkpt>
      <trkpt lat="59.862000960856676" lon="7.083214027807117">
        <ele>1261.3900000000001</ele>
        <time>2018-10-15T15:48:06Z</time>
      </trkpt>
      <trkpt lat="59.862003978341818" lon="7.083471016958356">
        <ele>1258.98</ele>
        <time>2018-10-15T15:48:12Z</time>
      </trkpt>
      <trkpt lat="59.862017976120114" lon="7.083639996126294">
        <ele>1257.0599999999999</ele>
        <time>2018-10-15T15:48:15Z</time>
      </trkpt>
      <trkpt lat="59.861923009157181" lon="7.083946019411087">
        <ele>1255.6199999999999</ele>
        <time>2018-10-15T15:48:23Z</time>
      </trkpt>
      <trkpt lat="59.861951004713774" lon="7.084208959713578">
        <ele>1254.6600000000001</ele>
        <time>2018-10-15T15:48:33Z</time>
      </trkpt>
      <trkpt lat="59.861952010542154" lon="7.084367964416742">
        <ele>1254.1800000000001</ele>
        <time>2018-10-15T15:48:40Z</time>
      </trkpt>
      <trkpt lat="59.862014958634973" lon="7.084531998261809">
        <ele>1252.25</ele>
        <time>2018-10-15T15:48:49Z</time>
      </trkpt>
      <trkpt lat="59.862005989998579" lon="7.084554964676499">
        <ele>1252.25</ele>
        <time>2018-10-15T15:48:50Z</time>
      </trkpt>
      <trkpt lat="59.86196500249207" lon="7.084606010466814">
        <ele>1250.8099999999999</ele>
        <time>2018-10-15T15:48:53Z</time>
      </trkpt>
      <trkpt lat="59.861936001107097" lon="7.084664013236761">
        <ele>1249.3699999999999</ele>
        <time>2018-10-15T15:48:56Z</time>
      </trkpt>
      <trkpt lat="59.861918985843658" lon="7.084749005734921">
        <ele>1247.45</ele>
        <time>2018-10-15T15:49:00Z</time>
      </trkpt>
      <trkpt lat="59.861903982236981" lon="7.084787981584668">
        <ele>1246.97</ele>
        <time>2018-10-15T15:49:01Z</time>
      </trkpt>
      <trkpt lat="59.861876992508769" lon="7.084841039031744">
        <ele>1246.01</ele>
        <time>2018-10-15T15:49:03Z</time>
      </trkpt>
      <trkpt lat="59.86177196726203" lon="7.084935000166297">
        <ele>1243.1199999999999</ele>
        <time>2018-10-15T15:49:09Z</time>
      </trkpt>
      <trkpt lat="59.861709019169211" lon="7.085074977949262">
        <ele>1241.6800000000001</ele>
        <time>2018-10-15T15:49:13Z</time>
      </trkpt>
      <trkpt lat="59.86168303526938" lon="7.085124012082815">
        <ele>1240.72</ele>
        <time>2018-10-15T15:49:16Z</time>
      </trkpt>
      <trkpt lat="59.861638024449348" lon="7.085143039003015">
        <ele>1238.3199999999999</ele>
        <time>2018-10-15T15:49:20Z</time>
      </trkpt>
      <trkpt lat="59.861567029729486" lon="7.085161982104182">
        <ele>1235.4300000000001</ele>
        <time>2018-10-15T15:49:28Z</time>
      </trkpt>
      <trkpt lat="59.861529981717467" lon="7.085126023739576">
        <ele>1234.47</ele>
        <time>2018-10-15T15:49:34Z</time>
      </trkpt>
      <trkpt lat="59.861469967290759" lon="7.085139015689492">
        <ele>1232.55</ele>
        <time>2018-10-15T15:49:38Z</time>
      </trkpt>
      <trkpt lat="59.861451024189591" lon="7.085202969610691">
        <ele>1230.1400000000001</ele>
        <time>2018-10-15T15:49:44Z</time>
      </trkpt>
      <trkpt lat="59.861452030017972" lon="7.08522099070251">
        <ele>1229.1800000000001</ele>
        <time>2018-10-15T15:49:45Z</time>
      </trkpt>
      <trkpt lat="59.861453035846353" lon="7.085257032886148">
        <ele>1228.22</ele>
        <time>2018-10-15T15:49:47Z</time>
      </trkpt>
      <trkpt lat="59.861445995047688" lon="7.085311012342572">
        <ele>1226.78</ele>
        <time>2018-10-15T15:49:50Z</time>
      </trkpt>
      <trkpt lat="59.861407019197941" lon="7.08532802760601">
        <ele>1224.3800000000001</ele>
        <time>2018-10-15T15:49:56Z</time>
      </trkpt>
      <trkpt lat="59.861333006992936" lon="7.085278993472457">
        <ele>1220.53</ele>
        <time>2018-10-15T15:50:04Z</time>
      </trkpt>
      <trkpt lat="59.861334012821317" lon="7.085275975987315">
        <ele>1220.53</ele>
        <time>2018-10-15T15:50:05Z</time>
      </trkpt>
      <trkpt lat="59.861327977851033" lon="7.085279999300838">
        <ele>1220.05</ele>
        <time>2018-10-15T15:50:06Z</time>
      </trkpt>
      <trkpt lat="59.861271986737847" lon="7.085332972928882">
        <ele>1218.1300000000001</ele>
        <time>2018-10-15T15:50:09Z</time>
      </trkpt>
      <trkpt lat="59.861263018101454" lon="7.085507987067103">
        <ele>1216.21</ele>
        <time>2018-10-15T15:50:12Z</time>
      </trkpt>
      <trkpt lat="59.861219013109803" lon="7.085644025355578">
        <ele>1214.28</ele>
        <time>2018-10-15T15:50:15Z</time>
      </trkpt>
      <trkpt lat="59.861121028661728" lon="7.085891040042043">
        <ele>1212.8399999999999</ele>
        <time>2018-10-15T15:50:22Z</time>
      </trkpt>
      <trkpt lat="59.861004017293453" lon="7.086109975352883">
        <ele>1212.3599999999999</ele>
        <time>2018-10-15T15:50:28Z</time>
      </trkpt>
      <trkpt lat="59.860905027016997" lon="7.086417004466057">
        <ele>1211.4000000000001</ele>
        <time>2018-10-15T15:50:36Z</time>
      </trkpt>
      <trkpt lat="59.860852975398302" lon="7.086624037474394">
        <ele>1209.96</ele>
        <time>2018-10-15T15:50:43Z</time>
      </trkpt>
      <trkpt lat="59.860821040347219" lon="7.086826963350177">
        <ele>1209</ele>
        <time>2018-10-15T15:50:49Z</time>
      </trkpt>
      <trkpt lat="59.860792038962245" lon="7.087138015776873">
        <ele>1207.0699999999999</ele>
        <time>2018-10-15T15:50:56Z</time>
      </trkpt>
      <trkpt lat="59.860733030363917" lon="7.087792977690697">
        <ele>1204.6700000000001</ele>
        <time>2018-10-15T15:51:09Z</time>
      </trkpt>
      <trkpt lat="59.860661029815674" lon="7.088191034272313">
        <ele>1203.23</ele>
        <time>2018-10-15T15:51:18Z</time>
      </trkpt>
      <trkpt lat="59.860561033710837" lon="7.088531004264951">
        <ele>1201.3</ele>
        <time>2018-10-15T15:51:26Z</time>
      </trkpt>
      <trkpt lat="59.860470006242394" lon="7.088792016729713">
        <ele>1199.3800000000001</ele>
        <time>2018-10-15T15:51:33Z</time>
      </trkpt>
      <trkpt lat="59.860363975167274" lon="7.089085970073938">
        <ele>1197.9400000000001</ele>
        <time>2018-10-15T15:51:42Z</time>
      </trkpt>
      <trkpt lat="59.860298009589314" lon="7.089315969496965">
        <ele>1196.02</ele>
        <time>2018-10-15T15:51:47Z</time>
      </trkpt>
      <trkpt lat="59.860246963799" lon="7.089559966698289">
        <ele>1192.6500000000001</ele>
        <time>2018-10-15T15:51:53Z</time>
      </trkpt>
      <trkpt lat="59.860151996836066" lon="7.089875964447856">
        <ele>1191.21</ele>
        <time>2018-10-15T15:52:00Z</time>
      </trkpt>
      <trkpt lat="59.86022500321269" lon="7.09012096747756">
        <ele>1190.25</ele>
        <time>2018-10-15T15:52:07Z</time>
      </trkpt>
      <trkpt lat="59.860197007656097" lon="7.090410981327295">
        <ele>1190.25</ele>
        <time>2018-10-15T15:52:13Z</time>
      </trkpt>
      <trkpt lat="59.860174041241407" lon="7.090627988800407">
        <ele>1189.77</ele>
        <time>2018-10-15T15:52:18Z</time>
      </trkpt>
      <trkpt lat="59.86020497046411" lon="7.090908028185368">
        <ele>1189.29</ele>
        <time>2018-10-15T15:52:23Z</time>
      </trkpt>
      <trkpt lat="59.860213017091155" lon="7.091196030378342">
        <ele>1188.8099999999999</ele>
        <time>2018-10-15T15:52:29Z</time>
      </trkpt>
      <trkpt lat="59.86024403013289" lon="7.091526025906205">
        <ele>1187.8499999999999</ele>
        <time>2018-10-15T15:52:37Z</time>
      </trkpt>
      <trkpt lat="59.86020396463573" lon="7.091734986752272">
        <ele>1186.4000000000001</ele>
        <time>2018-10-15T15:52:43Z</time>
      </trkpt>
      <trkpt lat="59.860175969079137" lon="7.091905977576971">
        <ele>1185.4400000000001</ele>
        <time>2018-10-15T15:52:47Z</time>
      </trkpt>
      <trkpt lat="59.86020497046411" lon="7.092185011133552">
        <ele>1184</ele>
        <time>2018-10-15T15:52:53Z</time>
      </trkpt>
      <trkpt lat="59.860199019312859" lon="7.092558005824685">
        <ele>1183.52</ele>
        <time>2018-10-15T15:53:02Z</time>
      </trkpt>
      <trkpt lat="59.860237995162606" lon="7.092753974720836">
        <ele>1183.52</ele>
        <time>2018-10-15T15:53:07Z</time>
      </trkpt>
      <trkpt lat="59.860240006819367" lon="7.093150019645691">
        <ele>1181.5999999999999</ele>
        <time>2018-10-15T15:53:16Z</time>
      </trkpt>
      <trkpt lat="59.860282000154257" lon="7.093603983521462">
        <ele>1179.1900000000001</ele>
        <time>2018-10-15T15:53:26Z</time>
      </trkpt>
      <trkpt lat="59.860273031517863" lon="7.093926016241312">
        <ele>1177.27</ele>
        <time>2018-10-15T15:53:37Z</time>
      </trkpt>
      <trkpt lat="59.860242018476129" lon="7.093978989869356">
        <ele>1175.3499999999999</ele>
        <time>2018-10-15T15:53:43Z</time>
      </trkpt>
      <trkpt lat="59.860212011262774" lon="7.093989970162511">
        <ele>1174.8699999999999</ele>
        <time>2018-10-15T15:53:46Z</time>
      </trkpt>
      <trkpt lat="59.860177980735898" lon="7.09402902983129">
        <ele>1172.47</ele>
        <time>2018-10-15T15:53:50Z</time>
      </trkpt>
      <trkpt lat="59.860164988785982" lon="7.094100024551153">
        <ele>1170.54</ele>
        <time>2018-10-15T15:53:53Z</time>
      </trkpt>
      <trkpt lat="59.860143028199673" lon="7.094155009835959">
        <ele>1169.0999999999999</ele>
        <time>2018-10-15T15:53:56Z</time>
      </trkpt>
      <trkpt lat="59.860130036249757" lon="7.094191974028945">
        <ele>1167.6600000000001</ele>
        <time>2018-10-15T15:53:59Z</time>
      </trkpt>
      <trkpt lat="59.860130958259106" lon="7.094269003719091">
        <ele>1166.22</ele>
        <time>2018-10-15T15:54:02Z</time>
      </trkpt>
      <trkpt lat="59.860081002116203" lon="7.094374028965831">
        <ele>1164.29</ele>
        <time>2018-10-15T15:54:06Z</time>
      </trkpt>
      <trkpt lat="59.860054012387991" lon="7.094476036727428">
        <ele>1162.3699999999999</ele>
        <time>2018-10-15T15:54:09Z</time>
      </trkpt>
      <trkpt lat="59.860018976032734" lon="7.094605034217238">
        <ele>1161.4100000000001</ele>
        <time>2018-10-15T15:54:12Z</time>
      </trkpt>
      <trkpt lat="59.860004978254437" lon="7.094712993130088">
        <ele>1158.53</ele>
        <time>2018-10-15T15:54:17Z</time>
      </trkpt>
      <trkpt lat="59.860003972426057" lon="7.094775019213557">
        <ele>1157.0799999999999</ele>
        <time>2018-10-15T15:54:20Z</time>
      </trkpt>
      <trkpt lat="59.859983017668128" lon="7.094877026975155">
        <ele>1155.6400000000001</ele>
        <time>2018-10-15T15:54:23Z</time>
      </trkpt>
      <trkpt lat="59.859947981312871" lon="7.094897981733084">
        <ele>1154.2</ele>
        <time>2018-10-15T15:54:26Z</time>
      </trkpt>
      <trkpt lat="59.859925014898181" lon="7.094955984503031">
        <ele>1152.28</ele>
        <time>2018-10-15T15:54:29Z</time>
      </trkpt>
      <trkpt lat="59.859904982149601" lon="7.09503997117281">
        <ele>1150.3499999999999</ele>
        <time>2018-10-15T15:54:32Z</time>
      </trkpt>
      <trkpt lat="59.859870029613376" lon="7.095049023628235">
        <ele>1148.9100000000001</ele>
        <time>2018-10-15T15:54:35Z</time>
      </trkpt>
      <trkpt lat="59.85981797799468" lon="7.09508297033608">
        <ele>1147.47</ele>
        <time>2018-10-15T15:54:38Z</time>
      </trkpt>
      <trkpt lat="59.859802974388003" lon="7.095046006143093">
        <ele>1146.03</ele>
        <time>2018-10-15T15:54:41Z</time>
      </trkpt>
      <trkpt lat="59.859797023236752" lon="7.095091016963124">
        <ele>1144.5899999999999</ele>
        <time>2018-10-15T15:54:44Z</time>
      </trkpt>
      <trkpt lat="59.859754024073482" lon="7.095178021118045">
        <ele>1142.1800000000001</ele>
        <time>2018-10-15T15:54:48Z</time>
      </trkpt>
      <trkpt lat="59.859734997153282" lon="7.095206016674638">
        <ele>1140.74</ele>
        <time>2018-10-15T15:54:51Z</time>
      </trkpt>
      <trkpt lat="59.859686968848109" lon="7.095283968374133">
        <ele>1138.3399999999999</ele>
        <time>2018-10-15T15:54:56Z</time>
      </trkpt>
      <trkpt lat="59.859651010483503" lon="7.095313975587487">
        <ele>1137.8599999999999</ele>
        <time>2018-10-15T15:54:58Z</time>
      </trkpt>
      <trkpt lat="59.859628966078162" lon="7.095310958102346">
        <ele>1135.9400000000001</ele>
        <time>2018-10-15T15:55:01Z</time>
      </trkpt>
      <trkpt lat="59.859609017148614" lon="7.095366027206183">
        <ele>1134.49</ele>
        <time>2018-10-15T15:55:04Z</time>
      </trkpt>
      <trkpt lat="59.859584039077163" lon="7.095392011106014">
        <ele>1132.5699999999999</ele>
        <time>2018-10-15T15:55:09Z</time>
      </trkpt>
      <trkpt lat="59.859571969136596" lon="7.095422018319368">
        <ele>1132.0899999999999</ele>
        <time>2018-10-15T15:55:11Z</time>
      </trkpt>
      <trkpt lat="59.859468033537269" lon="7.095412965863943">
        <ele>1128.73</ele>
        <time>2018-10-15T15:55:18Z</time>
      </trkpt>
      <trkpt lat="59.859396032989025" lon="7.095387987792492">
        <ele>1127.28</ele>
        <time>2018-10-15T15:55:21Z</time>
      </trkpt>
      <trkpt lat="59.85934398137033" lon="7.095439033582807">
        <ele>1124.8800000000001</ele>
        <time>2018-10-15T15:55:24Z</time>
      </trkpt>
      <trkpt lat="59.859295031055808" lon="7.095512039959431">
        <ele>1122</ele>
        <time>2018-10-15T15:55:27Z</time>
      </trkpt>
      <trkpt lat="59.859286984428763" lon="7.095537018030882">
        <ele>1122</ele>
        <time>2018-10-15T15:55:28Z</time>
      </trkpt>
      <trkpt lat="59.859244991093874" lon="7.095621004700661">
        <ele>1120.0699999999999</ele>
        <time>2018-10-15T15:55:31Z</time>
      </trkpt>
      <trkpt lat="59.859098978340626" lon="7.095656041055918">
        <ele>1116.71</ele>
        <time>2018-10-15T15:55:39Z</time>
      </trkpt>
      <trkpt lat="59.859095038846135" lon="7.095658974722028">
        <ele>1116.23</ele>
        <time>2018-10-15T15:55:42Z</time>
      </trkpt>
      <trkpt lat="59.859101995825768" lon="7.095968015491962">
        <ele>1115.75</ele>
        <time>2018-10-15T15:55:51Z</time>
      </trkpt>
      <trkpt lat="59.859126973897219" lon="7.096218969672918">
        <ele>1114.3099999999999</ele>
        <time>2018-10-15T15:56:00Z</time>
      </trkpt>
      <trkpt lat="59.859095960855484" lon="7.096333969384432">
        <ele>1112.8599999999999</ele>
        <time>2018-10-15T15:56:04Z</time>
      </trkpt>
      <trkpt lat="59.859062014147639" lon="7.096405969932675">
        <ele>1110.46</ele>
        <time>2018-10-15T15:56:07Z</time>
      </trkpt>
      <trkpt lat="59.859015997499228" lon="7.096332963556051">
        <ele>1107.5799999999999</ele>
        <time>2018-10-15T15:56:17Z</time>
      </trkpt>
      <trkpt lat="59.858954977244139" lon="7.096061976626515">
        <ele>1106.6099999999999</ele>
        <time>2018-10-15T15:56:32Z</time>
      </trkpt>
      <trkpt lat="59.858912983909249" lon="7.095859972760081">
        <ele>1104.21</ele>
        <time>2018-10-15T15:56:38Z</time>
      </trkpt>
      <trkpt lat="59.858890017494559" lon="7.095786966383457">
        <ele>1103.25</ele>
        <time>2018-10-15T15:56:43Z</time>
      </trkpt>
      <trkpt lat="59.858876019716263" lon="7.095798030495644">
        <ele>1102.29</ele>
        <time>2018-10-15T15:56:45Z</time>
      </trkpt>
      <trkpt lat="59.858840983361006" lon="7.095742961391807">
        <ele>1100.3699999999999</ele>
        <time>2018-10-15T15:56:49Z</time>
      </trkpt>
      <trkpt lat="59.858833020552993" lon="7.095744973048568">
        <ele>1099.8900000000001</ele>
        <time>2018-10-15T15:56:50Z</time>
      </trkpt>
      <trkpt lat="59.858752973377705" lon="7.095724018290639">
        <ele>1097</ele>
        <time>2018-10-15T15:56:56Z</time>
      </trkpt>
      <trkpt lat="59.858715003356338" lon="7.0957260299474">
        <ele>1095.5599999999999</ele>
        <time>2018-10-15T15:56:59Z</time>
      </trkpt>
      <trkpt lat="59.858701005578041" lon="7.095721000805497">
        <ele>1093.6400000000001</ele>
        <time>2018-10-15T15:57:02Z</time>
      </trkpt>
      <trkpt lat="59.858675021678209" lon="7.095679007470608">
        <ele>1091.23</ele>
        <time>2018-10-15T15:57:07Z</time>
      </trkpt>
      <trkpt lat="59.858638979494572" lon="7.095632990822196">
        <ele>1089.79</ele>
        <time>2018-10-15T15:57:15Z</time>
      </trkpt>
      <trkpt lat="59.858588017523289" lon="7.09568495862186">
        <ele>1086.9100000000001</ele>
        <time>2018-10-15T15:57:24Z</time>
      </trkpt>
      <trkpt lat="59.85854803584516" lon="7.095739021897316">
        <ele>1084.99</ele>
        <time>2018-10-15T15:57:29Z</time>
      </trkpt>
      <trkpt lat="59.858491960912943" lon="7.095809010788798">
        <ele>1082.5799999999999</ele>
        <time>2018-10-15T15:57:39Z</time>
      </trkpt>
      <trkpt lat="59.858408980071545" lon="7.095788978040218">
        <ele>1080.1800000000001</ele>
        <time>2018-10-15T15:57:45Z</time>
      </trkpt>
      <trkpt lat="59.858371010050178" lon="7.095865001901984">
        <ele>1078.74</ele>
        <time>2018-10-15T15:57:48Z</time>
      </trkpt>
      <trkpt lat="59.858236983418465" lon="7.095970027148724">
        <ele>1075.8499999999999</ele>
        <time>2018-10-15T15:57:54Z</time>
      </trkpt>
      <trkpt lat="59.858188033103943" lon="7.09604999050498">
        <ele>1073.9300000000001</ele>
        <time>2018-10-15T15:57:57Z</time>
      </trkpt>
      <trkpt lat="59.858115026727319" lon="7.09613598883152">
        <ele>1072.49</ele>
        <time>2018-10-15T15:58:00Z</time>
      </trkpt>
      <trkpt lat="59.858063980937004" lon="7.096251994371414">
        <ele>1070.5699999999999</ele>
        <time>2018-10-15T15:58:03Z</time>
      </trkpt>
      <trkpt lat="59.857997009530663" lon="7.096373029053211">
        <ele>1068.6400000000001</ele>
        <time>2018-10-15T15:58:09Z</time>
      </trkpt>
      <trkpt lat="59.857856025919318" lon="7.09628401324153">
        <ele>1066.72</ele>
        <time>2018-10-15T15:58:17Z</time>
      </trkpt>
      <trkpt lat="59.857712024822831" lon="7.09626498632133">
        <ele>1063.3599999999999</ele>
        <time>2018-10-15T15:58:25Z</time>
      </trkpt>
      <trkpt lat="59.857699032872915" lon="7.096247971057892">
        <ele>1063.3599999999999</ele>
        <time>2018-10-15T15:58:26Z</time>
      </trkpt>
      <trkpt lat="59.857669025659561" lon="7.096246965229511">
        <ele>1060.95</ele>
        <time>2018-10-15T15:58:29Z</time>
      </trkpt>
      <trkpt lat="59.857614962384105" lon="7.096273032948375">
        <ele>1059.03</ele>
        <time>2018-10-15T15:58:32Z</time>
      </trkpt>
      <trkpt lat="59.857591995969415" lon="7.096278984099627">
        <ele>1057.5899999999999</ele>
        <time>2018-10-15T15:58:35Z</time>
      </trkpt>
      <trkpt lat="59.857519995421171" lon="7.096278984099627">
        <ele>1055.1800000000001</ele>
        <time>2018-10-15T15:58:39Z</time>
      </trkpt>
      <trkpt lat="59.857496023178101" lon="7.096274960786104">
        <ele>1053.74</ele>
        <time>2018-10-15T15:58:42Z</time>
      </trkpt>
      <trkpt lat="59.857487976551056" lon="7.09626498632133">
        <ele>1051.8199999999999</ele>
        <time>2018-10-15T15:58:45Z</time>
      </trkpt>
      <trkpt lat="59.85747498460114" lon="7.096290970221162">
        <ele>1049.9000000000001</ele>
        <time>2018-10-15T15:58:47Z</time>
      </trkpt>
      <trkpt lat="59.857407007366419" lon="7.096538990736008">
        <ele>1047.49</ele>
        <time>2018-10-15T15:58:55Z</time>
      </trkpt>
      <trkpt lat="59.857407007366419" lon="7.096590036526322">
        <ele>1047.01</ele>
        <time>2018-10-15T15:58:59Z</time>
      </trkpt>
      <trkpt lat="59.857364008203149" lon="7.096784999594092">
        <ele>1046.05</ele>
        <time>2018-10-15T15:59:08Z</time>
      </trkpt>
      <trkpt lat="59.857332995161414" lon="7.096797991544008">
        <ele>1044.6099999999999</ele>
        <time>2018-10-15T15:59:11Z</time>
      </trkpt>
      <trkpt lat="59.857282033190131" lon="7.096711993217468">
        <ele>1041.73</ele>
        <time>2018-10-15T15:59:15Z</time>
      </trkpt>
      <trkpt lat="59.857234004884958" lon="7.096681986004114">
        <ele>1040.28</ele>
        <time>2018-10-15T15:59:18Z</time>
      </trkpt>
      <trkpt lat="59.857176002115011" lon="7.096691960468888">
        <ele>1038.3599999999999</ele>
        <time>2018-10-15T15:59:21Z</time>
      </trkpt>
      <trkpt lat="59.857133002951741" lon="7.096591964364052">
        <ele>1035.96</ele>
        <time>2018-10-15T15:59:27Z</time>
      </trkpt>
      <trkpt lat="59.857100984081626" lon="7.09669497795403">
        <ele>1034.04</ele>
        <time>2018-10-15T15:59:31Z</time>
      </trkpt>
      <trkpt lat="59.857081035152078" lon="7.096768990159035">
        <ele>1033.0699999999999</ele>
        <time>2018-10-15T15:59:34Z</time>
      </trkpt>
      <trkpt lat="59.857006017118692" lon="7.096889019012451">
        <ele>1030.6700000000001</ele>
        <time>2018-10-15T15:59:40Z</time>
      </trkpt>
      <trkpt lat="59.856972992420197" lon="7.096960013732314">
        <ele>1029.23</ele>
        <time>2018-10-15T15:59:42Z</time>
      </trkpt>
      <trkpt lat="59.856894034892321" lon="7.096996977925301">
        <ele>1027.3099999999999</ele>
        <time>2018-10-15T15:59:46Z</time>
      </trkpt>
      <trkpt lat="59.856812981888652" lon="7.097067972645164">
        <ele>1024.4200000000001</ele>
        <time>2018-10-15T15:59:52Z</time>
      </trkpt>
      <trkpt lat="59.856819016858935" lon="7.097262013703585">
        <ele>1023.46</ele>
        <time>2018-10-15T15:59:59Z</time>
      </trkpt>
      <trkpt lat="59.856806024909019" lon="7.097666021436453">
        <ele>1022.02</ele>
        <time>2018-10-15T16:00:08Z</time>
      </trkpt>
      <trkpt lat="59.856720026582479" lon="7.097957963123918">
        <ele>1019.62</ele>
        <time>2018-10-15T16:00:14Z</time>
      </trkpt>
      <trkpt lat="59.856665041297674" lon="7.098200032487512">
        <ele>1017.6900000000001</ele>
        <time>2018-10-15T16:00:21Z</time>
      </trkpt>
      <trkpt lat="59.856587005779147" lon="7.098505971953273">
        <ele>1016.25</ele>
        <time>2018-10-15T16:00:29Z</time>
      </trkpt>
      <trkpt lat="59.856562027707696" lon="7.098588030785322">
        <ele>1015.29</ele>
        <time>2018-10-15T16:00:32Z</time>
      </trkpt>
      <trkpt lat="59.856530008837581" lon="7.098699007183313">
        <ele>1013.37</ele>
        <time>2018-10-15T16:00:35Z</time>
      </trkpt>
      <trkpt lat="59.856492960825562" lon="7.098949961364269">
        <ele>1011.4400000000001</ele>
        <time>2018-10-15T16:00:42Z</time>
      </trkpt>
      <trkpt lat="59.856497989967465" lon="7.09924902766943">
        <ele>1011.4400000000001</ele>
        <time>2018-10-15T16:00:48Z</time>
      </trkpt>
      <trkpt lat="59.856481980532408" lon="7.099524037912488">
        <ele>1011.4400000000001</ele>
        <time>2018-10-15T16:00:55Z</time>
      </trkpt>
      <trkpt lat="59.856477035209537" lon="7.09978798404336">
        <ele>1010.96</ele>
        <time>2018-10-15T16:01:02Z</time>
      </trkpt>
      <trkpt lat="59.856449961662292" lon="7.100028041750193">
        <ele>1010.48</ele>
        <time>2018-10-15T16:01:08Z</time>
      </trkpt>
      <trkpt lat="59.856458008289337" lon="7.10032501257956">
        <ele>1010.96</ele>
        <time>2018-10-15T16:01:16Z</time>
      </trkpt>
      <trkpt lat="59.856433030217886" lon="7.100566998124123">
        <ele>1010.48</ele>
        <time>2018-10-15T16:01:22Z</time>
      </trkpt>
      <trkpt lat="59.856383996084332" lon="7.10090696811676">
        <ele>1008.5599999999999</ele>
        <time>2018-10-15T16:01:30Z</time>
      </trkpt>
      <trkpt lat="59.856374021619558" lon="7.101159011945128">
        <ele>1007.12</ele>
        <time>2018-10-15T16:01:38Z</time>
      </trkpt>
      <trkpt lat="59.856472006067634" lon="7.10129396058619">
        <ele>1006.64</ele>
        <time>2018-10-15T16:01:46Z</time>
      </trkpt>
      <trkpt lat="59.856548029929399" lon="7.101519014686346">
        <ele>1005.6799999999999</ele>
        <time>2018-10-15T16:01:52Z</time>
      </trkpt>
      <trkpt lat="59.856567978858948" lon="7.101753037422895">
        <ele>1004.72</ele>
        <time>2018-10-15T16:01:58Z</time>
      </trkpt>
      <trkpt lat="59.856519028544426" lon="7.102072974666953">
        <ele>1004.23</ele>
        <time>2018-10-15T16:02:05Z</time>
      </trkpt>
      <trkpt lat="59.856562027707696" lon="7.102196021005511">
        <ele>1004.72</ele>
        <time>2018-10-15T16:02:11Z</time>
      </trkpt>
      <trkpt lat="59.85659203492105" lon="7.102363994345069">
        <ele>1006.16</ele>
        <time>2018-10-15T16:02:17Z</time>
      </trkpt>
      <trkpt lat="59.856632016599178" lon="7.102627018466592">
        <ele>1007.12</ele>
        <time>2018-10-15T16:02:26Z</time>
      </trkpt>
      <trkpt lat="59.85665800049901" lon="7.102915020659566">
        <ele>1007.12</ele>
        <time>2018-10-15T16:02:33Z</time>
      </trkpt>
      <trkpt lat="59.85663796775043" lon="7.103080982342362">
        <ele>1007.12</ele>
        <time>2018-10-15T16:02:38Z</time>
      </trkpt>
      <trkpt lat="59.856632016599178" lon="7.103376025334001">
        <ele>1006.16</ele>
        <time>2018-10-15T16:02:45Z</time>
      </trkpt>
      <trkpt lat="59.856601003557444" lon="7.103631002828479">
        <ele>1003.75</ele>
        <time>2018-10-15T16:02:51Z</time>
      </trkpt>
      <trkpt lat="59.856564039364457" lon="7.103843986988068">
        <ele>1002.3099999999999</ele>
        <time>2018-10-15T16:02:57Z</time>
      </trkpt>
      <trkpt lat="59.85650897026062" lon="7.104043979197741">
        <ele>1000.87</ele>
        <time>2018-10-15T16:03:03Z</time>
      </trkpt>
      <trkpt lat="59.85646496526897" lon="7.104115979745984">
        <ele>998.95000000000005</ele>
        <time>2018-10-15T16:03:08Z</time>
      </trkpt>
      <trkpt lat="59.856462031602859" lon="7.104130983352661">
        <ele>997.99000000000001</ele>
        <time>2018-10-15T16:03:36Z</time>
      </trkpt>
      <trkpt lat="59.856431018561125" lon="7.104404987767339">
        <ele>996.53999999999996</ele>
        <time>2018-10-15T16:03:45Z</time>
      </trkpt>
      <trkpt lat="59.856395982205868" lon="7.104714028537273">
        <ele>994.13999999999999</ele>
        <time>2018-10-15T16:03:52Z</time>
      </trkpt>
      <trkpt lat="59.85635600052774" lon="7.104955008253455">
        <ele>991.74000000000001</ele>
        <time>2018-10-15T16:04:00Z</time>
      </trkpt>
      <trkpt lat="59.856307972222567" lon="7.105112001299858">
        <ele>989.80999999999995</ele>
        <time>2018-10-15T16:04:06Z</time>
      </trkpt>
      <trkpt lat="59.856277965009212" lon="7.105262037366629">
        <ele>987.88999999999999</ele>
        <time>2018-10-15T16:04:09Z</time>
      </trkpt>
      <trkpt lat="59.856324987486005" lon="7.105534030124545">
        <ele>985.49000000000001</ele>
        <time>2018-10-15T16:04:17Z</time>
      </trkpt>
      <trkpt lat="59.856315013021231" lon="7.10573997348547">
        <ele>985.49000000000001</ele>
        <time>2018-10-15T16:04:24Z</time>
      </trkpt>
      <trkpt lat="59.856328004971147" lon="7.105961004272103">
        <ele>984.04999999999995</ele>
        <time>2018-10-15T16:04:30Z</time>
      </trkpt>
      <trkpt lat="59.85629296861589" lon="7.106229979544878">
        <ele>981.63999999999999</ele>
        <time>2018-10-15T16:04:37Z</time>
      </trkpt>
      <trkpt lat="59.856260027736425" lon="7.106481017544866">
        <ele>980.20000000000005</ele>
        <time>2018-10-15T16:04:43Z</time>
      </trkpt>
      <trkpt lat="59.856210993602872" lon="7.106695007532835">
        <ele>979.72000000000003</ele>
        <time>2018-10-15T16:04:49Z</time>
      </trkpt>
      <trkpt lat="59.856187021359801" lon="7.106853006407619">
        <ele>979.72000000000003</ele>
        <time>2018-10-15T16:04:54Z</time>
      </trkpt>
      <trkpt lat="59.856070009991527" lon="7.106944033876061">
        <ele>980.20000000000005</ele>
        <time>2018-10-15T16:05:00Z</time>
      </trkpt>
      <trkpt lat="59.855891978368163" lon="7.106853006407619">
        <ele>978.75999999999999</ele>
        <time>2018-10-15T16:05:07Z</time>
      </trkpt>
      <trkpt lat="59.855707995593548" lon="7.10692098364234">
        <ele>977.32000000000005</ele>
        <time>2018-10-15T16:05:15Z</time>
      </trkpt>
      <trkpt lat="59.855530969798565" lon="7.107075965031982">
        <ele>975.38999999999999</ele>
        <time>2018-10-15T16:05:22Z</time>
      </trkpt>
      <trkpt lat="59.855394009500742" lon="7.107327003031969">
        <ele>974.42999999999995</ele>
        <time>2018-10-15T16:05:30Z</time>
      </trkpt>
      <trkpt lat="59.85532402060926" lon="7.107612993568182">
        <ele>974.42999999999995</ele>
        <time>2018-10-15T16:05:37Z</time>
      </trkpt>
      <trkpt lat="59.855271968990564" lon="7.107880041003227">
        <ele>974.42999999999995</ele>
        <time>2018-10-15T16:05:44Z</time>
      </trkpt>
      <trkpt lat="59.855212038382888" lon="7.108175000175834">
        <ele>973.95000000000005</ele>
        <time>2018-10-15T16:05:51Z</time>
      </trkpt>
      <trkpt lat="59.855144983157516" lon="7.108450010418892">
        <ele>973.95000000000005</ele>
        <time>2018-10-15T16:05:58Z</time>
      </trkpt>
      <trkpt lat="59.85513299703598" lon="7.108570039272308">
        <ele>973.95000000000005</ele>
        <time>2018-10-15T16:06:01Z</time>
      </trkpt>
      <trkpt lat="59.855087986215949" lon="7.108864998444915">
        <ele>973.47000000000003</ele>
        <time>2018-10-15T16:06:08Z</time>
      </trkpt>
      <trkpt lat="59.855017997324467" lon="7.109128022566438">
        <ele>973.47000000000003</ele>
        <time>2018-10-15T16:06:15Z</time>
      </trkpt>
      <trkpt lat="59.854947002604604" lon="7.109365984797478">
        <ele>973.95000000000005</ele>
        <time>2018-10-15T16:06:22Z</time>
      </trkpt>
      <trkpt lat="59.854888999834657" lon="7.109572011977434">
        <ele>973.47000000000003</ele>
        <time>2018-10-15T16:06:28Z</time>
      </trkpt>
      <trkpt lat="59.85481096431613" lon="7.109841993078589">
        <ele>973.47000000000003</ele>
        <time>2018-10-15T16:06:35Z</time>
      </trkpt>
      <trkpt lat="59.854691019281745" lon="7.110180035233498">
        <ele>973.47000000000003</ele>
        <time>2018-10-15T16:06:45Z</time>
      </trkpt>
      <trkpt lat="59.85459596849978" lon="7.110542971640825">
        <ele>972.99000000000001</ele>
        <time>2018-10-15T16:06:57Z</time>
      </trkpt>
      <trkpt lat="59.854527991265059" lon="7.110767019912601">
        <ele>972.99000000000001</ele>
        <time>2018-10-15T16:07:04Z</time>
      </trkpt>
      <trkpt lat="59.854483986273408" lon="7.110989978536964">
        <ele>972.50999999999999</ele>
        <time>2018-10-15T16:07:10Z</time>
      </trkpt>
      <trkpt lat="59.854427995160222" lon="7.111245961859822">
        <ele>972.99000000000001</ele>
        <time>2018-10-15T16:07:17Z</time>
      </trkpt>
      <trkpt lat="59.854352977126837" lon="7.111494988203049">
        <ele>972.50999999999999</ele>
        <time>2018-10-15T16:07:23Z</time>
      </trkpt>
      <trkpt lat="59.854250969365239" lon="7.111803023144603">
        <ele>972.99000000000001</ele>
        <time>2018-10-15T16:07:31Z</time>
      </trkpt>
      <trkpt lat="59.854147033765912" lon="7.112035034224391">
        <ele>972.99000000000001</ele>
        <time>2018-10-15T16:07:39Z</time>
      </trkpt>
      <trkpt lat="59.854051982983947" lon="7.112209964543581">
        <ele>972.99000000000001</ele>
        <time>2018-10-15T16:07:45Z</time>
      </trkpt>
      <trkpt lat="59.853949975222349" lon="7.112423032522202">
        <ele>972.99000000000001</ele>
        <time>2018-10-15T16:07:52Z</time>
      </trkpt>
      <trkpt lat="59.853831036016345" lon="7.112641967833042">
        <ele>972.99000000000001</ele>
        <time>2018-10-15T16:07:59Z</time>
      </trkpt>
      <trkpt lat="59.85373699106276" lon="7.112819999456406">
        <ele>972.99000000000001</ele>
        <time>2018-10-15T16:08:06Z</time>
      </trkpt>
      <trkpt lat="59.853734979405999" lon="7.112839026376605">
        <ele>973.95000000000005</ele>
        <time>2018-10-15T16:08:18Z</time>
      </trkpt>
      <trkpt lat="59.853616040199995" lon="7.113114036619663">
        <ele>973.47000000000003</ele>
        <time>2018-10-15T16:08:30Z</time>
      </trkpt>
      <trkpt lat="59.853458041325212" lon="7.113471021875739">
        <ele>973.95000000000005</ele>
        <time>2018-10-15T16:08:48Z</time>
      </trkpt>
      <trkpt lat="59.853430967777967" lon="7.113528018817306">
        <ele>973.95000000000005</ele>
        <time>2018-10-15T16:08:51Z</time>
      </trkpt>
      <trkpt lat="59.85337003134191" lon="7.113721976056695">
        <ele>974.42999999999995</ele>
        <time>2018-10-15T16:09:03Z</time>
      </trkpt>
      <trkpt lat="59.853293001651764" lon="7.113952981308103">
        <ele>975.88</ele>
        <time>2018-10-15T16:09:16Z</time>
      </trkpt>
      <trkpt lat="59.853231981396675" lon="7.114132018759847">
        <ele>974.90999999999997</ele>
        <time>2018-10-15T16:09:32Z</time>
      </trkpt>
      <trkpt lat="59.853150006383657" lon="7.114336034283042">
        <ele>975.38999999999999</ele>
        <time>2018-10-15T16:09:49Z</time>
      </trkpt>
      <trkpt lat="59.8531339969486" lon="7.114369980990887">
        <ele>975.88</ele>
        <time>2018-10-15T16:10:14Z</time>
      </trkpt>
      <trkpt lat="59.853100972250104" lon="7.114471988752484">
        <ele>975.88</ele>
        <time>2018-10-15T16:10:31Z</time>
      </trkpt>
      <trkpt lat="59.853072976693511" lon="7.114497972652316">
        <ele>976.84000000000003</ele>
        <time>2018-10-15T16:12:28Z</time>
      </trkpt>
      <trkpt lat="59.853057973086834" lon="7.114521022886038">
        <ele>976.84000000000003</ele>
        <time>2018-10-15T16:12:32Z</time>
      </trkpt>
      <trkpt lat="59.853052021935582" lon="7.114562010392547">
        <ele>976.84000000000003</ele>
        <time>2018-10-15T16:12:44Z</time>
      </trkpt>
      <trkpt lat="59.853055961430073" lon="7.114541977643967">
        <ele>976.84000000000003</ele>
        <time>2018-10-15T16:13:04Z</time>
      </trkpt>
      <trkpt lat="59.853041041642427" lon="7.114464025944471">
        <ele>976.84000000000003</ele>
        <time>2018-10-15T16:14:06Z</time>
      </trkpt>
      <trkpt lat="59.853055961430073" lon="7.114444999024272">
        <ele>976.84000000000003</ele>
        <time>2018-10-15T16:14:15Z</time>
      </trkpt>
      <trkpt lat="59.853056967258453" lon="7.114427983760834">
        <ele>976.84000000000003</ele>
        <time>2018-10-15T16:14:17Z</time>
      </trkpt>
      <trkpt lat="59.853043975308537" lon="7.114435024559498">
        <ele>976.84000000000003</ele>
        <time>2018-10-15T16:14:26Z</time>
      </trkpt>
      <trkpt lat="59.853014973923564" lon="7.114443993195891">
        <ele>977.32000000000005</ele>
        <time>2018-10-15T16:14:34Z</time>
      </trkpt>
      <trkpt lat="59.853007011115551" lon="7.11444097571075">
        <ele>977.79999999999995</ele>
        <time>2018-10-15T16:14:43Z</time>
      </trkpt>
      <trkpt lat="59.853012040257454" lon="7.114444999024272">
        <ele>977.32000000000005</ele>
        <time>2018-10-15T16:14:48Z</time>
      </trkpt>
    </trkseg>
  </trk>

</gpx>